<?xml version="1.0" encoding="utf-8"?>
<gpx xmlns:xsi="http://www.w3.org/2001/XMLSchema-instance" xmlns:xsd="http://www.w3.org/2001/XMLSchema" version="1.1" creator="Shapelink.com" xmlns="http://www.topografix.com/GPX/1/1" xmlns:gpxtpx="http://www.garmin.com/xmlschemas/TrackPointExtension/v1">
  <metadata>
    <name>Andet 51.02 km, 2017-10-08</name>
    <desc></desc>
    <author><name>Bengt-Åke Forslund</name></author> 
    <time>2017-10-08T10:00:17Z</time>
  </metadata>
  <trk>
    <name>Andet 51.02 km, 2017-10-08</name>
    <trkseg>
      <trkpt lat="62.6324131" lon="17.9379111">
        <ele>6.38586</ele>
        <time>2017-10-08T10:00:17Z</time>
      </trkpt>
      <trkpt lat="62.6323759" lon="17.9379767">
        <ele>7.34717</ele>
        <time>2017-10-08T10:01:05Z</time>
      </trkpt>
      <trkpt lat="62.6323146" lon="17.9378959">
        <ele>7.34717</ele>
        <time>2017-10-08T10:01:08Z</time>
      </trkpt>
      <trkpt lat="62.6323623" lon="17.9377925">
        <ele>6.86646</ele>
        <time>2017-10-08T10:01:11Z</time>
      </trkpt>
      <trkpt lat="62.6324484" lon="17.9376729">
        <ele>5.90527</ele>
        <time>2017-10-08T10:01:16Z</time>
      </trkpt>
      <trkpt lat="62.6325636" lon="17.9374569">
        <ele>4.94385</ele>
        <time>2017-10-08T10:01:23Z</time>
      </trkpt>
      <trkpt lat="62.6327245" lon="17.9373064">
        <ele>6.86646</ele>
        <time>2017-10-08T10:01:29Z</time>
      </trkpt>
      <trkpt lat="62.6328369" lon="17.9373372">
        <ele>9.2699</ele>
        <time>2017-10-08T10:01:32Z</time>
      </trkpt>
      <trkpt lat="62.6330954" lon="17.9375186">
        <ele>12.6344</ele>
        <time>2017-10-08T10:01:40Z</time>
      </trkpt>
      <trkpt lat="62.6332629" lon="17.9376805">
        <ele>12.1538</ele>
        <time>2017-10-08T10:01:46Z</time>
      </trkpt>
      <trkpt lat="62.633414" lon="17.9376286">
        <ele>9.2699</ele>
        <time>2017-10-08T10:01:51Z</time>
      </trkpt>
      <trkpt lat="62.6335441" lon="17.9370982">
        <ele>8.30859</ele>
        <time>2017-10-08T10:01:59Z</time>
      </trkpt>
      <trkpt lat="62.6336615" lon="17.9365452">
        <ele>7.82788</ele>
        <time>2017-10-08T10:02:07Z</time>
      </trkpt>
      <trkpt lat="62.6337835" lon="17.9358824">
        <ele>6.38586</ele>
        <time>2017-10-08T10:02:15Z</time>
      </trkpt>
      <trkpt lat="62.6339375" lon="17.9350638">
        <ele>4.94385</ele>
        <time>2017-10-08T10:02:23Z</time>
      </trkpt>
      <trkpt lat="62.6340543" lon="17.9341813">
        <ele>3.50195</ele>
        <time>2017-10-08T10:02:31Z</time>
      </trkpt>
      <trkpt lat="62.634162" lon="17.9335888">
        <ele>3.02124</ele>
        <time>2017-10-08T10:02:37Z</time>
      </trkpt>
      <trkpt lat="62.6341775" lon="17.9331238">
        <ele>2.06006</ele>
        <time>2017-10-08T10:02:42Z</time>
      </trkpt>
      <trkpt lat="62.6341474" lon="17.9329429">
        <ele>2.06006</ele>
        <time>2017-10-08T10:02:44Z</time>
      </trkpt>
      <trkpt lat="62.6340961" lon="17.9322186">
        <ele>1.09863</ele>
        <time>2017-10-08T10:02:51Z</time>
      </trkpt>
      <trkpt lat="62.6340461" lon="17.9318396">
        <ele>2.06006</ele>
        <time>2017-10-08T10:02:55Z</time>
      </trkpt>
      <trkpt lat="62.6340279" lon="17.9314905">
        <ele>1.57935</ele>
        <time>2017-10-08T10:02:59Z</time>
      </trkpt>
      <trkpt lat="62.634087" lon="17.931187">
        <ele>1.09863</ele>
        <time>2017-10-08T10:03:03Z</time>
      </trkpt>
      <trkpt lat="62.6340977" lon="17.9309397">
        <ele>0.618042</ele>
        <time>2017-10-08T10:03:06Z</time>
      </trkpt>
      <trkpt lat="62.6340321" lon="17.9303967">
        <ele>0</ele>
        <time>2017-10-08T10:03:12Z</time>
      </trkpt>
      <trkpt lat="62.6339349" lon="17.9298001">
        <ele>0.618042</ele>
        <time>2017-10-08T10:03:19Z</time>
      </trkpt>
      <trkpt lat="62.633861" lon="17.9292609">
        <ele>2.06006</ele>
        <time>2017-10-08T10:03:25Z</time>
      </trkpt>
      <trkpt lat="62.6337604" lon="17.9286334">
        <ele>2.54065</ele>
        <time>2017-10-08T10:03:32Z</time>
      </trkpt>
      <trkpt lat="62.6336694" lon="17.9279686">
        <ele>3.50195</ele>
        <time>2017-10-08T10:03:40Z</time>
      </trkpt>
      <trkpt lat="62.6336057" lon="17.9275582">
        <ele>3.50195</ele>
        <time>2017-10-08T10:03:45Z</time>
      </trkpt>
      <trkpt lat="62.6333874" lon="17.9273142">
        <ele>2.06006</ele>
        <time>2017-10-08T10:03:50Z</time>
      </trkpt>
      <trkpt lat="62.6331814" lon="17.9272261">
        <ele>1.09863</ele>
        <time>2017-10-08T10:03:54Z</time>
      </trkpt>
      <trkpt lat="62.6326177" lon="17.9270147">
        <ele>1.57935</ele>
        <time>2017-10-08T10:04:05Z</time>
      </trkpt>
      <trkpt lat="62.6324791" lon="17.9269561">
        <ele>2.54065</ele>
        <time>2017-10-08T10:04:08Z</time>
      </trkpt>
      <trkpt lat="62.6322836" lon="17.9266527">
        <ele>3.02124</ele>
        <time>2017-10-08T10:04:13Z</time>
      </trkpt>
      <trkpt lat="62.6322367" lon="17.9262725">
        <ele>3.50195</ele>
        <time>2017-10-08T10:04:17Z</time>
      </trkpt>
      <trkpt lat="62.6322407" lon="17.9261802">
        <ele>3.50195</ele>
        <time>2017-10-08T10:04:18Z</time>
      </trkpt>
      <trkpt lat="62.6323364" lon="17.9254733">
        <ele>5.42456</ele>
        <time>2017-10-08T10:04:27Z</time>
      </trkpt>
      <trkpt lat="62.6324733" lon="17.9249137">
        <ele>7.34717</ele>
        <time>2017-10-08T10:04:35Z</time>
      </trkpt>
      <trkpt lat="62.6326086" lon="17.9244781">
        <ele>7.34717</ele>
        <time>2017-10-08T10:04:41Z</time>
      </trkpt>
      <trkpt lat="62.632656" lon="17.9243201">
        <ele>7.34717</ele>
        <time>2017-10-08T10:04:43Z</time>
      </trkpt>
      <trkpt lat="62.6326858" lon="17.9238426">
        <ele>6.86646</ele>
        <time>2017-10-08T10:04:48Z</time>
      </trkpt>
      <trkpt lat="62.6325983" lon="17.923579">
        <ele>7.34717</ele>
        <time>2017-10-08T10:04:51Z</time>
      </trkpt>
      <trkpt lat="62.632305" lon="17.9230359">
        <ele>8.30859</ele>
        <time>2017-10-08T10:05:00Z</time>
      </trkpt>
      <trkpt lat="62.6322195" lon="17.9228411">
        <ele>9.2699</ele>
        <time>2017-10-08T10:05:03Z</time>
      </trkpt>
      <trkpt lat="62.6320719" lon="17.9223837">
        <ele>10.7118</ele>
        <time>2017-10-08T10:05:09Z</time>
      </trkpt>
      <trkpt lat="62.6319688" lon="17.9217037">
        <ele>12.1538</ele>
        <time>2017-10-08T10:05:17Z</time>
      </trkpt>
      <trkpt lat="62.631964" lon="17.9216185">
        <ele>12.6344</ele>
        <time>2017-10-08T10:05:18Z</time>
      </trkpt>
      <trkpt lat="62.6319771" lon="17.9205687">
        <ele>14.0764</ele>
        <time>2017-10-08T10:05:30Z</time>
      </trkpt>
      <trkpt lat="62.6319834" lon="17.9200201">
        <ele>15.0377</ele>
        <time>2017-10-08T10:05:37Z</time>
      </trkpt>
      <trkpt lat="62.6319942" lon="17.9194421">
        <ele>17.4412</ele>
        <time>2017-10-08T10:05:45Z</time>
      </trkpt>
      <trkpt lat="62.6319999" lon="17.9189029">
        <ele>20.325</ele>
        <time>2017-10-08T10:05:53Z</time>
      </trkpt>
      <trkpt lat="62.6319879" lon="17.9182921">
        <ele>23.6896</ele>
        <time>2017-10-08T10:06:03Z</time>
      </trkpt>
      <trkpt lat="62.6320665" lon="17.9180363">
        <ele>24.1703</ele>
        <time>2017-10-08T10:06:08Z</time>
      </trkpt>
      <trkpt lat="62.632223" lon="17.9177606">
        <ele>25.1317</ele>
        <time>2017-10-08T10:06:15Z</time>
      </trkpt>
      <trkpt lat="62.6323968" lon="17.9174652">
        <ele>25.6123</ele>
        <time>2017-10-08T10:06:23Z</time>
      </trkpt>
      <trkpt lat="62.6325972" lon="17.9171043">
        <ele>26.0929</ele>
        <time>2017-10-08T10:06:32Z</time>
      </trkpt>
      <trkpt lat="62.6327485" lon="17.9167759">
        <ele>27.0543</ele>
        <time>2017-10-08T10:06:39Z</time>
      </trkpt>
      <trkpt lat="62.6329053" lon="17.9163153">
        <ele>28.0155</ele>
        <time>2017-10-08T10:06:48Z</time>
      </trkpt>
      <trkpt lat="62.6330352" lon="17.9158132">
        <ele>29.4575</ele>
        <time>2017-10-08T10:06:58Z</time>
      </trkpt>
      <trkpt lat="62.6331814" lon="17.9151234">
        <ele>30.8995</ele>
        <time>2017-10-08T10:07:09Z</time>
      </trkpt>
      <trkpt lat="62.6332918" lon="17.9144831">
        <ele>31.8607</ele>
        <time>2017-10-08T10:07:19Z</time>
      </trkpt>
      <trkpt lat="62.633352" lon="17.9141388">
        <ele>32.3416</ele>
        <time>2017-10-08T10:07:25Z</time>
      </trkpt>
      <trkpt lat="62.6334237" lon="17.9136179">
        <ele>33.7834</ele>
        <time>2017-10-08T10:07:33Z</time>
      </trkpt>
      <trkpt lat="62.6335208" lon="17.9130507">
        <ele>37.1481</ele>
        <time>2017-10-08T10:07:42Z</time>
      </trkpt>
      <trkpt lat="62.6336062" lon="17.9125376">
        <ele>38.5901</ele>
        <time>2017-10-08T10:07:50Z</time>
      </trkpt>
      <trkpt lat="62.6336835" lon="17.9120731">
        <ele>38.5901</ele>
        <time>2017-10-08T10:07:58Z</time>
      </trkpt>
      <trkpt lat="62.6337766" lon="17.9117114">
        <ele>39.0707</ele>
        <time>2017-10-08T10:08:04Z</time>
      </trkpt>
      <trkpt lat="62.6339273" lon="17.9111651">
        <ele>40.5128</ele>
        <time>2017-10-08T10:08:13Z</time>
      </trkpt>
      <trkpt lat="62.6341112" lon="17.9105508">
        <ele>40.9934</ele>
        <time>2017-10-08T10:08:22Z</time>
      </trkpt>
      <trkpt lat="62.6342573" lon="17.9100038">
        <ele>40.0321</ele>
        <time>2017-10-08T10:08:29Z</time>
      </trkpt>
      <trkpt lat="62.634388" lon="17.9098152">
        <ele>39.0707</ele>
        <time>2017-10-08T10:08:33Z</time>
      </trkpt>
      <trkpt lat="62.6344711" lon="17.9098692">
        <ele>38.5901</ele>
        <time>2017-10-08T10:08:35Z</time>
      </trkpt>
      <trkpt lat="62.6345429" lon="17.9099578">
        <ele>38.5901</ele>
        <time>2017-10-08T10:08:37Z</time>
      </trkpt>
      <trkpt lat="62.6347069" lon="17.9102764">
        <ele>36.6675</ele>
        <time>2017-10-08T10:08:44Z</time>
      </trkpt>
      <trkpt lat="62.6348332" lon="17.9103633">
        <ele>35.2255</ele>
        <time>2017-10-08T10:08:47Z</time>
      </trkpt>
      <trkpt lat="62.6349472" lon="17.9103997">
        <ele>34.2642</ele>
        <time>2017-10-08T10:08:49Z</time>
      </trkpt>
      <trkpt lat="62.6352182" lon="17.9103416">
        <ele>34.7449</ele>
        <time>2017-10-08T10:08:53Z</time>
      </trkpt>
      <trkpt lat="62.6353173" lon="17.9103164">
        <ele>35.7061</ele>
        <time>2017-10-08T10:08:55Z</time>
      </trkpt>
      <trkpt lat="62.6354648" lon="17.910423">
        <ele>37.1481</ele>
        <time>2017-10-08T10:09:00Z</time>
      </trkpt>
      <trkpt lat="62.6355234" lon="17.9107175">
        <ele>37.6287</ele>
        <time>2017-10-08T10:09:04Z</time>
      </trkpt>
      <trkpt lat="62.6356583" lon="17.9114155">
        <ele>38.1094</ele>
        <time>2017-10-08T10:09:13Z</time>
      </trkpt>
      <trkpt lat="62.6358134" lon="17.9118281">
        <ele>38.1094</ele>
        <time>2017-10-08T10:09:19Z</time>
      </trkpt>
      <trkpt lat="62.635989" lon="17.9119199">
        <ele>39.0707</ele>
        <time>2017-10-08T10:09:24Z</time>
      </trkpt>
      <trkpt lat="62.6362403" lon="17.9119584">
        <ele>39.0707</ele>
        <time>2017-10-08T10:09:31Z</time>
      </trkpt>
      <trkpt lat="62.6364382" lon="17.9119169">
        <ele>38.5901</ele>
        <time>2017-10-08T10:09:36Z</time>
      </trkpt>
      <trkpt lat="62.636635" lon="17.9116937">
        <ele>37.6287</ele>
        <time>2017-10-08T10:09:42Z</time>
      </trkpt>
      <trkpt lat="62.6368603" lon="17.9115326">
        <ele>37.6287</ele>
        <time>2017-10-08T10:09:49Z</time>
      </trkpt>
      <trkpt lat="62.6371385" lon="17.9113993">
        <ele>38.5901</ele>
        <time>2017-10-08T10:09:57Z</time>
      </trkpt>
      <trkpt lat="62.6371685" lon="17.9114072">
        <ele>38.5901</ele>
        <time>2017-10-08T10:09:58Z</time>
      </trkpt>
      <trkpt lat="62.6372839" lon="17.9117419">
        <ele>37.1481</ele>
        <time>2017-10-08T10:10:03Z</time>
      </trkpt>
      <trkpt lat="62.6373431" lon="17.911924">
        <ele>36.1868</ele>
        <time>2017-10-08T10:10:05Z</time>
      </trkpt>
      <trkpt lat="62.6375342" lon="17.9119673">
        <ele>36.6675</ele>
        <time>2017-10-08T10:10:09Z</time>
      </trkpt>
      <trkpt lat="62.6376327" lon="17.9119045">
        <ele>37.1481</ele>
        <time>2017-10-08T10:10:11Z</time>
      </trkpt>
      <trkpt lat="62.6377304" lon="17.9118749">
        <ele>37.1481</ele>
        <time>2017-10-08T10:10:13Z</time>
      </trkpt>
      <trkpt lat="62.6380967" lon="17.9116724">
        <ele>35.7061</ele>
        <time>2017-10-08T10:10:22Z</time>
      </trkpt>
      <trkpt lat="62.6383093" lon="17.9118045">
        <ele>35.2255</ele>
        <time>2017-10-08T10:10:27Z</time>
      </trkpt>
      <trkpt lat="62.6384061" lon="17.9120816">
        <ele>34.7449</ele>
        <time>2017-10-08T10:10:30Z</time>
      </trkpt>
      <trkpt lat="62.6384263" lon="17.9121905">
        <ele>34.7449</ele>
        <time>2017-10-08T10:10:31Z</time>
      </trkpt>
      <trkpt lat="62.6385145" lon="17.912722">
        <ele>34.2642</ele>
        <time>2017-10-08T10:10:36Z</time>
      </trkpt>
      <trkpt lat="62.6386376" lon="17.9129484">
        <ele>34.7449</ele>
        <time>2017-10-08T10:10:40Z</time>
      </trkpt>
      <trkpt lat="62.6386779" lon="17.9129292">
        <ele>34.7449</ele>
        <time>2017-10-08T10:10:41Z</time>
      </trkpt>
      <trkpt lat="62.638993" lon="17.9126592">
        <ele>33.7834</ele>
        <time>2017-10-08T10:10:49Z</time>
      </trkpt>
      <trkpt lat="62.639081" lon="17.9125867">
        <ele>33.3029</ele>
        <time>2017-10-08T10:10:51Z</time>
      </trkpt>
      <trkpt lat="62.6392794" lon="17.91252">
        <ele>33.3029</ele>
        <time>2017-10-08T10:10:55Z</time>
      </trkpt>
      <trkpt lat="62.6394381" lon="17.9125831">
        <ele>35.2255</ele>
        <time>2017-10-08T10:10:59Z</time>
      </trkpt>
      <trkpt lat="62.6395898" lon="17.9126774">
        <ele>34.7449</ele>
        <time>2017-10-08T10:11:03Z</time>
      </trkpt>
      <trkpt lat="62.6397256" lon="17.9125267">
        <ele>34.7449</ele>
        <time>2017-10-08T10:11:07Z</time>
      </trkpt>
      <trkpt lat="62.6397653" lon="17.9124893">
        <ele>34.2642</ele>
        <time>2017-10-08T10:11:08Z</time>
      </trkpt>
      <trkpt lat="62.6398404" lon="17.9124101">
        <ele>33.7834</ele>
        <time>2017-10-08T10:11:10Z</time>
      </trkpt>
      <trkpt lat="62.6400818" lon="17.9121909">
        <ele>32.8223</ele>
        <time>2017-10-08T10:11:16Z</time>
      </trkpt>
      <trkpt lat="62.6402244" lon="17.9118962">
        <ele>34.2642</ele>
        <time>2017-10-08T10:11:20Z</time>
      </trkpt>
      <trkpt lat="62.6402869" lon="17.911653">
        <ele>35.2255</ele>
        <time>2017-10-08T10:11:23Z</time>
      </trkpt>
      <trkpt lat="62.6403463" lon="17.9114352">
        <ele>36.6675</ele>
        <time>2017-10-08T10:11:26Z</time>
      </trkpt>
      <trkpt lat="62.640546" lon="17.9110398">
        <ele>39.0707</ele>
        <time>2017-10-08T10:11:34Z</time>
      </trkpt>
      <trkpt lat="62.6407696" lon="17.9107776">
        <ele>40.5128</ele>
        <time>2017-10-08T10:11:42Z</time>
      </trkpt>
      <trkpt lat="62.6410412" lon="17.9105612">
        <ele>41.474</ele>
        <time>2017-10-08T10:11:51Z</time>
      </trkpt>
      <trkpt lat="62.6413473" lon="17.9103027">
        <ele>40.9934</ele>
        <time>2017-10-08T10:12:00Z</time>
      </trkpt>
      <trkpt lat="62.6416348" lon="17.9100578">
        <ele>41.474</ele>
        <time>2017-10-08T10:12:08Z</time>
      </trkpt>
      <trkpt lat="62.6419804" lon="17.9097387">
        <ele>40.9934</ele>
        <time>2017-10-08T10:12:17Z</time>
      </trkpt>
      <trkpt lat="62.6422984" lon="17.9094424">
        <ele>39.0707</ele>
        <time>2017-10-08T10:12:23Z</time>
      </trkpt>
      <trkpt lat="62.6427429" lon="17.9090037">
        <ele>35.7061</ele>
        <time>2017-10-08T10:12:31Z</time>
      </trkpt>
      <trkpt lat="62.6430836" lon="17.9085063">
        <ele>35.7061</ele>
        <time>2017-10-08T10:12:37Z</time>
      </trkpt>
      <trkpt lat="62.6434572" lon="17.9077418">
        <ele>37.6287</ele>
        <time>2017-10-08T10:12:45Z</time>
      </trkpt>
      <trkpt lat="62.6436499" lon="17.9072836">
        <ele>38.5901</ele>
        <time>2017-10-08T10:12:51Z</time>
      </trkpt>
      <trkpt lat="62.6436782" lon="17.9072204">
        <ele>38.5901</ele>
        <time>2017-10-08T10:12:52Z</time>
      </trkpt>
      <trkpt lat="62.6438432" lon="17.9069072">
        <ele>38.5901</ele>
        <time>2017-10-08T10:12:59Z</time>
      </trkpt>
      <trkpt lat="62.6438655" lon="17.9065784">
        <ele>39.5513</ele>
        <time>2017-10-08T10:13:03Z</time>
      </trkpt>
      <trkpt lat="62.6437476" lon="17.9061495">
        <ele>39.5513</ele>
        <time>2017-10-08T10:13:08Z</time>
      </trkpt>
      <trkpt lat="62.643513" lon="17.9055022">
        <ele>40.9934</ele>
        <time>2017-10-08T10:13:16Z</time>
      </trkpt>
      <trkpt lat="62.6434181" lon="17.9051962">
        <ele>41.474</ele>
        <time>2017-10-08T10:13:20Z</time>
      </trkpt>
      <trkpt lat="62.6433474" lon="17.9047362">
        <ele>41.474</ele>
        <time>2017-10-08T10:13:25Z</time>
      </trkpt>
      <trkpt lat="62.6432291" lon="17.9039583">
        <ele>41.9547</ele>
        <time>2017-10-08T10:13:33Z</time>
      </trkpt>
      <trkpt lat="62.6431738" lon="17.9032002">
        <ele>40.5128</ele>
        <time>2017-10-08T10:13:40Z</time>
      </trkpt>
      <trkpt lat="62.6431773" lon="17.9023786">
        <ele>40.5128</ele>
        <time>2017-10-08T10:13:47Z</time>
      </trkpt>
      <trkpt lat="62.6432148" lon="17.9015806">
        <ele>40.9934</ele>
        <time>2017-10-08T10:13:55Z</time>
      </trkpt>
      <trkpt lat="62.6432501" lon="17.9008909">
        <ele>40.9934</ele>
        <time>2017-10-08T10:14:03Z</time>
      </trkpt>
      <trkpt lat="62.6432684" lon="17.9003042">
        <ele>39.5513</ele>
        <time>2017-10-08T10:14:08Z</time>
      </trkpt>
      <trkpt lat="62.6432907" lon="17.8995071">
        <ele>39.0707</ele>
        <time>2017-10-08T10:14:14Z</time>
      </trkpt>
      <trkpt lat="62.6433225" lon="17.8984782">
        <ele>39.0707</ele>
        <time>2017-10-08T10:14:23Z</time>
      </trkpt>
      <trkpt lat="62.6433479" lon="17.8975919">
        <ele>39.0707</ele>
        <time>2017-10-08T10:14:31Z</time>
      </trkpt>
      <trkpt lat="62.6433529" lon="17.8968137">
        <ele>38.5901</ele>
        <time>2017-10-08T10:14:38Z</time>
      </trkpt>
      <trkpt lat="62.6433335" lon="17.8958943">
        <ele>38.1094</ele>
        <time>2017-10-08T10:14:46Z</time>
      </trkpt>
      <trkpt lat="62.6432832" lon="17.8949426">
        <ele>38.1094</ele>
        <time>2017-10-08T10:14:54Z</time>
      </trkpt>
      <trkpt lat="62.6432754" lon="17.8948288">
        <ele>38.1094</ele>
        <time>2017-10-08T10:14:55Z</time>
      </trkpt>
      <trkpt lat="62.6433406" lon="17.8943408">
        <ele>40.0321</ele>
        <time>2017-10-08T10:15:00Z</time>
      </trkpt>
      <trkpt lat="62.6434619" lon="17.8942204">
        <ele>40.0321</ele>
        <time>2017-10-08T10:15:03Z</time>
      </trkpt>
      <trkpt lat="62.6435948" lon="17.8941149">
        <ele>39.5513</ele>
        <time>2017-10-08T10:15:06Z</time>
      </trkpt>
      <trkpt lat="62.6437079" lon="17.8938299">
        <ele>40.0321</ele>
        <time>2017-10-08T10:15:10Z</time>
      </trkpt>
      <trkpt lat="62.6437146" lon="17.8937309">
        <ele>40.0321</ele>
        <time>2017-10-08T10:15:11Z</time>
      </trkpt>
      <trkpt lat="62.6437266" lon="17.893425">
        <ele>40.5128</ele>
        <time>2017-10-08T10:15:14Z</time>
      </trkpt>
      <trkpt lat="62.6436852" lon="17.892651">
        <ele>41.474</ele>
        <time>2017-10-08T10:15:22Z</time>
      </trkpt>
      <trkpt lat="62.643609" lon="17.8918487">
        <ele>42.4354</ele>
        <time>2017-10-08T10:15:31Z</time>
      </trkpt>
      <trkpt lat="62.6435282" lon="17.8911349">
        <ele>42.916</ele>
        <time>2017-10-08T10:15:39Z</time>
      </trkpt>
      <trkpt lat="62.6434448" lon="17.8904951">
        <ele>42.916</ele>
        <time>2017-10-08T10:15:46Z</time>
      </trkpt>
      <trkpt lat="62.6433858" lon="17.8898568">
        <ele>43.3966</ele>
        <time>2017-10-08T10:15:53Z</time>
      </trkpt>
      <trkpt lat="62.643367" lon="17.8896654">
        <ele>43.3966</ele>
        <time>2017-10-08T10:15:55Z</time>
      </trkpt>
      <trkpt lat="62.6433365" lon="17.8886633">
        <ele>43.8773</ele>
        <time>2017-10-08T10:16:05Z</time>
      </trkpt>
      <trkpt lat="62.6433206" lon="17.8881853">
        <ele>44.8386</ele>
        <time>2017-10-08T10:16:10Z</time>
      </trkpt>
      <trkpt lat="62.6433339" lon="17.8878336">
        <ele>46.2806</ele>
        <time>2017-10-08T10:16:14Z</time>
      </trkpt>
      <trkpt lat="62.643379" lon="17.8871788">
        <ele>49.1646</ele>
        <time>2017-10-08T10:16:23Z</time>
      </trkpt>
      <trkpt lat="62.6434381" lon="17.8864681">
        <ele>50.6066</ele>
        <time>2017-10-08T10:16:32Z</time>
      </trkpt>
      <trkpt lat="62.6434591" lon="17.8858465">
        <ele>53.0098</ele>
        <time>2017-10-08T10:16:40Z</time>
      </trkpt>
      <trkpt lat="62.6434493" lon="17.885172">
        <ele>53.9712</ele>
        <time>2017-10-08T10:16:48Z</time>
      </trkpt>
      <trkpt lat="62.6434195" lon="17.8845701">
        <ele>54.9324</ele>
        <time>2017-10-08T10:16:55Z</time>
      </trkpt>
      <trkpt lat="62.6433959" lon="17.883966">
        <ele>55.4131</ele>
        <time>2017-10-08T10:17:02Z</time>
      </trkpt>
      <trkpt lat="62.643364" lon="17.8834057">
        <ele>55.8938</ele>
        <time>2017-10-08T10:17:09Z</time>
      </trkpt>
      <trkpt lat="62.6433285" lon="17.882886">
        <ele>55.8938</ele>
        <time>2017-10-08T10:17:15Z</time>
      </trkpt>
      <trkpt lat="62.6433042" lon="17.8821915">
        <ele>57.8165</ele>
        <time>2017-10-08T10:17:24Z</time>
      </trkpt>
      <trkpt lat="62.6432786" lon="17.8816863">
        <ele>58.2971</ele>
        <time>2017-10-08T10:17:30Z</time>
      </trkpt>
      <trkpt lat="62.6432431" lon="17.8809731">
        <ele>57.3358</ele>
        <time>2017-10-08T10:17:39Z</time>
      </trkpt>
      <trkpt lat="62.6432258" lon="17.8801954">
        <ele>57.3358</ele>
        <time>2017-10-08T10:17:49Z</time>
      </trkpt>
      <trkpt lat="62.6432262" lon="17.8796729">
        <ele>58.2971</ele>
        <time>2017-10-08T10:17:56Z</time>
      </trkpt>
      <trkpt lat="62.6432495" lon="17.8791738">
        <ele>58.7777</ele>
        <time>2017-10-08T10:18:03Z</time>
      </trkpt>
      <trkpt lat="62.6432298" lon="17.8788211">
        <ele>59.7391</ele>
        <time>2017-10-08T10:18:08Z</time>
      </trkpt>
      <trkpt lat="62.6432148" lon="17.8783476">
        <ele>61.181</ele>
        <time>2017-10-08T10:18:15Z</time>
      </trkpt>
      <trkpt lat="62.6432199" lon="17.8779827">
        <ele>61.6617</ele>
        <time>2017-10-08T10:18:21Z</time>
      </trkpt>
      <trkpt lat="62.6432247" lon="17.8775783">
        <ele>63.1036</ele>
        <time>2017-10-08T10:18:27Z</time>
      </trkpt>
      <trkpt lat="62.6432483" lon="17.8772915">
        <ele>64.0651</ele>
        <time>2017-10-08T10:18:32Z</time>
      </trkpt>
      <trkpt lat="62.6433356" lon="17.8770963">
        <ele>64.5457</ele>
        <time>2017-10-08T10:18:37Z</time>
      </trkpt>
      <trkpt lat="62.6434442" lon="17.8768718">
        <ele>64.0651</ele>
        <time>2017-10-08T10:18:43Z</time>
      </trkpt>
      <trkpt lat="62.6435297" lon="17.8765424">
        <ele>64.5457</ele>
        <time>2017-10-08T10:18:49Z</time>
      </trkpt>
      <trkpt lat="62.6436271" lon="17.8760666">
        <ele>65.5071</ele>
        <time>2017-10-08T10:18:58Z</time>
      </trkpt>
      <trkpt lat="62.6436949" lon="17.875621">
        <ele>65.9877</ele>
        <time>2017-10-08T10:19:07Z</time>
      </trkpt>
      <trkpt lat="62.6437572" lon="17.8752827">
        <ele>66.4683</ele>
        <time>2017-10-08T10:19:15Z</time>
      </trkpt>
      <trkpt lat="62.6438111" lon="17.8748809">
        <ele>66.949</ele>
        <time>2017-10-08T10:19:23Z</time>
      </trkpt>
      <trkpt lat="62.6438887" lon="17.8744424">
        <ele>67.9103</ele>
        <time>2017-10-08T10:19:32Z</time>
      </trkpt>
      <trkpt lat="62.6439615" lon="17.8740877">
        <ele>68.8716</ele>
        <time>2017-10-08T10:19:39Z</time>
      </trkpt>
      <trkpt lat="62.6440508" lon="17.8737246">
        <ele>69.3523</ele>
        <time>2017-10-08T10:19:46Z</time>
      </trkpt>
      <trkpt lat="62.6441441" lon="17.8731758">
        <ele>70.7942</ele>
        <time>2017-10-08T10:19:55Z</time>
      </trkpt>
      <trkpt lat="62.6441745" lon="17.8727963">
        <ele>72.7169</ele>
        <time>2017-10-08T10:20:02Z</time>
      </trkpt>
      <trkpt lat="62.6442818" lon="17.8724238">
        <ele>73.1976</ele>
        <time>2017-10-08T10:20:10Z</time>
      </trkpt>
      <trkpt lat="62.6443642" lon="17.8720691">
        <ele>73.6782</ele>
        <time>2017-10-08T10:20:16Z</time>
      </trkpt>
      <trkpt lat="62.6444461" lon="17.8716659">
        <ele>75.1202</ele>
        <time>2017-10-08T10:20:22Z</time>
      </trkpt>
      <trkpt lat="62.6445186" lon="17.8710852">
        <ele>76.0814</ele>
        <time>2017-10-08T10:20:30Z</time>
      </trkpt>
      <trkpt lat="62.6445541" lon="17.8706718">
        <ele>76.5621</ele>
        <time>2017-10-08T10:20:36Z</time>
      </trkpt>
      <trkpt lat="62.644587" lon="17.8703653">
        <ele>77.0428</ele>
        <time>2017-10-08T10:20:41Z</time>
      </trkpt>
      <trkpt lat="62.6446123" lon="17.8700524">
        <ele>76.5621</ele>
        <time>2017-10-08T10:20:46Z</time>
      </trkpt>
      <trkpt lat="62.6446494" lon="17.869801">
        <ele>77.5234</ele>
        <time>2017-10-08T10:20:50Z</time>
      </trkpt>
      <trkpt lat="62.6446662" lon="17.8693905">
        <ele>78.4847</ele>
        <time>2017-10-08T10:20:56Z</time>
      </trkpt>
      <trkpt lat="62.6447127" lon="17.8689125">
        <ele>81.3688</ele>
        <time>2017-10-08T10:21:03Z</time>
      </trkpt>
      <trkpt lat="62.6448003" lon="17.868317">
        <ele>82.3301</ele>
        <time>2017-10-08T10:21:11Z</time>
      </trkpt>
      <trkpt lat="62.6449227" lon="17.8678346">
        <ele>84.7334</ele>
        <time>2017-10-08T10:21:18Z</time>
      </trkpt>
      <trkpt lat="62.644958" lon="17.867572">
        <ele>83.772</ele>
        <time>2017-10-08T10:21:22Z</time>
      </trkpt>
      <trkpt lat="62.6450162" lon="17.8673062">
        <ele>83.772</ele>
        <time>2017-10-08T10:21:26Z</time>
      </trkpt>
      <trkpt lat="62.6450823" lon="17.8670095">
        <ele>83.772</ele>
        <time>2017-10-08T10:21:31Z</time>
      </trkpt>
      <trkpt lat="62.6451604" lon="17.8667564">
        <ele>86.1753</ele>
        <time>2017-10-08T10:21:36Z</time>
      </trkpt>
      <trkpt lat="62.6452646" lon="17.8665178">
        <ele>87.6172</ele>
        <time>2017-10-08T10:21:42Z</time>
      </trkpt>
      <trkpt lat="62.6453933" lon="17.8662643">
        <ele>88.098</ele>
        <time>2017-10-08T10:21:49Z</time>
      </trkpt>
      <trkpt lat="62.6455255" lon="17.866014">
        <ele>89.5399</ele>
        <time>2017-10-08T10:21:56Z</time>
      </trkpt>
      <trkpt lat="62.6456537" lon="17.8657757">
        <ele>92.424</ele>
        <time>2017-10-08T10:22:02Z</time>
      </trkpt>
      <trkpt lat="62.6457872" lon="17.8654773">
        <ele>91.4625</ele>
        <time>2017-10-08T10:22:09Z</time>
      </trkpt>
      <trkpt lat="62.6458804" lon="17.8653039">
        <ele>91.4625</ele>
        <time>2017-10-08T10:22:14Z</time>
      </trkpt>
      <trkpt lat="62.6459965" lon="17.8650637">
        <ele>93.3851</ele>
        <time>2017-10-08T10:22:20Z</time>
      </trkpt>
      <trkpt lat="62.6461047" lon="17.8647832">
        <ele>95.3077</ele>
        <time>2017-10-08T10:22:27Z</time>
      </trkpt>
      <trkpt lat="62.6461779" lon="17.8645077">
        <ele>95.7885</ele>
        <time>2017-10-08T10:22:32Z</time>
      </trkpt>
      <trkpt lat="62.6462415" lon="17.864117">
        <ele>95.7885</ele>
        <time>2017-10-08T10:22:39Z</time>
      </trkpt>
      <trkpt lat="62.6463032" lon="17.8638483">
        <ele>95.7885</ele>
        <time>2017-10-08T10:22:45Z</time>
      </trkpt>
      <trkpt lat="62.6463601" lon="17.8635922">
        <ele>95.7885</ele>
        <time>2017-10-08T10:22:51Z</time>
      </trkpt>
      <trkpt lat="62.6464324" lon="17.8632984">
        <ele>94.8271</ele>
        <time>2017-10-08T10:22:58Z</time>
      </trkpt>
      <trkpt lat="62.6464471" lon="17.8632623">
        <ele>95.3077</ele>
        <time>2017-10-08T10:22:59Z</time>
      </trkpt>
      <trkpt lat="62.6464638" lon="17.8632125">
        <ele>96.7499</ele>
        <time>2017-10-08T10:23:03Z</time>
      </trkpt>
      <trkpt lat="62.6464925" lon="17.8630806">
        <ele>98.6725</ele>
        <time>2017-10-08T10:24:57Z</time>
      </trkpt>
      <trkpt lat="62.6465326" lon="17.8629404">
        <ele>99.1531</ele>
        <time>2017-10-08T10:25:00Z</time>
      </trkpt>
      <trkpt lat="62.646636" lon="17.8625516">
        <ele>99.1531</ele>
        <time>2017-10-08T10:25:07Z</time>
      </trkpt>
      <trkpt lat="62.646742" lon="17.8621775">
        <ele>99.1531</ele>
        <time>2017-10-08T10:25:13Z</time>
      </trkpt>
      <trkpt lat="62.6468035" lon="17.8619345">
        <ele>98.6725</ele>
        <time>2017-10-08T10:25:17Z</time>
      </trkpt>
      <trkpt lat="62.6468854" lon="17.8615441">
        <ele>97.2305</ele>
        <time>2017-10-08T10:25:23Z</time>
      </trkpt>
      <trkpt lat="62.6470066" lon="17.8612502">
        <ele>95.3077</ele>
        <time>2017-10-08T10:25:27Z</time>
      </trkpt>
      <trkpt lat="62.6471014" lon="17.861054">
        <ele>93.3851</ele>
        <time>2017-10-08T10:25:30Z</time>
      </trkpt>
      <trkpt lat="62.6471635" lon="17.8609354">
        <ele>92.9045</ele>
        <time>2017-10-08T10:25:32Z</time>
      </trkpt>
      <trkpt lat="62.6473208" lon="17.860721">
        <ele>92.9045</ele>
        <time>2017-10-08T10:25:37Z</time>
      </trkpt>
      <trkpt lat="62.6476386" lon="17.8604402">
        <ele>92.424</ele>
        <time>2017-10-08T10:25:45Z</time>
      </trkpt>
      <trkpt lat="62.647888" lon="17.8602738">
        <ele>92.424</ele>
        <time>2017-10-08T10:25:51Z</time>
      </trkpt>
      <trkpt lat="62.6480277" lon="17.8602262">
        <ele>91.4625</ele>
        <time>2017-10-08T10:25:54Z</time>
      </trkpt>
      <trkpt lat="62.6482446" lon="17.8602526">
        <ele>91.9432</ele>
        <time>2017-10-08T10:25:58Z</time>
      </trkpt>
      <trkpt lat="62.648471" lon="17.8603859">
        <ele>91.4625</ele>
        <time>2017-10-08T10:26:02Z</time>
      </trkpt>
      <trkpt lat="62.6487787" lon="17.8607829">
        <ele>91.9432</ele>
        <time>2017-10-08T10:26:08Z</time>
      </trkpt>
      <trkpt lat="62.6490611" lon="17.8609424">
        <ele>91.4625</ele>
        <time>2017-10-08T10:26:13Z</time>
      </trkpt>
      <trkpt lat="62.6494847" lon="17.8608805">
        <ele>90.0206</ele>
        <time>2017-10-08T10:26:20Z</time>
      </trkpt>
      <trkpt lat="62.6497193" lon="17.8607852">
        <ele>89.5399</ele>
        <time>2017-10-08T10:26:24Z</time>
      </trkpt>
      <trkpt lat="62.6499309" lon="17.8605868">
        <ele>87.6172</ele>
        <time>2017-10-08T10:26:28Z</time>
      </trkpt>
      <trkpt lat="62.6500793" lon="17.8603543">
        <ele>87.1366</ele>
        <time>2017-10-08T10:26:31Z</time>
      </trkpt>
      <trkpt lat="62.6502438" lon="17.859977">
        <ele>86.656</ele>
        <time>2017-10-08T10:26:35Z</time>
      </trkpt>
      <trkpt lat="62.6505371" lon="17.8591296">
        <ele>87.6172</ele>
        <time>2017-10-08T10:26:44Z</time>
      </trkpt>
      <trkpt lat="62.6507685" lon="17.8585291">
        <ele>87.6172</ele>
        <time>2017-10-08T10:26:51Z</time>
      </trkpt>
      <trkpt lat="62.6510123" lon="17.8580702">
        <ele>90.0206</ele>
        <time>2017-10-08T10:26:58Z</time>
      </trkpt>
      <trkpt lat="62.6512345" lon="17.8577448">
        <ele>91.9432</ele>
        <time>2017-10-08T10:27:04Z</time>
      </trkpt>
      <trkpt lat="62.6513309" lon="17.8575678">
        <ele>91.9432</ele>
        <time>2017-10-08T10:27:07Z</time>
      </trkpt>
      <trkpt lat="62.6514154" lon="17.8573678">
        <ele>91.9432</ele>
        <time>2017-10-08T10:27:10Z</time>
      </trkpt>
      <trkpt lat="62.6515915" lon="17.856757">
        <ele>92.9045</ele>
        <time>2017-10-08T10:27:18Z</time>
      </trkpt>
      <trkpt lat="62.651612" lon="17.8566804">
        <ele>92.424</ele>
        <time>2017-10-08T10:27:19Z</time>
      </trkpt>
      <trkpt lat="62.6517576" lon="17.8562998">
        <ele>93.3851</ele>
        <time>2017-10-08T10:27:24Z</time>
      </trkpt>
      <trkpt lat="62.651964" lon="17.8560623">
        <ele>93.8658</ele>
        <time>2017-10-08T10:27:30Z</time>
      </trkpt>
      <trkpt lat="62.6521412" lon="17.8557413">
        <ele>94.8271</ele>
        <time>2017-10-08T10:27:36Z</time>
      </trkpt>
      <trkpt lat="62.6522452" lon="17.8554814">
        <ele>96.2693</ele>
        <time>2017-10-08T10:27:40Z</time>
      </trkpt>
      <trkpt lat="62.652396" lon="17.8550599">
        <ele>98.1919</ele>
        <time>2017-10-08T10:27:46Z</time>
      </trkpt>
      <trkpt lat="62.6525518" lon="17.8541635">
        <ele>96.2693</ele>
        <time>2017-10-08T10:27:55Z</time>
      </trkpt>
      <trkpt lat="62.6526079" lon="17.8537485">
        <ele>95.7885</ele>
        <time>2017-10-08T10:27:59Z</time>
      </trkpt>
      <trkpt lat="62.6527005" lon="17.8530221">
        <ele>95.7885</ele>
        <time>2017-10-08T10:28:06Z</time>
      </trkpt>
      <trkpt lat="62.6527985" lon="17.852109">
        <ele>96.2693</ele>
        <time>2017-10-08T10:28:13Z</time>
      </trkpt>
      <trkpt lat="62.6528125" lon="17.8519914">
        <ele>96.2693</ele>
        <time>2017-10-08T10:28:14Z</time>
      </trkpt>
      <trkpt lat="62.6528689" lon="17.8509766">
        <ele>94.3466</ele>
        <time>2017-10-08T10:28:22Z</time>
      </trkpt>
      <trkpt lat="62.6528906" lon="17.8506954">
        <ele>94.3466</ele>
        <time>2017-10-08T10:28:24Z</time>
      </trkpt>
      <trkpt lat="62.652928" lon="17.8502732">
        <ele>94.3466</ele>
        <time>2017-10-08T10:28:27Z</time>
      </trkpt>
      <trkpt lat="62.6530205" lon="17.8492444">
        <ele>92.424</ele>
        <time>2017-10-08T10:28:35Z</time>
      </trkpt>
      <trkpt lat="62.6530519" lon="17.8485442">
        <ele>91.4625</ele>
        <time>2017-10-08T10:28:41Z</time>
      </trkpt>
      <trkpt lat="62.6530523" lon="17.8479763">
        <ele>92.424</ele>
        <time>2017-10-08T10:28:46Z</time>
      </trkpt>
      <trkpt lat="62.6530057" lon="17.8473826">
        <ele>93.3851</ele>
        <time>2017-10-08T10:28:52Z</time>
      </trkpt>
      <trkpt lat="62.6530055" lon="17.8471176">
        <ele>93.8658</ele>
        <time>2017-10-08T10:28:56Z</time>
      </trkpt>
      <trkpt lat="62.6530167" lon="17.8466851">
        <ele>94.8271</ele>
        <time>2017-10-08T10:29:02Z</time>
      </trkpt>
      <trkpt lat="62.6529798" lon="17.8463539">
        <ele>93.3851</ele>
        <time>2017-10-08T10:29:08Z</time>
      </trkpt>
      <trkpt lat="62.653022" lon="17.8462068">
        <ele>91.9432</ele>
        <time>2017-10-08T10:29:13Z</time>
      </trkpt>
      <trkpt lat="62.6530281" lon="17.8461807">
        <ele>90.5013</ele>
        <time>2017-10-08T10:29:17Z</time>
      </trkpt>
      <trkpt lat="62.6530527" lon="17.8461203">
        <ele>89.0593</ele>
        <time>2017-10-08T10:29:21Z</time>
      </trkpt>
      <trkpt lat="62.6530819" lon="17.8460557">
        <ele>88.5787</ele>
        <time>2017-10-08T10:29:25Z</time>
      </trkpt>
      <trkpt lat="62.653166" lon="17.8458565">
        <ele>87.1366</ele>
        <time>2017-10-08T10:29:30Z</time>
      </trkpt>
      <trkpt lat="62.6533399" lon="17.8454539">
        <ele>85.6946</ele>
        <time>2017-10-08T10:29:37Z</time>
      </trkpt>
      <trkpt lat="62.6535069" lon="17.8450497">
        <ele>83.772</ele>
        <time>2017-10-08T10:29:45Z</time>
      </trkpt>
      <trkpt lat="62.6536787" lon="17.844578">
        <ele>80.8882</ele>
        <time>2017-10-08T10:29:52Z</time>
      </trkpt>
      <trkpt lat="62.6538576" lon="17.8440343">
        <ele>77.0428</ele>
        <time>2017-10-08T10:29:58Z</time>
      </trkpt>
      <trkpt lat="62.6540296" lon="17.8434681">
        <ele>74.6395</ele>
        <time>2017-10-08T10:30:04Z</time>
      </trkpt>
      <trkpt lat="62.654096" lon="17.8433021">
        <ele>73.6782</ele>
        <time>2017-10-08T10:30:06Z</time>
      </trkpt>
      <trkpt lat="62.6543551" lon="17.8430102">
        <ele>69.3523</ele>
        <time>2017-10-08T10:30:11Z</time>
      </trkpt>
      <trkpt lat="62.654741" lon="17.8428713">
        <ele>65.5071</ele>
        <time>2017-10-08T10:30:16Z</time>
      </trkpt>
      <trkpt lat="62.6551869" lon="17.8426262">
        <ele>60.7003</ele>
        <time>2017-10-08T10:30:21Z</time>
      </trkpt>
      <trkpt lat="62.6555201" lon="17.8423364">
        <ele>59.2584</ele>
        <time>2017-10-08T10:30:25Z</time>
      </trkpt>
      <trkpt lat="62.6559033" lon="17.8417793">
        <ele>60.2197</ele>
        <time>2017-10-08T10:30:32Z</time>
      </trkpt>
      <trkpt lat="62.6561964" lon="17.8413189">
        <ele>62.1423</ele>
        <time>2017-10-08T10:30:39Z</time>
      </trkpt>
      <trkpt lat="62.6563391" lon="17.8411418">
        <ele>65.0264</ele>
        <time>2017-10-08T10:30:43Z</time>
      </trkpt>
      <trkpt lat="62.6565691" lon="17.8409179">
        <ele>66.4683</ele>
        <time>2017-10-08T10:30:50Z</time>
      </trkpt>
      <trkpt lat="62.6567585" lon="17.8408545">
        <ele>67.4297</ele>
        <time>2017-10-08T10:30:57Z</time>
      </trkpt>
      <trkpt lat="62.6568867" lon="17.8408753">
        <ele>67.4297</ele>
        <time>2017-10-08T10:31:04Z</time>
      </trkpt>
      <trkpt lat="62.6570178" lon="17.8408792">
        <ele>67.4297</ele>
        <time>2017-10-08T10:31:09Z</time>
      </trkpt>
      <trkpt lat="62.6572734" lon="17.8409154">
        <ele>66.949</ele>
        <time>2017-10-08T10:31:15Z</time>
      </trkpt>
      <trkpt lat="62.6575477" lon="17.8409436">
        <ele>66.4683</ele>
        <time>2017-10-08T10:31:22Z</time>
      </trkpt>
      <trkpt lat="62.6578506" lon="17.8409375">
        <ele>66.4683</ele>
        <time>2017-10-08T10:31:30Z</time>
      </trkpt>
      <trkpt lat="62.6581339" lon="17.8409064">
        <ele>67.4297</ele>
        <time>2017-10-08T10:31:38Z</time>
      </trkpt>
      <trkpt lat="62.6584179" lon="17.8409269">
        <ele>67.4297</ele>
        <time>2017-10-08T10:31:45Z</time>
      </trkpt>
      <trkpt lat="62.6587805" lon="17.8410877">
        <ele>66.4683</ele>
        <time>2017-10-08T10:31:53Z</time>
      </trkpt>
      <trkpt lat="62.6591963" lon="17.8413594">
        <ele>64.0651</ele>
        <time>2017-10-08T10:32:01Z</time>
      </trkpt>
      <trkpt lat="62.6597217" lon="17.8417307">
        <ele>60.7003</ele>
        <time>2017-10-08T10:32:10Z</time>
      </trkpt>
      <trkpt lat="62.6602331" lon="17.8421302">
        <ele>57.3358</ele>
        <time>2017-10-08T10:32:18Z</time>
      </trkpt>
      <trkpt lat="62.6607153" lon="17.8425013">
        <ele>53.0098</ele>
        <time>2017-10-08T10:32:25Z</time>
      </trkpt>
      <trkpt lat="62.6611058" lon="17.8427895">
        <ele>51.5679</ele>
        <time>2017-10-08T10:32:31Z</time>
      </trkpt>
      <trkpt lat="62.6612191" lon="17.842824">
        <ele>50.6066</ele>
        <time>2017-10-08T10:32:33Z</time>
      </trkpt>
      <trkpt lat="62.6615332" lon="17.8426544">
        <ele>46.2806</ele>
        <time>2017-10-08T10:32:38Z</time>
      </trkpt>
      <trkpt lat="62.661663" lon="17.8424961">
        <ele>44.8386</ele>
        <time>2017-10-08T10:32:40Z</time>
      </trkpt>
      <trkpt lat="62.6621667" lon="17.8417512">
        <ele>39.0707</ele>
        <time>2017-10-08T10:32:48Z</time>
      </trkpt>
      <trkpt lat="62.6625376" lon="17.841623">
        <ele>36.6675</ele>
        <time>2017-10-08T10:32:53Z</time>
      </trkpt>
      <trkpt lat="62.6626118" lon="17.8416503">
        <ele>36.1868</ele>
        <time>2017-10-08T10:32:54Z</time>
      </trkpt>
      <trkpt lat="62.6630714" lon="17.8419587">
        <ele>35.2255</ele>
        <time>2017-10-08T10:33:01Z</time>
      </trkpt>
      <trkpt lat="62.6634778" lon="17.8424066">
        <ele>30.4188</ele>
        <time>2017-10-08T10:33:08Z</time>
      </trkpt>
      <trkpt lat="62.6639039" lon="17.8430268">
        <ele>25.6123</ele>
        <time>2017-10-08T10:33:14Z</time>
      </trkpt>
      <trkpt lat="62.6642666" lon="17.8434261">
        <ele>24.651</ele>
        <time>2017-10-08T10:33:19Z</time>
      </trkpt>
      <trkpt lat="62.664397" lon="17.8435386">
        <ele>23.6896</ele>
        <time>2017-10-08T10:33:21Z</time>
      </trkpt>
      <trkpt lat="62.6646831" lon="17.8440273">
        <ele>19.8444</ele>
        <time>2017-10-08T10:33:26Z</time>
      </trkpt>
      <trkpt lat="62.6647418" lon="17.8441207">
        <ele>18.8831</ele>
        <time>2017-10-08T10:33:27Z</time>
      </trkpt>
      <trkpt lat="62.6650813" lon="17.8443628">
        <ele>15.0377</ele>
        <time>2017-10-08T10:33:32Z</time>
      </trkpt>
      <trkpt lat="62.6652281" lon="17.8443285">
        <ele>13.5958</ele>
        <time>2017-10-08T10:33:34Z</time>
      </trkpt>
      <trkpt lat="62.665645" lon="17.8442783">
        <ele>9.75061</ele>
        <time>2017-10-08T10:33:40Z</time>
      </trkpt>
      <trkpt lat="62.6660306" lon="17.8443573">
        <ele>7.34717</ele>
        <time>2017-10-08T10:33:45Z</time>
      </trkpt>
      <trkpt lat="62.6660994" lon="17.8443612">
        <ele>6.86646</ele>
        <time>2017-10-08T10:33:46Z</time>
      </trkpt>
      <trkpt lat="62.6663231" lon="17.8444436">
        <ele>5.90527</ele>
        <time>2017-10-08T10:33:50Z</time>
      </trkpt>
      <trkpt lat="62.6665001" lon="17.8442726">
        <ele>5.42456</ele>
        <time>2017-10-08T10:33:54Z</time>
      </trkpt>
      <trkpt lat="62.6665343" lon="17.8441727">
        <ele>5.42456</ele>
        <time>2017-10-08T10:33:55Z</time>
      </trkpt>
      <trkpt lat="62.6667976" lon="17.8434495">
        <ele>4.94385</ele>
        <time>2017-10-08T10:34:02Z</time>
      </trkpt>
      <trkpt lat="62.6668821" lon="17.8432698">
        <ele>4.94385</ele>
        <time>2017-10-08T10:34:05Z</time>
      </trkpt>
      <trkpt lat="62.666956" lon="17.8431134">
        <ele>4.94385</ele>
        <time>2017-10-08T10:34:09Z</time>
      </trkpt>
      <trkpt lat="62.6669798" lon="17.8430608">
        <ele>4.46326</ele>
        <time>2017-10-08T10:34:13Z</time>
      </trkpt>
      <trkpt lat="62.6669656" lon="17.8431236">
        <ele>5.42456</ele>
        <time>2017-10-08T10:34:51Z</time>
      </trkpt>
      <trkpt lat="62.6668433" lon="17.8433173">
        <ele>5.42456</ele>
        <time>2017-10-08T10:34:55Z</time>
      </trkpt>
      <trkpt lat="62.6667516" lon="17.843514">
        <ele>5.42456</ele>
        <time>2017-10-08T10:34:59Z</time>
      </trkpt>
      <trkpt lat="62.6666659" lon="17.8433801">
        <ele>5.42456</ele>
        <time>2017-10-08T10:35:03Z</time>
      </trkpt>
      <trkpt lat="62.6665799" lon="17.8428574">
        <ele>6.86646</ele>
        <time>2017-10-08T10:35:10Z</time>
      </trkpt>
      <trkpt lat="62.6664133" lon="17.8423176">
        <ele>8.30859</ele>
        <time>2017-10-08T10:35:18Z</time>
      </trkpt>
      <trkpt lat="62.6662096" lon="17.8417741">
        <ele>9.75061</ele>
        <time>2017-10-08T10:35:27Z</time>
      </trkpt>
      <trkpt lat="62.6659839" lon="17.8411491">
        <ele>11.6732</ele>
        <time>2017-10-08T10:35:37Z</time>
      </trkpt>
      <trkpt lat="62.6657787" lon="17.8405947">
        <ele>13.1151</ele>
        <time>2017-10-08T10:35:46Z</time>
      </trkpt>
      <trkpt lat="62.6655871" lon="17.8400275">
        <ele>14.557</ele>
        <time>2017-10-08T10:35:55Z</time>
      </trkpt>
      <trkpt lat="62.6655275" lon="17.8396193">
        <ele>15.999</ele>
        <time>2017-10-08T10:36:01Z</time>
      </trkpt>
      <trkpt lat="62.6655204" lon="17.8394996">
        <ele>16.4797</ele>
        <time>2017-10-08T10:36:03Z</time>
      </trkpt>
      <trkpt lat="62.6655176" lon="17.8393437">
        <ele>16.9604</ele>
        <time>2017-10-08T10:36:08Z</time>
      </trkpt>
      <trkpt lat="62.6655082" lon="17.8394865">
        <ele>16.4797</ele>
        <time>2017-10-08T10:36:11Z</time>
      </trkpt>
      <trkpt lat="62.6655291" lon="17.8396203">
        <ele>16.4797</ele>
        <time>2017-10-08T10:36:13Z</time>
      </trkpt>
      <trkpt lat="62.6656079" lon="17.8401275">
        <ele>15.5184</ele>
        <time>2017-10-08T10:36:19Z</time>
      </trkpt>
      <trkpt lat="62.6657253" lon="17.8404792">
        <ele>14.557</ele>
        <time>2017-10-08T10:36:23Z</time>
      </trkpt>
      <trkpt lat="62.6659795" lon="17.841156">
        <ele>13.1151</ele>
        <time>2017-10-08T10:36:31Z</time>
      </trkpt>
      <trkpt lat="62.6662284" lon="17.841855">
        <ele>10.7118</ele>
        <time>2017-10-08T10:36:39Z</time>
      </trkpt>
      <trkpt lat="62.6664579" lon="17.8424756">
        <ele>9.2699</ele>
        <time>2017-10-08T10:36:46Z</time>
      </trkpt>
      <trkpt lat="62.66652" lon="17.8426669">
        <ele>8.30859</ele>
        <time>2017-10-08T10:36:48Z</time>
      </trkpt>
      <trkpt lat="62.6665885" lon="17.8429663">
        <ele>7.82788</ele>
        <time>2017-10-08T10:36:51Z</time>
      </trkpt>
      <trkpt lat="62.6665771" lon="17.8434529">
        <ele>6.86646</ele>
        <time>2017-10-08T10:36:56Z</time>
      </trkpt>
      <trkpt lat="62.666547" lon="17.8435457">
        <ele>6.86646</ele>
        <time>2017-10-08T10:36:57Z</time>
      </trkpt>
      <trkpt lat="62.6663826" lon="17.84398">
        <ele>7.34717</ele>
        <time>2017-10-08T10:37:02Z</time>
      </trkpt>
      <trkpt lat="62.6663662" lon="17.8443094">
        <ele>7.82788</ele>
        <time>2017-10-08T10:37:06Z</time>
      </trkpt>
      <trkpt lat="62.666432" lon="17.8443803">
        <ele>7.82788</ele>
        <time>2017-10-08T10:37:09Z</time>
      </trkpt>
      <trkpt lat="62.6664911" lon="17.8442637">
        <ele>7.82788</ele>
        <time>2017-10-08T10:37:12Z</time>
      </trkpt>
      <trkpt lat="62.6666491" lon="17.8438157">
        <ele>7.34717</ele>
        <time>2017-10-08T10:37:20Z</time>
      </trkpt>
      <trkpt lat="62.6667022" lon="17.8436602">
        <ele>6.86646</ele>
        <time>2017-10-08T10:37:23Z</time>
      </trkpt>
      <trkpt lat="62.6666832" lon="17.8434294">
        <ele>7.34717</ele>
        <time>2017-10-08T10:37:27Z</time>
      </trkpt>
      <trkpt lat="62.6665997" lon="17.8428986">
        <ele>8.30859</ele>
        <time>2017-10-08T10:37:36Z</time>
      </trkpt>
      <trkpt lat="62.6665838" lon="17.8428025">
        <ele>8.30859</ele>
        <time>2017-10-08T10:37:38Z</time>
      </trkpt>
      <trkpt lat="62.6665598" lon="17.8428618">
        <ele>8.30859</ele>
        <time>2017-10-08T10:37:42Z</time>
      </trkpt>
      <trkpt lat="62.6666296" lon="17.8431701">
        <ele>7.34717</ele>
        <time>2017-10-08T10:37:47Z</time>
      </trkpt>
      <trkpt lat="62.666692" lon="17.8434763">
        <ele>6.86646</ele>
        <time>2017-10-08T10:37:51Z</time>
      </trkpt>
      <trkpt lat="62.6667821" lon="17.8434427">
        <ele>6.86646</ele>
        <time>2017-10-08T10:37:55Z</time>
      </trkpt>
      <trkpt lat="62.6669094" lon="17.8431773">
        <ele>6.38586</ele>
        <time>2017-10-08T10:38:03Z</time>
      </trkpt>
      <trkpt lat="62.6669789" lon="17.8430324">
        <ele>6.38586</ele>
        <time>2017-10-08T10:38:09Z</time>
      </trkpt>
      <trkpt lat="62.6669815" lon="17.84302">
        <ele>5.90527</ele>
        <time>2017-10-08T10:38:12Z</time>
      </trkpt>
      <trkpt lat="62.6669545" lon="17.84312">
        <ele>5.42456</ele>
        <time>2017-10-08T10:39:00Z</time>
      </trkpt>
      <trkpt lat="62.6669081" lon="17.8431911">
        <ele>5.90527</ele>
        <time>2017-10-08T10:39:02Z</time>
      </trkpt>
      <trkpt lat="62.6667512" lon="17.8434794">
        <ele>5.90527</ele>
        <time>2017-10-08T10:39:10Z</time>
      </trkpt>
      <trkpt lat="62.6666775" lon="17.8434076">
        <ele>5.90527</ele>
        <time>2017-10-08T10:39:14Z</time>
      </trkpt>
      <trkpt lat="62.6666703" lon="17.8433629">
        <ele>5.90527</ele>
        <time>2017-10-08T10:39:15Z</time>
      </trkpt>
      <trkpt lat="62.6666543" lon="17.8432893">
        <ele>5.90527</ele>
        <time>2017-10-08T10:39:17Z</time>
      </trkpt>
      <trkpt lat="62.6665743" lon="17.843396">
        <ele>5.90527</ele>
        <time>2017-10-08T10:39:22Z</time>
      </trkpt>
      <trkpt lat="62.6664512" lon="17.8437597">
        <ele>6.38586</ele>
        <time>2017-10-08T10:39:28Z</time>
      </trkpt>
      <trkpt lat="62.6663461" lon="17.8440761">
        <ele>6.86646</ele>
        <time>2017-10-08T10:39:33Z</time>
      </trkpt>
      <trkpt lat="62.6663764" lon="17.8443218">
        <ele>6.86646</ele>
        <time>2017-10-08T10:39:37Z</time>
      </trkpt>
      <trkpt lat="62.666464" lon="17.8442684">
        <ele>6.86646</ele>
        <time>2017-10-08T10:39:41Z</time>
      </trkpt>
      <trkpt lat="62.6666208" lon="17.8437994">
        <ele>6.38586</ele>
        <time>2017-10-08T10:39:51Z</time>
      </trkpt>
      <trkpt lat="62.6667011" lon="17.8435706">
        <ele>6.38586</ele>
        <time>2017-10-08T10:39:56Z</time>
      </trkpt>
      <trkpt lat="62.6666418" lon="17.8431587">
        <ele>7.82788</ele>
        <time>2017-10-08T10:40:04Z</time>
      </trkpt>
      <trkpt lat="62.6665942" lon="17.842843">
        <ele>8.78918</ele>
        <time>2017-10-08T10:40:10Z</time>
      </trkpt>
      <trkpt lat="62.6665738" lon="17.8427568">
        <ele>8.78918</ele>
        <time>2017-10-08T10:40:12Z</time>
      </trkpt>
      <trkpt lat="62.6665435" lon="17.8428111">
        <ele>8.30859</ele>
        <time>2017-10-08T10:40:16Z</time>
      </trkpt>
      <trkpt lat="62.6666158" lon="17.8430782">
        <ele>7.34717</ele>
        <time>2017-10-08T10:40:21Z</time>
      </trkpt>
      <trkpt lat="62.6665872" lon="17.8434099">
        <ele>6.86646</ele>
        <time>2017-10-08T10:40:25Z</time>
      </trkpt>
      <trkpt lat="62.6665616" lon="17.8434912">
        <ele>6.86646</ele>
        <time>2017-10-08T10:40:26Z</time>
      </trkpt>
      <trkpt lat="62.6663895" lon="17.8439585">
        <ele>7.34717</ele>
        <time>2017-10-08T10:40:32Z</time>
      </trkpt>
      <trkpt lat="62.6663536" lon="17.8442627">
        <ele>7.34717</ele>
        <time>2017-10-08T10:40:36Z</time>
      </trkpt>
      <trkpt lat="62.6664323" lon="17.8443667">
        <ele>7.34717</ele>
        <time>2017-10-08T10:40:39Z</time>
      </trkpt>
      <trkpt lat="62.6664849" lon="17.8442699">
        <ele>7.34717</ele>
        <time>2017-10-08T10:40:41Z</time>
      </trkpt>
      <trkpt lat="62.6665361" lon="17.8441284">
        <ele>7.34717</ele>
        <time>2017-10-08T10:40:43Z</time>
      </trkpt>
      <trkpt lat="62.6666864" lon="17.8436883">
        <ele>6.86646</ele>
        <time>2017-10-08T10:40:49Z</time>
      </trkpt>
      <trkpt lat="62.6666761" lon="17.8434078">
        <ele>7.34717</ele>
        <time>2017-10-08T10:40:53Z</time>
      </trkpt>
      <trkpt lat="62.6665743" lon="17.8429107">
        <ele>8.30859</ele>
        <time>2017-10-08T10:41:01Z</time>
      </trkpt>
      <trkpt lat="62.6665185" lon="17.842623">
        <ele>8.78918</ele>
        <time>2017-10-08T10:41:06Z</time>
      </trkpt>
      <trkpt lat="62.666401" lon="17.8422927">
        <ele>9.2699</ele>
        <time>2017-10-08T10:41:13Z</time>
      </trkpt>
      <trkpt lat="62.6662309" lon="17.8418554">
        <ele>9.75061</ele>
        <time>2017-10-08T10:41:21Z</time>
      </trkpt>
      <trkpt lat="62.666026" lon="17.8412862">
        <ele>10.7118</ele>
        <time>2017-10-08T10:41:30Z</time>
      </trkpt>
      <trkpt lat="62.6658428" lon="17.8407768">
        <ele>12.1538</ele>
        <time>2017-10-08T10:41:38Z</time>
      </trkpt>
      <trkpt lat="62.6656012" lon="17.8401135">
        <ele>13.5958</ele>
        <time>2017-10-08T10:41:48Z</time>
      </trkpt>
      <trkpt lat="62.6655602" lon="17.8398882">
        <ele>14.0764</ele>
        <time>2017-10-08T10:41:51Z</time>
      </trkpt>
      <trkpt lat="62.6655073" lon="17.8398752">
        <ele>13.5958</ele>
        <time>2017-10-08T10:41:54Z</time>
      </trkpt>
      <trkpt lat="62.6655508" lon="17.8400436">
        <ele>13.5958</ele>
        <time>2017-10-08T10:41:57Z</time>
      </trkpt>
      <trkpt lat="62.6657058" lon="17.8404705">
        <ele>12.6344</ele>
        <time>2017-10-08T10:42:02Z</time>
      </trkpt>
      <trkpt lat="62.6659492" lon="17.8411092">
        <ele>11.1925</ele>
        <time>2017-10-08T10:42:08Z</time>
      </trkpt>
      <trkpt lat="62.6663471" lon="17.8421934">
        <ele>7.82788</ele>
        <time>2017-10-08T10:42:17Z</time>
      </trkpt>
      <trkpt lat="62.6665549" lon="17.8427883">
        <ele>6.38586</ele>
        <time>2017-10-08T10:42:22Z</time>
      </trkpt>
      <trkpt lat="62.6666609" lon="17.8433629">
        <ele>5.42456</ele>
        <time>2017-10-08T10:42:27Z</time>
      </trkpt>
      <trkpt lat="62.6667591" lon="17.8435241">
        <ele>4.46326</ele>
        <time>2017-10-08T10:42:31Z</time>
      </trkpt>
      <trkpt lat="62.6667848" lon="17.8434852">
        <ele>4.46326</ele>
        <time>2017-10-08T10:42:32Z</time>
      </trkpt>
      <trkpt lat="62.6670158" lon="17.8430276">
        <ele>4.46326</ele>
        <time>2017-10-08T10:42:39Z</time>
      </trkpt>
      <trkpt lat="62.6673295" lon="17.8424821">
        <ele>3.98267</ele>
        <time>2017-10-08T10:42:47Z</time>
      </trkpt>
      <trkpt lat="62.667394" lon="17.8423715">
        <ele>3.98267</ele>
        <time>2017-10-08T10:42:49Z</time>
      </trkpt>
      <trkpt lat="62.6676491" lon="17.8419921">
        <ele>3.50195</ele>
        <time>2017-10-08T10:42:56Z</time>
      </trkpt>
      <trkpt lat="62.6680539" lon="17.8414789">
        <ele>3.02124</ele>
        <time>2017-10-08T10:43:04Z</time>
      </trkpt>
      <trkpt lat="62.668493" lon="17.8410563">
        <ele>3.02124</ele>
        <time>2017-10-08T10:43:12Z</time>
      </trkpt>
      <trkpt lat="62.668881" lon="17.8407599">
        <ele>3.02124</ele>
        <time>2017-10-08T10:43:20Z</time>
      </trkpt>
      <trkpt lat="62.6692741" lon="17.8405489">
        <ele>3.02124</ele>
        <time>2017-10-08T10:43:28Z</time>
      </trkpt>
      <trkpt lat="62.6696068" lon="17.8404277">
        <ele>3.50195</ele>
        <time>2017-10-08T10:43:35Z</time>
      </trkpt>
      <trkpt lat="62.6700369" lon="17.8402648">
        <ele>3.98267</ele>
        <time>2017-10-08T10:43:44Z</time>
      </trkpt>
      <trkpt lat="62.6704238" lon="17.840107">
        <ele>3.98267</ele>
        <time>2017-10-08T10:43:52Z</time>
      </trkpt>
      <trkpt lat="62.6708139" lon="17.8399312">
        <ele>3.02124</ele>
        <time>2017-10-08T10:43:59Z</time>
      </trkpt>
      <trkpt lat="62.6709226" lon="17.8398643">
        <ele>3.02124</ele>
        <time>2017-10-08T10:44:01Z</time>
      </trkpt>
      <trkpt lat="62.6712826" lon="17.8396529">
        <ele>1.57935</ele>
        <time>2017-10-08T10:44:08Z</time>
      </trkpt>
      <trkpt lat="62.6714254" lon="17.8395026">
        <ele>1.57935</ele>
        <time>2017-10-08T10:44:11Z</time>
      </trkpt>
      <trkpt lat="62.6716815" lon="17.8394525">
        <ele>1.57935</ele>
        <time>2017-10-08T10:44:16Z</time>
      </trkpt>
      <trkpt lat="62.6720626" lon="17.8394958">
        <ele>2.06006</ele>
        <time>2017-10-08T10:44:23Z</time>
      </trkpt>
      <trkpt lat="62.6723543" lon="17.839569">
        <ele>1.57935</ele>
        <time>2017-10-08T10:44:29Z</time>
      </trkpt>
      <trkpt lat="62.6727231" lon="17.8396072">
        <ele>0.618042</ele>
        <time>2017-10-08T10:44:37Z</time>
      </trkpt>
      <trkpt lat="62.6728977" lon="17.8396675">
        <ele>0.137451</ele>
        <time>2017-10-08T10:44:44Z</time>
      </trkpt>
      <trkpt lat="62.6732117" lon="17.8397574">
        <ele>0.137451</ele>
        <time>2017-10-08T10:44:53Z</time>
      </trkpt>
      <trkpt lat="62.6735815" lon="17.8399157">
        <ele>0.137451</ele>
        <time>2017-10-08T10:45:02Z</time>
      </trkpt>
      <trkpt lat="62.6737841" lon="17.8399362">
        <ele>1.09863</ele>
        <time>2017-10-08T10:45:07Z</time>
      </trkpt>
      <trkpt lat="62.6740742" lon="17.8398108">
        <ele>2.06006</ele>
        <time>2017-10-08T10:45:15Z</time>
      </trkpt>
      <trkpt lat="62.6741068" lon="17.8398223">
        <ele>2.06006</ele>
        <time>2017-10-08T10:45:16Z</time>
      </trkpt>
      <trkpt lat="62.6741881" lon="17.8396918">
        <ele>2.54065</ele>
        <time>2017-10-08T10:45:20Z</time>
      </trkpt>
      <trkpt lat="62.6741598" lon="17.8396046">
        <ele>3.02124</ele>
        <time>2017-10-08T10:45:23Z</time>
      </trkpt>
      <trkpt lat="62.6741268" lon="17.8397099">
        <ele>3.98267</ele>
        <time>2017-10-08T10:45:27Z</time>
      </trkpt>
      <trkpt lat="62.6740566" lon="17.8398254">
        <ele>4.46326</ele>
        <time>2017-10-08T10:45:33Z</time>
      </trkpt>
      <trkpt lat="62.6740562" lon="17.8396664">
        <ele>4.94385</ele>
        <time>2017-10-08T10:45:37Z</time>
      </trkpt>
      <trkpt lat="62.6741192" lon="17.8396557">
        <ele>5.42456</ele>
        <time>2017-10-08T10:45:40Z</time>
      </trkpt>
      <trkpt lat="62.6742369" lon="17.8397084">
        <ele>5.42456</ele>
        <time>2017-10-08T10:45:46Z</time>
      </trkpt>
      <trkpt lat="62.6743352" lon="17.8398159">
        <ele>3.98267</ele>
        <time>2017-10-08T10:45:51Z</time>
      </trkpt>
      <trkpt lat="62.6743342" lon="17.839938">
        <ele>2.54065</ele>
        <time>2017-10-08T10:45:55Z</time>
      </trkpt>
      <trkpt lat="62.6742881" lon="17.8399136">
        <ele>3.50195</ele>
        <time>2017-10-08T10:45:57Z</time>
      </trkpt>
      <trkpt lat="62.6741565" lon="17.839652">
        <ele>3.98267</ele>
        <time>2017-10-08T10:46:04Z</time>
      </trkpt>
      <trkpt lat="62.6741647" lon="17.8393696">
        <ele>4.94385</ele>
        <time>2017-10-08T10:46:09Z</time>
      </trkpt>
      <trkpt lat="62.6742472" lon="17.839171">
        <ele>6.38586</ele>
        <time>2017-10-08T10:46:14Z</time>
      </trkpt>
      <trkpt lat="62.6742499" lon="17.8390536">
        <ele>7.34717</ele>
        <time>2017-10-08T10:46:18Z</time>
      </trkpt>
      <trkpt lat="62.6741877" lon="17.8391195">
        <ele>6.86646</ele>
        <time>2017-10-08T10:46:21Z</time>
      </trkpt>
      <trkpt lat="62.6740075" lon="17.8392998">
        <ele>5.90527</ele>
        <time>2017-10-08T10:46:27Z</time>
      </trkpt>
      <trkpt lat="62.6738386" lon="17.8397701">
        <ele>5.42456</ele>
        <time>2017-10-08T10:46:34Z</time>
      </trkpt>
      <trkpt lat="62.673821" lon="17.8398388">
        <ele>5.42456</ele>
        <time>2017-10-08T10:46:35Z</time>
      </trkpt>
      <trkpt lat="62.6736887" lon="17.839898">
        <ele>4.94385</ele>
        <time>2017-10-08T10:46:39Z</time>
      </trkpt>
      <trkpt lat="62.6734234" lon="17.8398571">
        <ele>4.46326</ele>
        <time>2017-10-08T10:46:45Z</time>
      </trkpt>
      <trkpt lat="62.6731821" lon="17.8397154">
        <ele>4.94385</ele>
        <time>2017-10-08T10:46:51Z</time>
      </trkpt>
      <trkpt lat="62.6729144" lon="17.8396432">
        <ele>5.42456</ele>
        <time>2017-10-08T10:46:59Z</time>
      </trkpt>
      <trkpt lat="62.6727626" lon="17.8395808">
        <ele>5.90527</ele>
        <time>2017-10-08T10:47:05Z</time>
      </trkpt>
      <trkpt lat="62.6727025" lon="17.8395435">
        <ele>5.42456</ele>
        <time>2017-10-08T10:47:08Z</time>
      </trkpt>
      <trkpt lat="62.672705" lon="17.8395975">
        <ele>5.42456</ele>
        <time>2017-10-08T10:47:12Z</time>
      </trkpt>
      <trkpt lat="62.6728136" lon="17.8396237">
        <ele>4.46326</ele>
        <time>2017-10-08T10:47:19Z</time>
      </trkpt>
      <trkpt lat="62.6729688" lon="17.8396591">
        <ele>3.02124</ele>
        <time>2017-10-08T10:47:26Z</time>
      </trkpt>
      <trkpt lat="62.6731848" lon="17.8397385">
        <ele>3.02124</ele>
        <time>2017-10-08T10:47:33Z</time>
      </trkpt>
      <trkpt lat="62.6734561" lon="17.8398922">
        <ele>2.06006</ele>
        <time>2017-10-08T10:47:40Z</time>
      </trkpt>
      <trkpt lat="62.6737156" lon="17.8399435">
        <ele>2.54065</ele>
        <time>2017-10-08T10:47:47Z</time>
      </trkpt>
      <trkpt lat="62.6738121" lon="17.8398181">
        <ele>3.02124</ele>
        <time>2017-10-08T10:47:51Z</time>
      </trkpt>
      <trkpt lat="62.6739152" lon="17.8394441">
        <ele>3.98267</ele>
        <time>2017-10-08T10:47:57Z</time>
      </trkpt>
      <trkpt lat="62.6740758" lon="17.8391689">
        <ele>5.42456</ele>
        <time>2017-10-08T10:48:04Z</time>
      </trkpt>
      <trkpt lat="62.6741596" lon="17.8393088">
        <ele>5.90527</ele>
        <time>2017-10-08T10:48:09Z</time>
      </trkpt>
      <trkpt lat="62.6741233" lon="17.8395383">
        <ele>4.46326</ele>
        <time>2017-10-08T10:48:13Z</time>
      </trkpt>
      <trkpt lat="62.6741155" lon="17.8396664">
        <ele>4.46326</ele>
        <time>2017-10-08T10:48:17Z</time>
      </trkpt>
      <trkpt lat="62.6741156" lon="17.8396653">
        <ele>4.46326</ele>
        <time>2017-10-08T10:48:18Z</time>
      </trkpt>
      <trkpt lat="62.6741343" lon="17.8397498">
        <ele>8.78918</ele>
        <time>2017-10-08T10:50:03Z</time>
      </trkpt>
      <trkpt lat="62.6742213" lon="17.8398462">
        <ele>7.82788</ele>
        <time>2017-10-08T10:50:07Z</time>
      </trkpt>
      <trkpt lat="62.6743949" lon="17.8400354">
        <ele>6.86646</ele>
        <time>2017-10-08T10:50:14Z</time>
      </trkpt>
      <trkpt lat="62.6745765" lon="17.8402814">
        <ele>6.86646</ele>
        <time>2017-10-08T10:50:22Z</time>
      </trkpt>
      <trkpt lat="62.674727" lon="17.8405368">
        <ele>6.38586</ele>
        <time>2017-10-08T10:50:28Z</time>
      </trkpt>
      <trkpt lat="62.6749135" lon="17.8407398">
        <ele>6.38586</ele>
        <time>2017-10-08T10:50:34Z</time>
      </trkpt>
      <trkpt lat="62.6752335" lon="17.8410537">
        <ele>5.42456</ele>
        <time>2017-10-08T10:50:44Z</time>
      </trkpt>
      <trkpt lat="62.675551" lon="17.8413721">
        <ele>4.94385</ele>
        <time>2017-10-08T10:50:53Z</time>
      </trkpt>
      <trkpt lat="62.6758022" lon="17.8416287">
        <ele>4.94385</ele>
        <time>2017-10-08T10:51:01Z</time>
      </trkpt>
      <trkpt lat="62.6759533" lon="17.8417685">
        <ele>4.94385</ele>
        <time>2017-10-08T10:51:06Z</time>
      </trkpt>
      <trkpt lat="62.6762582" lon="17.8420523">
        <ele>5.42456</ele>
        <time>2017-10-08T10:51:14Z</time>
      </trkpt>
      <trkpt lat="62.676542" lon="17.8423553">
        <ele>5.42456</ele>
        <time>2017-10-08T10:51:22Z</time>
      </trkpt>
      <trkpt lat="62.6768511" lon="17.8426793">
        <ele>5.90527</ele>
        <time>2017-10-08T10:51:30Z</time>
      </trkpt>
      <trkpt lat="62.677193" lon="17.8429609">
        <ele>6.86646</ele>
        <time>2017-10-08T10:51:39Z</time>
      </trkpt>
      <trkpt lat="62.677317" lon="17.8430097">
        <ele>6.86646</ele>
        <time>2017-10-08T10:51:42Z</time>
      </trkpt>
      <trkpt lat="62.6776635" lon="17.8429945">
        <ele>7.82788</ele>
        <time>2017-10-08T10:51:51Z</time>
      </trkpt>
      <trkpt lat="62.6780305" lon="17.8429189">
        <ele>8.78918</ele>
        <time>2017-10-08T10:52:02Z</time>
      </trkpt>
      <trkpt lat="62.678342" lon="17.8429137">
        <ele>10.7118</ele>
        <time>2017-10-08T10:52:12Z</time>
      </trkpt>
      <trkpt lat="62.6786327" lon="17.8429516">
        <ele>10.7118</ele>
        <time>2017-10-08T10:52:20Z</time>
      </trkpt>
      <trkpt lat="62.6790321" lon="17.8430931">
        <ele>11.6732</ele>
        <time>2017-10-08T10:52:31Z</time>
      </trkpt>
      <trkpt lat="62.6792973" lon="17.843267">
        <ele>12.6344</ele>
        <time>2017-10-08T10:52:40Z</time>
      </trkpt>
      <trkpt lat="62.6795895" lon="17.8434908">
        <ele>12.6344</ele>
        <time>2017-10-08T10:52:50Z</time>
      </trkpt>
      <trkpt lat="62.6798914" lon="17.8436687">
        <ele>11.1925</ele>
        <time>2017-10-08T10:52:57Z</time>
      </trkpt>
      <trkpt lat="62.6803421" lon="17.8438447">
        <ele>11.6732</ele>
        <time>2017-10-08T10:53:06Z</time>
      </trkpt>
      <trkpt lat="62.6807912" lon="17.8438991">
        <ele>12.6344</ele>
        <time>2017-10-08T10:53:15Z</time>
      </trkpt>
      <trkpt lat="62.681202" lon="17.8439707">
        <ele>12.6344</ele>
        <time>2017-10-08T10:53:24Z</time>
      </trkpt>
      <trkpt lat="62.6815543" lon="17.8440813">
        <ele>12.1538</ele>
        <time>2017-10-08T10:53:32Z</time>
      </trkpt>
      <trkpt lat="62.681878" lon="17.8443815">
        <ele>12.6344</ele>
        <time>2017-10-08T10:53:40Z</time>
      </trkpt>
      <trkpt lat="62.6822121" lon="17.8448189">
        <ele>12.6344</ele>
        <time>2017-10-08T10:53:49Z</time>
      </trkpt>
      <trkpt lat="62.682502" lon="17.8450589">
        <ele>11.6732</ele>
        <time>2017-10-08T10:53:55Z</time>
      </trkpt>
      <trkpt lat="62.6828782" lon="17.8451817">
        <ele>11.6732</ele>
        <time>2017-10-08T10:54:02Z</time>
      </trkpt>
      <trkpt lat="62.6833023" lon="17.8452313">
        <ele>12.1538</ele>
        <time>2017-10-08T10:54:10Z</time>
      </trkpt>
      <trkpt lat="62.6837148" lon="17.8453385">
        <ele>11.1925</ele>
        <time>2017-10-08T10:54:18Z</time>
      </trkpt>
      <trkpt lat="62.6840451" lon="17.8456101">
        <ele>9.75061</ele>
        <time>2017-10-08T10:54:24Z</time>
      </trkpt>
      <trkpt lat="62.6845034" lon="17.8459077">
        <ele>7.82788</ele>
        <time>2017-10-08T10:54:32Z</time>
      </trkpt>
      <trkpt lat="62.6845687" lon="17.8459173">
        <ele>7.82788</ele>
        <time>2017-10-08T10:54:33Z</time>
      </trkpt>
      <trkpt lat="62.6852425" lon="17.845834">
        <ele>7.34717</ele>
        <time>2017-10-08T10:54:43Z</time>
      </trkpt>
      <trkpt lat="62.6855802" lon="17.845807">
        <ele>7.82788</ele>
        <time>2017-10-08T10:54:49Z</time>
      </trkpt>
      <trkpt lat="62.6857894" lon="17.8460348">
        <ele>8.30859</ele>
        <time>2017-10-08T10:54:54Z</time>
      </trkpt>
      <trkpt lat="62.6859102" lon="17.8461757">
        <ele>7.82788</ele>
        <time>2017-10-08T10:54:57Z</time>
      </trkpt>
      <trkpt lat="62.686127" lon="17.8460643">
        <ele>7.34717</ele>
        <time>2017-10-08T10:55:01Z</time>
      </trkpt>
      <trkpt lat="62.6864858" lon="17.8457006">
        <ele>7.82788</ele>
        <time>2017-10-08T10:55:09Z</time>
      </trkpt>
      <trkpt lat="62.6868311" lon="17.8452856">
        <ele>7.82788</ele>
        <time>2017-10-08T10:55:18Z</time>
      </trkpt>
      <trkpt lat="62.6871524" lon="17.8448005">
        <ele>7.34717</ele>
        <time>2017-10-08T10:55:26Z</time>
      </trkpt>
      <trkpt lat="62.6875326" lon="17.8441251">
        <ele>6.38586</ele>
        <time>2017-10-08T10:55:35Z</time>
      </trkpt>
      <trkpt lat="62.6878854" lon="17.8434713">
        <ele>6.86646</ele>
        <time>2017-10-08T10:55:44Z</time>
      </trkpt>
      <trkpt lat="62.6882209" lon="17.8428422">
        <ele>8.30859</ele>
        <time>2017-10-08T10:55:53Z</time>
      </trkpt>
      <trkpt lat="62.6886178" lon="17.8421131">
        <ele>9.75061</ele>
        <time>2017-10-08T10:56:04Z</time>
      </trkpt>
      <trkpt lat="62.6888141" lon="17.8417588">
        <ele>9.75061</ele>
        <time>2017-10-08T10:56:09Z</time>
      </trkpt>
      <trkpt lat="62.6890719" lon="17.8413453">
        <ele>11.1925</ele>
        <time>2017-10-08T10:56:17Z</time>
      </trkpt>
      <trkpt lat="62.6893301" lon="17.8409675">
        <ele>12.1538</ele>
        <time>2017-10-08T10:56:26Z</time>
      </trkpt>
      <trkpt lat="62.6896119" lon="17.8406253">
        <ele>13.5958</ele>
        <time>2017-10-08T10:56:35Z</time>
      </trkpt>
      <trkpt lat="62.6898874" lon="17.840351">
        <ele>14.557</ele>
        <time>2017-10-08T10:56:43Z</time>
      </trkpt>
      <trkpt lat="62.6901615" lon="17.8401839">
        <ele>13.5958</ele>
        <time>2017-10-08T10:56:50Z</time>
      </trkpt>
      <trkpt lat="62.6905754" lon="17.8400399">
        <ele>12.6344</ele>
        <time>2017-10-08T10:57:00Z</time>
      </trkpt>
      <trkpt lat="62.6908379" lon="17.8399825">
        <ele>12.6344</ele>
        <time>2017-10-08T10:57:07Z</time>
      </trkpt>
      <trkpt lat="62.6908648" lon="17.8398503">
        <ele>14.0764</ele>
        <time>2017-10-08T10:57:11Z</time>
      </trkpt>
      <trkpt lat="62.6908076" lon="17.8397923">
        <ele>14.0764</ele>
        <time>2017-10-08T10:57:14Z</time>
      </trkpt>
      <trkpt lat="62.6907827" lon="17.8397978">
        <ele>14.0764</ele>
        <time>2017-10-08T10:57:15Z</time>
      </trkpt>
      <trkpt lat="62.6906601" lon="17.8398693">
        <ele>12.1538</ele>
        <time>2017-10-08T10:57:20Z</time>
      </trkpt>
      <trkpt lat="62.6906691" lon="17.8400078">
        <ele>11.6732</ele>
        <time>2017-10-08T10:57:24Z</time>
      </trkpt>
      <trkpt lat="62.6907452" lon="17.8400048">
        <ele>11.6732</ele>
        <time>2017-10-08T10:57:26Z</time>
      </trkpt>
      <trkpt lat="62.6911393" lon="17.8399897">
        <ele>12.1538</ele>
        <time>2017-10-08T10:57:34Z</time>
      </trkpt>
      <trkpt lat="62.6915202" lon="17.8401289">
        <ele>12.6344</ele>
        <time>2017-10-08T10:57:43Z</time>
      </trkpt>
      <trkpt lat="62.6919565" lon="17.8403554">
        <ele>14.0764</ele>
        <time>2017-10-08T10:57:54Z</time>
      </trkpt>
      <trkpt lat="62.692361" lon="17.840561">
        <ele>13.1151</ele>
        <time>2017-10-08T10:58:04Z</time>
      </trkpt>
      <trkpt lat="62.6928573" lon="17.8408178">
        <ele>11.6732</ele>
        <time>2017-10-08T10:58:14Z</time>
      </trkpt>
      <trkpt lat="62.693186" lon="17.8409877">
        <ele>11.1925</ele>
        <time>2017-10-08T10:58:21Z</time>
      </trkpt>
      <trkpt lat="62.6935463" lon="17.8411847">
        <ele>11.1925</ele>
        <time>2017-10-08T10:58:29Z</time>
      </trkpt>
      <trkpt lat="62.6939584" lon="17.8413899">
        <ele>11.6732</ele>
        <time>2017-10-08T10:58:38Z</time>
      </trkpt>
      <trkpt lat="62.6944299" lon="17.8416255">
        <ele>11.1925</ele>
        <time>2017-10-08T10:58:48Z</time>
      </trkpt>
      <trkpt lat="62.6949246" lon="17.8419162">
        <ele>10.2312</ele>
        <time>2017-10-08T10:58:58Z</time>
      </trkpt>
      <trkpt lat="62.6952448" lon="17.8421139">
        <ele>9.75061</ele>
        <time>2017-10-08T10:59:05Z</time>
      </trkpt>
      <trkpt lat="62.6954908" lon="17.8419886">
        <ele>10.2312</ele>
        <time>2017-10-08T10:59:10Z</time>
      </trkpt>
      <trkpt lat="62.6955748" lon="17.8418597">
        <ele>10.2312</ele>
        <time>2017-10-08T10:59:12Z</time>
      </trkpt>
      <trkpt lat="62.6958574" lon="17.8412952">
        <ele>11.6732</ele>
        <time>2017-10-08T10:59:20Z</time>
      </trkpt>
      <trkpt lat="62.6960963" lon="17.84082">
        <ele>13.5958</ele>
        <time>2017-10-08T10:59:28Z</time>
      </trkpt>
      <trkpt lat="62.6963521" lon="17.8402927">
        <ele>15.999</ele>
        <time>2017-10-08T10:59:38Z</time>
      </trkpt>
      <trkpt lat="62.696514" lon="17.8400157">
        <ele>17.4412</ele>
        <time>2017-10-08T10:59:45Z</time>
      </trkpt>
      <trkpt lat="62.6966168" lon="17.8400896">
        <ele>17.9218</ele>
        <time>2017-10-08T10:59:49Z</time>
      </trkpt>
      <trkpt lat="62.6968177" lon="17.8403522">
        <ele>21.2864</ele>
        <time>2017-10-08T10:59:59Z</time>
      </trkpt>
      <trkpt lat="62.696978" lon="17.8405263">
        <ele>24.1703</ele>
        <time>2017-10-08T11:00:07Z</time>
      </trkpt>
      <trkpt lat="62.697142" lon="17.8406051">
        <ele>27.0543</ele>
        <time>2017-10-08T11:00:15Z</time>
      </trkpt>
      <trkpt lat="62.6973167" lon="17.8404444">
        <ele>29.9381</ele>
        <time>2017-10-08T11:00:24Z</time>
      </trkpt>
      <trkpt lat="62.6974328" lon="17.8402511">
        <ele>31.8607</ele>
        <time>2017-10-08T11:00:31Z</time>
      </trkpt>
      <trkpt lat="62.6976157" lon="17.8399145">
        <ele>34.7449</ele>
        <time>2017-10-08T11:00:41Z</time>
      </trkpt>
      <trkpt lat="62.6977415" lon="17.8396747">
        <ele>35.7061</ele>
        <time>2017-10-08T11:00:49Z</time>
      </trkpt>
      <trkpt lat="62.6978217" lon="17.8395665">
        <ele>36.1868</ele>
        <time>2017-10-08T11:00:55Z</time>
      </trkpt>
      <trkpt lat="62.6978273" lon="17.8395541">
        <ele>36.1868</ele>
        <time>2017-10-08T11:00:58Z</time>
      </trkpt>
      <trkpt lat="62.6978512" lon="17.8395099">
        <ele>38.1094</ele>
        <time>2017-10-08T11:01:15Z</time>
      </trkpt>
      <trkpt lat="62.6979585" lon="17.8392589">
        <ele>37.6287</ele>
        <time>2017-10-08T11:01:19Z</time>
      </trkpt>
      <trkpt lat="62.6981592" lon="17.8388117">
        <ele>36.6675</ele>
        <time>2017-10-08T11:01:26Z</time>
      </trkpt>
      <trkpt lat="62.698315" lon="17.8384869">
        <ele>38.1094</ele>
        <time>2017-10-08T11:01:33Z</time>
      </trkpt>
      <trkpt lat="62.6984874" lon="17.8381668">
        <ele>39.0707</ele>
        <time>2017-10-08T11:01:41Z</time>
      </trkpt>
      <trkpt lat="62.6986517" lon="17.8378551">
        <ele>39.0707</ele>
        <time>2017-10-08T11:01:48Z</time>
      </trkpt>
      <trkpt lat="62.6988774" lon="17.8374441">
        <ele>40.0321</ele>
        <time>2017-10-08T11:01:57Z</time>
      </trkpt>
      <trkpt lat="62.6990972" lon="17.8370496">
        <ele>40.5128</ele>
        <time>2017-10-08T11:02:06Z</time>
      </trkpt>
      <trkpt lat="62.6992759" lon="17.8367413">
        <ele>41.474</ele>
        <time>2017-10-08T11:02:13Z</time>
      </trkpt>
      <trkpt lat="62.6994418" lon="17.8362329">
        <ele>43.8773</ele>
        <time>2017-10-08T11:02:22Z</time>
      </trkpt>
      <trkpt lat="62.6996193" lon="17.8355342">
        <ele>45.3192</ele>
        <time>2017-10-08T11:02:33Z</time>
      </trkpt>
      <trkpt lat="62.6997633" lon="17.8351995">
        <ele>46.7612</ele>
        <time>2017-10-08T11:02:40Z</time>
      </trkpt>
      <trkpt lat="62.6999496" lon="17.8348726">
        <ele>48.2034</ele>
        <time>2017-10-08T11:02:48Z</time>
      </trkpt>
      <trkpt lat="62.7001082" lon="17.8347037">
        <ele>49.6453</ele>
        <time>2017-10-08T11:02:55Z</time>
      </trkpt>
      <trkpt lat="62.7002657" lon="17.8345396">
        <ele>51.5679</ele>
        <time>2017-10-08T11:03:02Z</time>
      </trkpt>
      <trkpt lat="62.7004403" lon="17.8344698">
        <ele>52.0486</ele>
        <time>2017-10-08T11:03:09Z</time>
      </trkpt>
      <trkpt lat="62.7006201" lon="17.8343602">
        <ele>51.5679</ele>
        <time>2017-10-08T11:03:15Z</time>
      </trkpt>
      <trkpt lat="62.7008417" lon="17.8340862">
        <ele>50.126</ele>
        <time>2017-10-08T11:03:22Z</time>
      </trkpt>
      <trkpt lat="62.7010585" lon="17.833741">
        <ele>49.6453</ele>
        <time>2017-10-08T11:03:29Z</time>
      </trkpt>
      <trkpt lat="62.7013089" lon="17.8332726">
        <ele>48.2034</ele>
        <time>2017-10-08T11:03:36Z</time>
      </trkpt>
      <trkpt lat="62.7014862" lon="17.8329606">
        <ele>47.7225</ele>
        <time>2017-10-08T11:03:42Z</time>
      </trkpt>
      <trkpt lat="62.7017109" lon="17.8325661">
        <ele>47.7225</ele>
        <time>2017-10-08T11:03:50Z</time>
      </trkpt>
      <trkpt lat="62.701943" lon="17.8321359">
        <ele>44.358</ele>
        <time>2017-10-08T11:03:57Z</time>
      </trkpt>
      <trkpt lat="62.7022354" lon="17.8316057">
        <ele>41.474</ele>
        <time>2017-10-08T11:04:03Z</time>
      </trkpt>
      <trkpt lat="62.7027289" lon="17.8308544">
        <ele>38.5901</ele>
        <time>2017-10-08T11:04:12Z</time>
      </trkpt>
      <trkpt lat="62.7031131" lon="17.830226">
        <ele>36.6675</ele>
        <time>2017-10-08T11:04:19Z</time>
      </trkpt>
      <trkpt lat="62.7032224" lon="17.8300857">
        <ele>36.1868</ele>
        <time>2017-10-08T11:04:21Z</time>
      </trkpt>
      <trkpt lat="62.703347" lon="17.8297814">
        <ele>35.7061</ele>
        <time>2017-10-08T11:04:25Z</time>
      </trkpt>
      <trkpt lat="62.7032929" lon="17.8295163">
        <ele>35.7061</ele>
        <time>2017-10-08T11:04:28Z</time>
      </trkpt>
      <trkpt lat="62.7030734" lon="17.8289771">
        <ele>34.7449</ele>
        <time>2017-10-08T11:04:35Z</time>
      </trkpt>
      <trkpt lat="62.7030531" lon="17.828668">
        <ele>34.2642</ele>
        <time>2017-10-08T11:04:39Z</time>
      </trkpt>
      <trkpt lat="62.7031594" lon="17.8285002">
        <ele>34.2642</ele>
        <time>2017-10-08T11:04:42Z</time>
      </trkpt>
      <trkpt lat="62.7036063" lon="17.8281019">
        <ele>33.7834</ele>
        <time>2017-10-08T11:04:51Z</time>
      </trkpt>
      <trkpt lat="62.7039942" lon="17.8277692">
        <ele>33.7834</ele>
        <time>2017-10-08T11:04:59Z</time>
      </trkpt>
      <trkpt lat="62.7044167" lon="17.8273881">
        <ele>34.2642</ele>
        <time>2017-10-08T11:05:08Z</time>
      </trkpt>
      <trkpt lat="62.7046508" lon="17.8271808">
        <ele>34.7449</ele>
        <time>2017-10-08T11:05:13Z</time>
      </trkpt>
      <trkpt lat="62.7050267" lon="17.8268426">
        <ele>35.7061</ele>
        <time>2017-10-08T11:05:22Z</time>
      </trkpt>
      <trkpt lat="62.7054344" lon="17.8264726">
        <ele>36.6675</ele>
        <time>2017-10-08T11:05:32Z</time>
      </trkpt>
      <trkpt lat="62.705707" lon="17.8262437">
        <ele>36.6675</ele>
        <time>2017-10-08T11:05:39Z</time>
      </trkpt>
      <trkpt lat="62.7059189" lon="17.8260785">
        <ele>35.2255</ele>
        <time>2017-10-08T11:05:45Z</time>
      </trkpt>
      <trkpt lat="62.706289" lon="17.8257801">
        <ele>33.7834</ele>
        <time>2017-10-08T11:05:55Z</time>
      </trkpt>
      <trkpt lat="62.706725" lon="17.8254332">
        <ele>32.8223</ele>
        <time>2017-10-08T11:06:06Z</time>
      </trkpt>
      <trkpt lat="62.7070215" lon="17.8252606">
        <ele>33.7834</ele>
        <time>2017-10-08T11:06:14Z</time>
      </trkpt>
      <trkpt lat="62.7073221" lon="17.825127">
        <ele>35.2255</ele>
        <time>2017-10-08T11:06:23Z</time>
      </trkpt>
      <trkpt lat="62.7075977" lon="17.8250762">
        <ele>36.1868</ele>
        <time>2017-10-08T11:06:31Z</time>
      </trkpt>
      <trkpt lat="62.707854" lon="17.8250585">
        <ele>36.6675</ele>
        <time>2017-10-08T11:06:38Z</time>
      </trkpt>
      <trkpt lat="62.7083318" lon="17.8250953">
        <ele>37.6287</ele>
        <time>2017-10-08T11:06:50Z</time>
      </trkpt>
      <trkpt lat="62.7087731" lon="17.8251502">
        <ele>37.1481</ele>
        <time>2017-10-08T11:07:00Z</time>
      </trkpt>
      <trkpt lat="62.7091173" lon="17.825193">
        <ele>37.1481</ele>
        <time>2017-10-08T11:07:08Z</time>
      </trkpt>
      <trkpt lat="62.7095419" lon="17.8252453">
        <ele>37.1481</ele>
        <time>2017-10-08T11:07:17Z</time>
      </trkpt>
      <trkpt lat="62.7099779" lon="17.8253051">
        <ele>38.1094</ele>
        <time>2017-10-08T11:07:26Z</time>
      </trkpt>
      <trkpt lat="62.7104051" lon="17.8253476">
        <ele>36.6675</ele>
        <time>2017-10-08T11:07:35Z</time>
      </trkpt>
      <trkpt lat="62.7107897" lon="17.8253771">
        <ele>36.1868</ele>
        <time>2017-10-08T11:07:44Z</time>
      </trkpt>
      <trkpt lat="62.7112212" lon="17.8254383">
        <ele>35.2255</ele>
        <time>2017-10-08T11:07:54Z</time>
      </trkpt>
      <trkpt lat="62.7115593" lon="17.8255473">
        <ele>35.2255</ele>
        <time>2017-10-08T11:08:02Z</time>
      </trkpt>
      <trkpt lat="62.7119039" lon="17.8258106">
        <ele>35.7061</ele>
        <time>2017-10-08T11:08:12Z</time>
      </trkpt>
      <trkpt lat="62.7121147" lon="17.8259806">
        <ele>36.6675</ele>
        <time>2017-10-08T11:08:19Z</time>
      </trkpt>
      <trkpt lat="62.7123255" lon="17.8262047">
        <ele>37.1481</ele>
        <time>2017-10-08T11:08:26Z</time>
      </trkpt>
      <trkpt lat="62.7125935" lon="17.8265302">
        <ele>37.6287</ele>
        <time>2017-10-08T11:08:34Z</time>
      </trkpt>
      <trkpt lat="62.7128563" lon="17.8269497">
        <ele>37.1481</ele>
        <time>2017-10-08T11:08:41Z</time>
      </trkpt>
      <trkpt lat="62.7131614" lon="17.8275554">
        <ele>36.1868</ele>
        <time>2017-10-08T11:08:49Z</time>
      </trkpt>
      <trkpt lat="62.713437" lon="17.8282785">
        <ele>36.6675</ele>
        <time>2017-10-08T11:08:58Z</time>
      </trkpt>
      <trkpt lat="62.7136091" lon="17.8288639">
        <ele>38.1094</ele>
        <time>2017-10-08T11:09:06Z</time>
      </trkpt>
      <trkpt lat="62.7137137" lon="17.829346">
        <ele>39.5513</ele>
        <time>2017-10-08T11:09:13Z</time>
      </trkpt>
      <trkpt lat="62.7137919" lon="17.8298268">
        <ele>40.5128</ele>
        <time>2017-10-08T11:09:21Z</time>
      </trkpt>
      <trkpt lat="62.7138626" lon="17.8304215">
        <ele>41.474</ele>
        <time>2017-10-08T11:09:30Z</time>
      </trkpt>
      <trkpt lat="62.7138932" lon="17.8309025">
        <ele>41.474</ele>
        <time>2017-10-08T11:09:37Z</time>
      </trkpt>
      <trkpt lat="62.71392" lon="17.8313865">
        <ele>42.4354</ele>
        <time>2017-10-08T11:09:45Z</time>
      </trkpt>
      <trkpt lat="62.7139381" lon="17.8315031">
        <ele>42.4354</ele>
        <time>2017-10-08T11:09:48Z</time>
      </trkpt>
      <trkpt lat="62.7139397" lon="17.8315115">
        <ele>42.4354</ele>
        <time>2017-10-08T11:09:51Z</time>
      </trkpt>
      <trkpt lat="62.7139431" lon="17.8315751">
        <ele>44.8386</ele>
        <time>2017-10-08T11:11:04Z</time>
      </trkpt>
      <trkpt lat="62.7139439" lon="17.8319818">
        <ele>43.8773</ele>
        <time>2017-10-08T11:11:09Z</time>
      </trkpt>
      <trkpt lat="62.713948" lon="17.8325727">
        <ele>42.4354</ele>
        <time>2017-10-08T11:11:14Z</time>
      </trkpt>
      <trkpt lat="62.7139568" lon="17.8337146">
        <ele>40.0321</ele>
        <time>2017-10-08T11:11:22Z</time>
      </trkpt>
      <trkpt lat="62.7139537" lon="17.8346944">
        <ele>40.0321</ele>
        <time>2017-10-08T11:11:29Z</time>
      </trkpt>
      <trkpt lat="62.7139271" lon="17.8353481">
        <ele>40.9934</ele>
        <time>2017-10-08T11:11:35Z</time>
      </trkpt>
      <trkpt lat="62.7138748" lon="17.83618">
        <ele>42.916</ele>
        <time>2017-10-08T11:11:44Z</time>
      </trkpt>
      <trkpt lat="62.7138095" lon="17.8371038">
        <ele>44.358</ele>
        <time>2017-10-08T11:11:54Z</time>
      </trkpt>
      <trkpt lat="62.713752" lon="17.8380027">
        <ele>45.7999</ele>
        <time>2017-10-08T11:12:04Z</time>
      </trkpt>
      <trkpt lat="62.7136885" lon="17.8388703">
        <ele>45.3192</ele>
        <time>2017-10-08T11:12:13Z</time>
      </trkpt>
      <trkpt lat="62.7136122" lon="17.839953">
        <ele>44.358</ele>
        <time>2017-10-08T11:12:23Z</time>
      </trkpt>
      <trkpt lat="62.7135273" lon="17.8410489">
        <ele>42.4354</ele>
        <time>2017-10-08T11:12:32Z</time>
      </trkpt>
      <trkpt lat="62.713428" lon="17.8425148">
        <ele>41.474</ele>
        <time>2017-10-08T11:12:43Z</time>
      </trkpt>
      <trkpt lat="62.7133449" lon="17.8437634">
        <ele>41.474</ele>
        <time>2017-10-08T11:12:53Z</time>
      </trkpt>
      <trkpt lat="62.71326" lon="17.8449398">
        <ele>42.4354</ele>
        <time>2017-10-08T11:13:03Z</time>
      </trkpt>
      <trkpt lat="62.7131932" lon="17.8458038">
        <ele>43.8773</ele>
        <time>2017-10-08T11:13:11Z</time>
      </trkpt>
      <trkpt lat="62.7130894" lon="17.8467202">
        <ele>44.8386</ele>
        <time>2017-10-08T11:13:20Z</time>
      </trkpt>
      <trkpt lat="62.712969" lon="17.8474493">
        <ele>43.8773</ele>
        <time>2017-10-08T11:13:27Z</time>
      </trkpt>
      <trkpt lat="62.7127888" lon="17.8483165">
        <ele>41.9547</ele>
        <time>2017-10-08T11:13:34Z</time>
      </trkpt>
      <trkpt lat="62.7125592" lon="17.849221">
        <ele>39.5513</ele>
        <time>2017-10-08T11:13:41Z</time>
      </trkpt>
      <trkpt lat="62.7122413" lon="17.8505794">
        <ele>36.1868</ele>
        <time>2017-10-08T11:13:50Z</time>
      </trkpt>
      <trkpt lat="62.7119478" lon="17.8518438">
        <ele>34.7449</ele>
        <time>2017-10-08T11:13:58Z</time>
      </trkpt>
      <trkpt lat="62.7116469" lon="17.8531145">
        <ele>34.7449</ele>
        <time>2017-10-08T11:14:07Z</time>
      </trkpt>
      <trkpt lat="62.7113838" lon="17.8541842">
        <ele>35.7061</ele>
        <time>2017-10-08T11:14:15Z</time>
      </trkpt>
      <trkpt lat="62.7111305" lon="17.8552231">
        <ele>37.6287</ele>
        <time>2017-10-08T11:14:24Z</time>
      </trkpt>
      <trkpt lat="62.7109135" lon="17.8560671">
        <ele>39.5513</ele>
        <time>2017-10-08T11:14:32Z</time>
      </trkpt>
      <trkpt lat="62.7107291" lon="17.8567649">
        <ele>41.474</ele>
        <time>2017-10-08T11:14:39Z</time>
      </trkpt>
      <trkpt lat="62.7105038" lon="17.857456">
        <ele>42.916</ele>
        <time>2017-10-08T11:14:48Z</time>
      </trkpt>
      <trkpt lat="62.7102337" lon="17.8581412">
        <ele>43.8773</ele>
        <time>2017-10-08T11:14:57Z</time>
      </trkpt>
      <trkpt lat="62.7099184" lon="17.8588082">
        <ele>44.8386</ele>
        <time>2017-10-08T11:15:06Z</time>
      </trkpt>
      <trkpt lat="62.7095967" lon="17.8593704">
        <ele>43.8773</ele>
        <time>2017-10-08T11:15:13Z</time>
      </trkpt>
      <trkpt lat="62.7090843" lon="17.8600912">
        <ele>44.8386</ele>
        <time>2017-10-08T11:15:23Z</time>
      </trkpt>
      <trkpt lat="62.7087056" lon="17.8605895">
        <ele>47.2418</ele>
        <time>2017-10-08T11:15:32Z</time>
      </trkpt>
      <trkpt lat="62.7082725" lon="17.8611453">
        <ele>49.6453</ele>
        <time>2017-10-08T11:15:43Z</time>
      </trkpt>
      <trkpt lat="62.7078209" lon="17.8617228">
        <ele>49.6453</ele>
        <time>2017-10-08T11:15:53Z</time>
      </trkpt>
      <trkpt lat="62.7075309" lon="17.862209">
        <ele>48.684</ele>
        <time>2017-10-08T11:15:59Z</time>
      </trkpt>
      <trkpt lat="62.7072439" lon="17.8629387">
        <ele>48.2034</ele>
        <time>2017-10-08T11:16:06Z</time>
      </trkpt>
      <trkpt lat="62.7070605" lon="17.8637901">
        <ele>49.6453</ele>
        <time>2017-10-08T11:16:14Z</time>
      </trkpt>
      <trkpt lat="62.7069907" lon="17.8644263">
        <ele>51.5679</ele>
        <time>2017-10-08T11:16:21Z</time>
      </trkpt>
      <trkpt lat="62.706962" lon="17.8651032">
        <ele>53.4905</ele>
        <time>2017-10-08T11:16:28Z</time>
      </trkpt>
      <trkpt lat="62.7069671" lon="17.8658464">
        <ele>53.9712</ele>
        <time>2017-10-08T11:16:36Z</time>
      </trkpt>
      <trkpt lat="62.7069476" lon="17.8661954">
        <ele>53.0098</ele>
        <time>2017-10-08T11:16:40Z</time>
      </trkpt>
      <trkpt lat="62.706829" lon="17.8668504">
        <ele>53.0098</ele>
        <time>2017-10-08T11:16:49Z</time>
      </trkpt>
      <trkpt lat="62.7066995" lon="17.8671983">
        <ele>53.9712</ele>
        <time>2017-10-08T11:16:56Z</time>
      </trkpt>
      <trkpt lat="62.7065696" lon="17.8674062">
        <ele>54.4518</ele>
        <time>2017-10-08T11:17:03Z</time>
      </trkpt>
      <trkpt lat="62.706568" lon="17.8674142">
        <ele>54.4518</ele>
        <time>2017-10-08T11:17:06Z</time>
      </trkpt>
      <trkpt lat="62.7065706" lon="17.8673217">
        <ele>53.4905</ele>
        <time>2017-10-08T11:17:24Z</time>
      </trkpt>
      <trkpt lat="62.70661" lon="17.8673207">
        <ele>53.4905</ele>
        <time>2017-10-08T11:17:28Z</time>
      </trkpt>
      <trkpt lat="62.7066102" lon="17.8673215">
        <ele>53.0098</ele>
        <time>2017-10-08T11:17:29Z</time>
      </trkpt>
      <trkpt lat="62.7065689" lon="17.8674845">
        <ele>54.4518</ele>
        <time>2017-10-08T11:18:25Z</time>
      </trkpt>
      <trkpt lat="62.7065388" lon="17.8678032">
        <ele>54.4518</ele>
        <time>2017-10-08T11:18:28Z</time>
      </trkpt>
      <trkpt lat="62.706573" lon="17.8679964">
        <ele>54.4518</ele>
        <time>2017-10-08T11:18:30Z</time>
      </trkpt>
      <trkpt lat="62.7068055" lon="17.8688266">
        <ele>54.9324</ele>
        <time>2017-10-08T11:18:39Z</time>
      </trkpt>
      <trkpt lat="62.7069936" lon="17.8694565">
        <ele>54.9324</ele>
        <time>2017-10-08T11:18:46Z</time>
      </trkpt>
      <trkpt lat="62.7072254" lon="17.8702304">
        <ele>55.4131</ele>
        <time>2017-10-08T11:18:55Z</time>
      </trkpt>
      <trkpt lat="62.7074428" lon="17.8709879">
        <ele>55.8938</ele>
        <time>2017-10-08T11:19:04Z</time>
      </trkpt>
      <trkpt lat="62.707664" lon="17.8717618">
        <ele>55.8938</ele>
        <time>2017-10-08T11:19:13Z</time>
      </trkpt>
      <trkpt lat="62.7078741" lon="17.8725487">
        <ele>56.8551</ele>
        <time>2017-10-08T11:19:22Z</time>
      </trkpt>
      <trkpt lat="62.7081503" lon="17.8735769">
        <ele>59.2584</ele>
        <time>2017-10-08T11:19:34Z</time>
      </trkpt>
      <trkpt lat="62.7083836" lon="17.87459">
        <ele>60.2197</ele>
        <time>2017-10-08T11:19:45Z</time>
      </trkpt>
      <trkpt lat="62.7085219" lon="17.8752773">
        <ele>60.2197</ele>
        <time>2017-10-08T11:19:53Z</time>
      </trkpt>
      <trkpt lat="62.7085053" lon="17.8756189">
        <ele>60.7003</ele>
        <time>2017-10-08T11:19:58Z</time>
      </trkpt>
      <trkpt lat="62.7084788" lon="17.875661">
        <ele>60.7003</ele>
        <time>2017-10-08T11:19:59Z</time>
      </trkpt>
      <trkpt lat="62.7082749" lon="17.8758536">
        <ele>60.2197</ele>
        <time>2017-10-08T11:20:05Z</time>
      </trkpt>
      <trkpt lat="62.7080498" lon="17.8760597">
        <ele>59.7391</ele>
        <time>2017-10-08T11:20:12Z</time>
      </trkpt>
      <trkpt lat="62.7077697" lon="17.8763043">
        <ele>58.7777</ele>
        <time>2017-10-08T11:20:20Z</time>
      </trkpt>
      <trkpt lat="62.7074821" lon="17.8765503">
        <ele>57.3358</ele>
        <time>2017-10-08T11:20:26Z</time>
      </trkpt>
      <trkpt lat="62.7071186" lon="17.8769511">
        <ele>55.4131</ele>
        <time>2017-10-08T11:20:33Z</time>
      </trkpt>
      <trkpt lat="62.7069055" lon="17.877423">
        <ele>54.4518</ele>
        <time>2017-10-08T11:20:38Z</time>
      </trkpt>
      <trkpt lat="62.7067088" lon="17.8781778">
        <ele>53.4905</ele>
        <time>2017-10-08T11:20:44Z</time>
      </trkpt>
      <trkpt lat="62.7066768" lon="17.8782958">
        <ele>53.4905</ele>
        <time>2017-10-08T11:20:45Z</time>
      </trkpt>
      <trkpt lat="62.7063989" lon="17.8789668">
        <ele>53.9712</ele>
        <time>2017-10-08T11:20:52Z</time>
      </trkpt>
      <trkpt lat="62.7061163" lon="17.8794287">
        <ele>54.9324</ele>
        <time>2017-10-08T11:20:59Z</time>
      </trkpt>
      <trkpt lat="62.7058364" lon="17.8799172">
        <ele>54.4518</ele>
        <time>2017-10-08T11:21:06Z</time>
      </trkpt>
      <trkpt lat="62.7054768" lon="17.8805851">
        <ele>53.4905</ele>
        <time>2017-10-08T11:21:13Z</time>
      </trkpt>
      <trkpt lat="62.705186" lon="17.881323">
        <ele>50.6066</ele>
        <time>2017-10-08T11:21:19Z</time>
      </trkpt>
      <trkpt lat="62.7049077" lon="17.8822624">
        <ele>48.2034</ele>
        <time>2017-10-08T11:21:25Z</time>
      </trkpt>
      <trkpt lat="62.7045933" lon="17.8833683">
        <ele>46.2806</ele>
        <time>2017-10-08T11:21:32Z</time>
      </trkpt>
      <trkpt lat="62.7042465" lon="17.8841115">
        <ele>44.8386</ele>
        <time>2017-10-08T11:21:38Z</time>
      </trkpt>
      <trkpt lat="62.7036203" lon="17.8851486">
        <ele>44.358</ele>
        <time>2017-10-08T11:21:48Z</time>
      </trkpt>
      <trkpt lat="62.7033253" lon="17.8856367">
        <ele>46.7612</ele>
        <time>2017-10-08T11:21:54Z</time>
      </trkpt>
      <trkpt lat="62.7029771" lon="17.8861655">
        <ele>47.7225</ele>
        <time>2017-10-08T11:22:02Z</time>
      </trkpt>
      <trkpt lat="62.7026746" lon="17.8865625">
        <ele>45.7999</ele>
        <time>2017-10-08T11:22:07Z</time>
      </trkpt>
      <trkpt lat="62.7022887" lon="17.887022">
        <ele>43.8773</ele>
        <time>2017-10-08T11:22:12Z</time>
      </trkpt>
      <trkpt lat="62.701954" lon="17.8874079">
        <ele>45.3192</ele>
        <time>2017-10-08T11:22:17Z</time>
      </trkpt>
      <trkpt lat="62.701724" lon="17.8877456">
        <ele>47.7225</ele>
        <time>2017-10-08T11:22:22Z</time>
      </trkpt>
      <trkpt lat="62.7014812" lon="17.8880597">
        <ele>49.6453</ele>
        <time>2017-10-08T11:22:28Z</time>
      </trkpt>
      <trkpt lat="62.7010804" lon="17.8883863">
        <ele>52.0486</ele>
        <time>2017-10-08T11:22:37Z</time>
      </trkpt>
      <trkpt lat="62.7009641" lon="17.8885235">
        <ele>53.0098</ele>
        <time>2017-10-08T11:22:40Z</time>
      </trkpt>
      <trkpt lat="62.7008264" lon="17.8887462">
        <ele>53.9712</ele>
        <time>2017-10-08T11:22:44Z</time>
      </trkpt>
      <trkpt lat="62.7005682" lon="17.8893095">
        <ele>56.3745</ele>
        <time>2017-10-08T11:22:53Z</time>
      </trkpt>
      <trkpt lat="62.7003278" lon="17.8897332">
        <ele>56.3745</ele>
        <time>2017-10-08T11:23:00Z</time>
      </trkpt>
      <trkpt lat="62.7001487" lon="17.889943">
        <ele>56.3745</ele>
        <time>2017-10-08T11:23:04Z</time>
      </trkpt>
      <trkpt lat="62.6997819" lon="17.890119">
        <ele>57.3358</ele>
        <time>2017-10-08T11:23:11Z</time>
      </trkpt>
      <trkpt lat="62.6994161" lon="17.8901337">
        <ele>58.2971</ele>
        <time>2017-10-08T11:23:19Z</time>
      </trkpt>
      <trkpt lat="62.699095" lon="17.8901424">
        <ele>57.8165</ele>
        <time>2017-10-08T11:23:26Z</time>
      </trkpt>
      <trkpt lat="62.6987992" lon="17.8901547">
        <ele>56.3745</ele>
        <time>2017-10-08T11:23:33Z</time>
      </trkpt>
      <trkpt lat="62.6985614" lon="17.8901735">
        <ele>57.3358</ele>
        <time>2017-10-08T11:23:40Z</time>
      </trkpt>
      <trkpt lat="62.6984713" lon="17.8901926">
        <ele>56.8551</ele>
        <time>2017-10-08T11:23:43Z</time>
      </trkpt>
      <trkpt lat="62.6984029" lon="17.8904313">
        <ele>56.3745</ele>
        <time>2017-10-08T11:23:48Z</time>
      </trkpt>
      <trkpt lat="62.698401" lon="17.8905118">
        <ele>56.3745</ele>
        <time>2017-10-08T11:23:49Z</time>
      </trkpt>
      <trkpt lat="62.6984506" lon="17.8910169">
        <ele>56.3745</ele>
        <time>2017-10-08T11:23:55Z</time>
      </trkpt>
      <trkpt lat="62.6985565" lon="17.8912831">
        <ele>56.8551</ele>
        <time>2017-10-08T11:24:00Z</time>
      </trkpt>
      <trkpt lat="62.6987515" lon="17.8916574">
        <ele>58.2971</ele>
        <time>2017-10-08T11:24:09Z</time>
      </trkpt>
      <trkpt lat="62.6989686" lon="17.8920277">
        <ele>61.181</ele>
        <time>2017-10-08T11:24:18Z</time>
      </trkpt>
      <trkpt lat="62.6991513" lon="17.8923093">
        <ele>62.6229</ele>
        <time>2017-10-08T11:24:26Z</time>
      </trkpt>
      <trkpt lat="62.6994276" lon="17.8927303">
        <ele>65.5071</ele>
        <time>2017-10-08T11:24:38Z</time>
      </trkpt>
      <trkpt lat="62.6997001" lon="17.8930539">
        <ele>67.9103</ele>
        <time>2017-10-08T11:24:49Z</time>
      </trkpt>
      <trkpt lat="62.6999471" lon="17.8932163">
        <ele>70.3135</ele>
        <time>2017-10-08T11:24:59Z</time>
      </trkpt>
      <trkpt lat="62.7001599" lon="17.8932167">
        <ele>73.1976</ele>
        <time>2017-10-08T11:25:07Z</time>
      </trkpt>
      <trkpt lat="62.7003426" lon="17.893083">
        <ele>75.1202</ele>
        <time>2017-10-08T11:25:14Z</time>
      </trkpt>
      <trkpt lat="62.7005021" lon="17.8928092">
        <ele>77.0428</ele>
        <time>2017-10-08T11:25:22Z</time>
      </trkpt>
      <trkpt lat="62.7006844" lon="17.8925095">
        <ele>78.9655</ele>
        <time>2017-10-08T11:25:30Z</time>
      </trkpt>
      <trkpt lat="62.7008682" lon="17.8923106">
        <ele>80.8882</ele>
        <time>2017-10-08T11:25:37Z</time>
      </trkpt>
      <trkpt lat="62.7011946" lon="17.8920769">
        <ele>82.8108</ele>
        <time>2017-10-08T11:25:48Z</time>
      </trkpt>
      <trkpt lat="62.7013545" lon="17.8920113">
        <ele>83.772</ele>
        <time>2017-10-08T11:25:53Z</time>
      </trkpt>
      <trkpt lat="62.7015643" lon="17.891956">
        <ele>84.2527</ele>
        <time>2017-10-08T11:26:00Z</time>
      </trkpt>
      <trkpt lat="62.7016375" lon="17.8919568">
        <ele>84.2527</ele>
        <time>2017-10-08T11:26:05Z</time>
      </trkpt>
      <trkpt lat="62.7016369" lon="17.8919569">
        <ele>84.7334</ele>
        <time>2017-10-08T11:26:06Z</time>
      </trkpt>
      <trkpt lat="62.7016761" lon="17.8919692">
        <ele>84.7334</ele>
        <time>2017-10-08T11:26:45Z</time>
      </trkpt>
      <trkpt lat="62.701826" lon="17.8919864">
        <ele>83.772</ele>
        <time>2017-10-08T11:26:49Z</time>
      </trkpt>
      <trkpt lat="62.7020786" lon="17.8920798">
        <ele>81.8494</ele>
        <time>2017-10-08T11:26:54Z</time>
      </trkpt>
      <trkpt lat="62.7025001" lon="17.8922367">
        <ele>80.8882</ele>
        <time>2017-10-08T11:27:01Z</time>
      </trkpt>
      <trkpt lat="62.7027029" lon="17.8923189">
        <ele>81.3688</ele>
        <time>2017-10-08T11:27:06Z</time>
      </trkpt>
      <trkpt lat="62.7030118" lon="17.8923958">
        <ele>80.8882</ele>
        <time>2017-10-08T11:27:14Z</time>
      </trkpt>
      <trkpt lat="62.703331" lon="17.8925194">
        <ele>79.9266</ele>
        <time>2017-10-08T11:27:22Z</time>
      </trkpt>
      <trkpt lat="62.7036026" lon="17.892677">
        <ele>78.4847</ele>
        <time>2017-10-08T11:27:31Z</time>
      </trkpt>
      <trkpt lat="62.7038591" lon="17.8928043">
        <ele>76.5621</ele>
        <time>2017-10-08T11:27:37Z</time>
      </trkpt>
      <trkpt lat="62.7042639" lon="17.8929278">
        <ele>74.6395</ele>
        <time>2017-10-08T11:27:44Z</time>
      </trkpt>
      <trkpt lat="62.7046953" lon="17.8931172">
        <ele>73.6782</ele>
        <time>2017-10-08T11:27:52Z</time>
      </trkpt>
      <trkpt lat="62.7050005" lon="17.8933261">
        <ele>73.1976</ele>
        <time>2017-10-08T11:27:59Z</time>
      </trkpt>
      <trkpt lat="62.7052841" lon="17.8936325">
        <ele>72.2362</ele>
        <time>2017-10-08T11:28:05Z</time>
      </trkpt>
      <trkpt lat="62.7055915" lon="17.8940741">
        <ele>71.7555</ele>
        <time>2017-10-08T11:28:12Z</time>
      </trkpt>
      <trkpt lat="62.7059106" lon="17.8946704">
        <ele>70.7942</ele>
        <time>2017-10-08T11:28:20Z</time>
      </trkpt>
      <trkpt lat="62.70614" lon="17.895366">
        <ele>71.7555</ele>
        <time>2017-10-08T11:28:28Z</time>
      </trkpt>
      <trkpt lat="62.706368" lon="17.8962398">
        <ele>72.7169</ele>
        <time>2017-10-08T11:28:37Z</time>
      </trkpt>
      <trkpt lat="62.7065705" lon="17.8970993">
        <ele>73.6782</ele>
        <time>2017-10-08T11:28:46Z</time>
      </trkpt>
      <trkpt lat="62.7067544" lon="17.8976871">
        <ele>73.6782</ele>
        <time>2017-10-08T11:28:53Z</time>
      </trkpt>
      <trkpt lat="62.7070098" lon="17.8981309">
        <ele>72.7169</ele>
        <time>2017-10-08T11:29:00Z</time>
      </trkpt>
      <trkpt lat="62.7073373" lon="17.89858">
        <ele>72.7169</ele>
        <time>2017-10-08T11:29:08Z</time>
      </trkpt>
      <trkpt lat="62.7077182" lon="17.8990413">
        <ele>71.2749</ele>
        <time>2017-10-08T11:29:17Z</time>
      </trkpt>
      <trkpt lat="62.7080047" lon="17.8994204">
        <ele>67.9103</ele>
        <time>2017-10-08T11:29:22Z</time>
      </trkpt>
      <trkpt lat="62.7084053" lon="17.9000167">
        <ele>65.0264</ele>
        <time>2017-10-08T11:29:28Z</time>
      </trkpt>
      <trkpt lat="62.7087156" lon="17.9006232">
        <ele>62.6229</ele>
        <time>2017-10-08T11:29:34Z</time>
      </trkpt>
      <trkpt lat="62.7089869" lon="17.9013231">
        <ele>61.6617</ele>
        <time>2017-10-08T11:29:41Z</time>
      </trkpt>
      <trkpt lat="62.7091486" lon="17.9018067">
        <ele>62.6229</ele>
        <time>2017-10-08T11:29:47Z</time>
      </trkpt>
      <trkpt lat="62.7093054" lon="17.9022699">
        <ele>66.4683</ele>
        <time>2017-10-08T11:29:54Z</time>
      </trkpt>
      <trkpt lat="62.7094939" lon="17.9028362">
        <ele>69.3523</ele>
        <time>2017-10-08T11:30:03Z</time>
      </trkpt>
      <trkpt lat="62.7096986" lon="17.9035288">
        <ele>71.7555</ele>
        <time>2017-10-08T11:30:13Z</time>
      </trkpt>
      <trkpt lat="62.7097713" lon="17.9041214">
        <ele>73.6782</ele>
        <time>2017-10-08T11:30:21Z</time>
      </trkpt>
      <trkpt lat="62.7097421" lon="17.9046431">
        <ele>74.6395</ele>
        <time>2017-10-08T11:30:28Z</time>
      </trkpt>
      <trkpt lat="62.7096877" lon="17.9050536">
        <ele>75.6008</ele>
        <time>2017-10-08T11:30:34Z</time>
      </trkpt>
      <trkpt lat="62.7096266" lon="17.9055371">
        <ele>75.6008</ele>
        <time>2017-10-08T11:30:41Z</time>
      </trkpt>
      <trkpt lat="62.7095713" lon="17.9061575">
        <ele>76.5621</ele>
        <time>2017-10-08T11:30:50Z</time>
      </trkpt>
      <trkpt lat="62.7095883" lon="17.9066108">
        <ele>77.0428</ele>
        <time>2017-10-08T11:30:57Z</time>
      </trkpt>
      <trkpt lat="62.7096623" lon="17.9068145">
        <ele>76.5621</ele>
        <time>2017-10-08T11:31:02Z</time>
      </trkpt>
      <trkpt lat="62.7098195" lon="17.9067502">
        <ele>75.6008</ele>
        <time>2017-10-08T11:31:06Z</time>
      </trkpt>
      <trkpt lat="62.7101197" lon="17.9064777">
        <ele>74.1588</ele>
        <time>2017-10-08T11:31:12Z</time>
      </trkpt>
      <trkpt lat="62.7104095" lon="17.9062704">
        <ele>74.6395</ele>
        <time>2017-10-08T11:31:18Z</time>
      </trkpt>
      <trkpt lat="62.7105952" lon="17.9061679">
        <ele>75.1202</ele>
        <time>2017-10-08T11:31:24Z</time>
      </trkpt>
      <trkpt lat="62.710852" lon="17.9060161">
        <ele>76.5621</ele>
        <time>2017-10-08T11:31:33Z</time>
      </trkpt>
      <trkpt lat="62.7110409" lon="17.9059154">
        <ele>78.004</ele>
        <time>2017-10-08T11:31:40Z</time>
      </trkpt>
      <trkpt lat="62.7112158" lon="17.905884">
        <ele>78.9655</ele>
        <time>2017-10-08T11:31:47Z</time>
      </trkpt>
      <trkpt lat="62.711399" lon="17.9059106">
        <ele>79.9266</ele>
        <time>2017-10-08T11:31:54Z</time>
      </trkpt>
      <trkpt lat="62.7116335" lon="17.9059718">
        <ele>80.8882</ele>
        <time>2017-10-08T11:32:03Z</time>
      </trkpt>
      <trkpt lat="62.7117636" lon="17.9059791">
        <ele>81.3688</ele>
        <time>2017-10-08T11:32:08Z</time>
      </trkpt>
      <trkpt lat="62.7119215" lon="17.9059831">
        <ele>81.8494</ele>
        <time>2017-10-08T11:32:14Z</time>
      </trkpt>
      <trkpt lat="62.7120915" lon="17.9060427">
        <ele>81.8494</ele>
        <time>2017-10-08T11:32:20Z</time>
      </trkpt>
      <trkpt lat="62.7122971" lon="17.9061825">
        <ele>82.8108</ele>
        <time>2017-10-08T11:32:27Z</time>
      </trkpt>
      <trkpt lat="62.7125136" lon="17.9063379">
        <ele>85.214</ele>
        <time>2017-10-08T11:32:35Z</time>
      </trkpt>
      <trkpt lat="62.7127478" lon="17.9065181">
        <ele>88.5787</ele>
        <time>2017-10-08T11:32:45Z</time>
      </trkpt>
      <trkpt lat="62.712962" lon="17.9067167">
        <ele>91.4625</ele>
        <time>2017-10-08T11:32:55Z</time>
      </trkpt>
      <trkpt lat="62.7130938" lon="17.9067944">
        <ele>91.9432</ele>
        <time>2017-10-08T11:33:01Z</time>
      </trkpt>
      <trkpt lat="62.7132673" lon="17.9068642">
        <ele>92.424</ele>
        <time>2017-10-08T11:33:09Z</time>
      </trkpt>
      <trkpt lat="62.7134116" lon="17.9069316">
        <ele>92.9045</ele>
        <time>2017-10-08T11:33:16Z</time>
      </trkpt>
      <trkpt lat="62.7135445" lon="17.9070797">
        <ele>93.8658</ele>
        <time>2017-10-08T11:33:24Z</time>
      </trkpt>
      <trkpt lat="62.7137" lon="17.9071107">
        <ele>95.7885</ele>
        <time>2017-10-08T11:33:32Z</time>
      </trkpt>
      <trkpt lat="62.7138641" lon="17.9070697">
        <ele>97.2305</ele>
        <time>2017-10-08T11:33:40Z</time>
      </trkpt>
      <trkpt lat="62.7140603" lon="17.9069705">
        <ele>99.1531</ele>
        <time>2017-10-08T11:33:49Z</time>
      </trkpt>
      <trkpt lat="62.7142571" lon="17.9068819">
        <ele>100.595</ele>
        <time>2017-10-08T11:33:58Z</time>
      </trkpt>
      <trkpt lat="62.7144208" lon="17.9068925">
        <ele>101.556</ele>
        <time>2017-10-08T11:34:05Z</time>
      </trkpt>
      <trkpt lat="62.7145666" lon="17.9070198">
        <ele>102.518</ele>
        <time>2017-10-08T11:34:12Z</time>
      </trkpt>
      <trkpt lat="62.714683" lon="17.9072677">
        <ele>102.998</ele>
        <time>2017-10-08T11:34:19Z</time>
      </trkpt>
      <trkpt lat="62.7148685" lon="17.9076747">
        <ele>103.96</ele>
        <time>2017-10-08T11:34:29Z</time>
      </trkpt>
      <trkpt lat="62.7150275" lon="17.9080119">
        <ele>105.402</ele>
        <time>2017-10-08T11:34:38Z</time>
      </trkpt>
      <trkpt lat="62.7151345" lon="17.9082105">
        <ele>105.882</ele>
        <time>2017-10-08T11:34:44Z</time>
      </trkpt>
      <trkpt lat="62.7152359" lon="17.9084289">
        <ele>105.882</ele>
        <time>2017-10-08T11:34:52Z</time>
      </trkpt>
      <trkpt lat="62.7152468" lon="17.9084522">
        <ele>106.363</ele>
        <time>2017-10-08T11:34:53Z</time>
      </trkpt>
      <trkpt lat="62.7152555" lon="17.9084665">
        <ele>105.882</ele>
        <time>2017-10-08T11:34:56Z</time>
      </trkpt>
      <trkpt lat="62.715275" lon="17.908514">
        <ele>105.882</ele>
        <time>2017-10-08T11:36:00Z</time>
      </trkpt>
      <trkpt lat="62.7153716" lon="17.9087166">
        <ele>105.402</ele>
        <time>2017-10-08T11:36:05Z</time>
      </trkpt>
      <trkpt lat="62.7154931" lon="17.9089693">
        <ele>103.96</ele>
        <time>2017-10-08T11:36:11Z</time>
      </trkpt>
      <trkpt lat="62.715694" lon="17.9093694">
        <ele>101.556</ele>
        <time>2017-10-08T11:36:18Z</time>
      </trkpt>
      <trkpt lat="62.7159013" lon="17.9096992">
        <ele>99.6338</ele>
        <time>2017-10-08T11:36:23Z</time>
      </trkpt>
      <trkpt lat="62.7162379" lon="17.9103281">
        <ele>98.6725</ele>
        <time>2017-10-08T11:36:32Z</time>
      </trkpt>
      <trkpt lat="62.7165008" lon="17.910972">
        <ele>97.7112</ele>
        <time>2017-10-08T11:36:42Z</time>
      </trkpt>
      <trkpt lat="62.716683" lon="17.9114381">
        <ele>96.7499</ele>
        <time>2017-10-08T11:36:49Z</time>
      </trkpt>
      <trkpt lat="62.7168479" lon="17.9118716">
        <ele>95.7885</ele>
        <time>2017-10-08T11:36:55Z</time>
      </trkpt>
      <trkpt lat="62.7170151" lon="17.9122773">
        <ele>95.7885</ele>
        <time>2017-10-08T11:37:01Z</time>
      </trkpt>
      <trkpt lat="62.7171242" lon="17.9125358">
        <ele>96.2693</ele>
        <time>2017-10-08T11:37:05Z</time>
      </trkpt>
      <trkpt lat="62.7173366" lon="17.913028">
        <ele>95.7885</ele>
        <time>2017-10-08T11:37:13Z</time>
      </trkpt>
      <trkpt lat="62.7175223" lon="17.9134296">
        <ele>95.7885</ele>
        <time>2017-10-08T11:37:20Z</time>
      </trkpt>
      <trkpt lat="62.7177435" lon="17.9138702">
        <ele>97.2305</ele>
        <time>2017-10-08T11:37:30Z</time>
      </trkpt>
      <trkpt lat="62.7179482" lon="17.9142672">
        <ele>99.6338</ele>
        <time>2017-10-08T11:37:41Z</time>
      </trkpt>
      <trkpt lat="62.7181164" lon="17.9145982">
        <ele>102.998</ele>
        <time>2017-10-08T11:37:51Z</time>
      </trkpt>
      <trkpt lat="62.7182356" lon="17.9148172">
        <ele>105.402</ele>
        <time>2017-10-08T11:37:59Z</time>
      </trkpt>
      <trkpt lat="62.7183832" lon="17.9150929">
        <ele>108.766</ele>
        <time>2017-10-08T11:38:09Z</time>
      </trkpt>
      <trkpt lat="62.7185226" lon="17.9153504">
        <ele>111.17</ele>
        <time>2017-10-08T11:38:18Z</time>
      </trkpt>
      <trkpt lat="62.7186226" lon="17.9155472">
        <ele>112.612</ele>
        <time>2017-10-08T11:38:25Z</time>
      </trkpt>
      <trkpt lat="62.7187563" lon="17.915784">
        <ele>115.015</ele>
        <time>2017-10-08T11:38:34Z</time>
      </trkpt>
      <trkpt lat="62.7189117" lon="17.9160525">
        <ele>115.976</ele>
        <time>2017-10-08T11:38:43Z</time>
      </trkpt>
      <trkpt lat="62.7190727" lon="17.9163137">
        <ele>116.457</ele>
        <time>2017-10-08T11:38:52Z</time>
      </trkpt>
      <trkpt lat="62.7192415" lon="17.9165664">
        <ele>115.496</ele>
        <time>2017-10-08T11:39:02Z</time>
      </trkpt>
      <trkpt lat="62.7193672" lon="17.9167723">
        <ele>114.534</ele>
        <time>2017-10-08T11:39:08Z</time>
      </trkpt>
      <trkpt lat="62.7195466" lon="17.9171285">
        <ele>113.092</ele>
        <time>2017-10-08T11:39:14Z</time>
      </trkpt>
      <trkpt lat="62.7196886" lon="17.9174958">
        <ele>112.131</ele>
        <time>2017-10-08T11:39:20Z</time>
      </trkpt>
      <trkpt lat="62.7198316" lon="17.9179293">
        <ele>112.612</ele>
        <time>2017-10-08T11:39:28Z</time>
      </trkpt>
      <trkpt lat="62.7199998" lon="17.91839">
        <ele>113.573</ele>
        <time>2017-10-08T11:39:37Z</time>
      </trkpt>
      <trkpt lat="62.7201696" lon="17.9187136">
        <ele>113.092</ele>
        <time>2017-10-08T11:39:45Z</time>
      </trkpt>
      <trkpt lat="62.7203538" lon="17.9189259">
        <ele>113.092</ele>
        <time>2017-10-08T11:39:52Z</time>
      </trkpt>
      <trkpt lat="62.720511" lon="17.9191135">
        <ele>112.612</ele>
        <time>2017-10-08T11:39:58Z</time>
      </trkpt>
      <trkpt lat="62.720694" lon="17.9193213">
        <ele>115.015</ele>
        <time>2017-10-08T11:40:05Z</time>
      </trkpt>
      <trkpt lat="62.7208939" lon="17.9195539">
        <ele>115.976</ele>
        <time>2017-10-08T11:40:13Z</time>
      </trkpt>
      <trkpt lat="62.7210535" lon="17.9197124">
        <ele>116.938</ele>
        <time>2017-10-08T11:40:20Z</time>
      </trkpt>
      <trkpt lat="62.7212478" lon="17.9199923">
        <ele>116.938</ele>
        <time>2017-10-08T11:40:28Z</time>
      </trkpt>
      <trkpt lat="62.7214097" lon="17.9202351">
        <ele>117.418</ele>
        <time>2017-10-08T11:40:35Z</time>
      </trkpt>
      <trkpt lat="62.7215307" lon="17.9204908">
        <ele>117.899</ele>
        <time>2017-10-08T11:40:41Z</time>
      </trkpt>
      <trkpt lat="62.7216964" lon="17.9208449">
        <ele>117.418</ele>
        <time>2017-10-08T11:40:48Z</time>
      </trkpt>
      <trkpt lat="62.7219164" lon="17.9212857">
        <ele>116.938</ele>
        <time>2017-10-08T11:40:57Z</time>
      </trkpt>
      <trkpt lat="62.7220858" lon="17.9215203">
        <ele>116.938</ele>
        <time>2017-10-08T11:41:04Z</time>
      </trkpt>
      <trkpt lat="62.722278" lon="17.9217095">
        <ele>116.457</ele>
        <time>2017-10-08T11:41:11Z</time>
      </trkpt>
      <trkpt lat="62.7225801" lon="17.9219242">
        <ele>115.496</ele>
        <time>2017-10-08T11:41:21Z</time>
      </trkpt>
      <trkpt lat="62.7228764" lon="17.9221129">
        <ele>115.976</ele>
        <time>2017-10-08T11:41:31Z</time>
      </trkpt>
      <trkpt lat="62.7231458" lon="17.9223174">
        <ele>116.457</ele>
        <time>2017-10-08T11:41:40Z</time>
      </trkpt>
      <trkpt lat="62.7234203" lon="17.9225211">
        <ele>115.496</ele>
        <time>2017-10-08T11:41:48Z</time>
      </trkpt>
      <trkpt lat="62.7237901" lon="17.9227975">
        <ele>114.534</ele>
        <time>2017-10-08T11:41:58Z</time>
      </trkpt>
      <trkpt lat="62.7241006" lon="17.9230553">
        <ele>113.092</ele>
        <time>2017-10-08T11:42:07Z</time>
      </trkpt>
      <trkpt lat="62.7242983" lon="17.9232">
        <ele>113.092</ele>
        <time>2017-10-08T11:42:13Z</time>
      </trkpt>
      <trkpt lat="62.724458" lon="17.9231488">
        <ele>111.17</ele>
        <time>2017-10-08T11:42:19Z</time>
      </trkpt>
      <trkpt lat="62.7245164" lon="17.9228732">
        <ele>109.247</ele>
        <time>2017-10-08T11:42:22Z</time>
      </trkpt>
      <trkpt lat="62.7245961" lon="17.9222434">
        <ele>106.844</ele>
        <time>2017-10-08T11:42:26Z</time>
      </trkpt>
      <trkpt lat="62.7246452" lon="17.9220607">
        <ele>106.844</ele>
        <time>2017-10-08T11:42:28Z</time>
      </trkpt>
      <trkpt lat="62.7247265" lon="17.9218532">
        <ele>107.324</ele>
        <time>2017-10-08T11:42:31Z</time>
      </trkpt>
      <trkpt lat="62.7247704" lon="17.9217695">
        <ele>107.805</ele>
        <time>2017-10-08T11:42:33Z</time>
      </trkpt>
      <trkpt lat="62.7248169" lon="17.9217021">
        <ele>107.324</ele>
        <time>2017-10-08T11:42:35Z</time>
      </trkpt>
      <trkpt lat="62.7249509" lon="17.9215259">
        <ele>106.844</ele>
        <time>2017-10-08T11:42:42Z</time>
      </trkpt>
      <trkpt lat="62.7251034" lon="17.9213025">
        <ele>105.402</ele>
        <time>2017-10-08T11:42:50Z</time>
      </trkpt>
      <trkpt lat="62.7252532" lon="17.9210442">
        <ele>105.402</ele>
        <time>2017-10-08T11:42:58Z</time>
      </trkpt>
      <trkpt lat="62.7253546" lon="17.9208219">
        <ele>104.921</ele>
        <time>2017-10-08T11:43:04Z</time>
      </trkpt>
      <trkpt lat="62.7255015" lon="17.9204413">
        <ele>104.44</ele>
        <time>2017-10-08T11:43:13Z</time>
      </trkpt>
      <trkpt lat="62.7255666" lon="17.9202112">
        <ele>104.44</ele>
        <time>2017-10-08T11:43:19Z</time>
      </trkpt>
      <trkpt lat="62.7256342" lon="17.9198947">
        <ele>104.921</ele>
        <time>2017-10-08T11:43:26Z</time>
      </trkpt>
      <trkpt lat="62.7256818" lon="17.9195675">
        <ele>105.402</ele>
        <time>2017-10-08T11:43:33Z</time>
      </trkpt>
      <trkpt lat="62.725698" lon="17.9192291">
        <ele>105.882</ele>
        <time>2017-10-08T11:43:40Z</time>
      </trkpt>
      <trkpt lat="62.7257046" lon="17.9189007">
        <ele>106.363</ele>
        <time>2017-10-08T11:43:47Z</time>
      </trkpt>
      <trkpt lat="62.7256954" lon="17.9184743">
        <ele>107.324</ele>
        <time>2017-10-08T11:43:56Z</time>
      </trkpt>
      <trkpt lat="62.7256724" lon="17.9180434">
        <ele>109.728</ele>
        <time>2017-10-08T11:44:04Z</time>
      </trkpt>
      <trkpt lat="62.7256301" lon="17.9176139">
        <ele>112.131</ele>
        <time>2017-10-08T11:44:12Z</time>
      </trkpt>
      <trkpt lat="62.7255742" lon="17.9172467">
        <ele>114.054</ele>
        <time>2017-10-08T11:44:19Z</time>
      </trkpt>
      <trkpt lat="62.725509" lon="17.9168814">
        <ele>116.457</ele>
        <time>2017-10-08T11:44:26Z</time>
      </trkpt>
      <trkpt lat="62.7254059" lon="17.9164059">
        <ele>119.341</ele>
        <time>2017-10-08T11:44:35Z</time>
      </trkpt>
      <trkpt lat="62.7253062" lon="17.9159921">
        <ele>122.225</ele>
        <time>2017-10-08T11:44:44Z</time>
      </trkpt>
      <trkpt lat="62.7252137" lon="17.9156051">
        <ele>123.667</ele>
        <time>2017-10-08T11:44:52Z</time>
      </trkpt>
      <trkpt lat="62.72511" lon="17.9151586">
        <ele>124.628</ele>
        <time>2017-10-08T11:45:00Z</time>
      </trkpt>
      <trkpt lat="62.7250055" lon="17.9147629">
        <ele>125.589</ele>
        <time>2017-10-08T11:45:08Z</time>
      </trkpt>
      <trkpt lat="62.7249385" lon="17.9144696">
        <ele>127.031</ele>
        <time>2017-10-08T11:45:15Z</time>
      </trkpt>
      <trkpt lat="62.7248374" lon="17.9140889">
        <ele>127.512</ele>
        <time>2017-10-08T11:45:23Z</time>
      </trkpt>
      <trkpt lat="62.7247278" lon="17.9135999">
        <ele>127.512</ele>
        <time>2017-10-08T11:45:31Z</time>
      </trkpt>
      <trkpt lat="62.7245888" lon="17.9129199">
        <ele>127.993</ele>
        <time>2017-10-08T11:45:41Z</time>
      </trkpt>
      <trkpt lat="62.724475" lon="17.9123431">
        <ele>128.473</ele>
        <time>2017-10-08T11:45:49Z</time>
      </trkpt>
      <trkpt lat="62.7243852" lon="17.9117895">
        <ele>128.954</ele>
        <time>2017-10-08T11:45:57Z</time>
      </trkpt>
      <trkpt lat="62.7243396" lon="17.9112057">
        <ele>130.396</ele>
        <time>2017-10-08T11:46:06Z</time>
      </trkpt>
      <trkpt lat="62.7243611" lon="17.9106505">
        <ele>130.877</ele>
        <time>2017-10-08T11:46:15Z</time>
      </trkpt>
      <trkpt lat="62.7244061" lon="17.9102267">
        <ele>131.838</ele>
        <time>2017-10-08T11:46:22Z</time>
      </trkpt>
      <trkpt lat="62.7244883" lon="17.9097769">
        <ele>132.319</ele>
        <time>2017-10-08T11:46:30Z</time>
      </trkpt>
      <trkpt lat="62.7245842" lon="17.9094226">
        <ele>131.357</ele>
        <time>2017-10-08T11:46:38Z</time>
      </trkpt>
      <trkpt lat="62.724662" lon="17.9091548">
        <ele>130.877</ele>
        <time>2017-10-08T11:46:46Z</time>
      </trkpt>
      <trkpt lat="62.724732" lon="17.9089407">
        <ele>128.473</ele>
        <time>2017-10-08T11:46:55Z</time>
      </trkpt>
      <trkpt lat="62.7247951" lon="17.9088086">
        <ele>127.031</ele>
        <time>2017-10-08T11:47:01Z</time>
      </trkpt>
      <trkpt lat="62.7249308" lon="17.908597">
        <ele>126.551</ele>
        <time>2017-10-08T11:47:10Z</time>
      </trkpt>
      <trkpt lat="62.7250643" lon="17.908409">
        <ele>126.551</ele>
        <time>2017-10-08T11:47:16Z</time>
      </trkpt>
      <trkpt lat="62.7253072" lon="17.9081091">
        <ele>126.551</ele>
        <time>2017-10-08T11:47:24Z</time>
      </trkpt>
      <trkpt lat="62.725532" lon="17.9078754">
        <ele>126.07</ele>
        <time>2017-10-08T11:47:31Z</time>
      </trkpt>
      <trkpt lat="62.7257763" lon="17.9076656">
        <ele>126.07</ele>
        <time>2017-10-08T11:47:38Z</time>
      </trkpt>
      <trkpt lat="62.7260478" lon="17.9074776">
        <ele>126.07</ele>
        <time>2017-10-08T11:47:46Z</time>
      </trkpt>
      <trkpt lat="62.7262141" lon="17.9072081">
        <ele>125.589</ele>
        <time>2017-10-08T11:47:52Z</time>
      </trkpt>
      <trkpt lat="62.7263177" lon="17.906854">
        <ele>126.07</ele>
        <time>2017-10-08T11:47:58Z</time>
      </trkpt>
      <trkpt lat="62.7264072" lon="17.9064109">
        <ele>127.993</ele>
        <time>2017-10-08T11:48:06Z</time>
      </trkpt>
      <trkpt lat="62.7264969" lon="17.9059428">
        <ele>127.993</ele>
        <time>2017-10-08T11:48:14Z</time>
      </trkpt>
      <trkpt lat="62.726607" lon="17.9055441">
        <ele>127.993</ele>
        <time>2017-10-08T11:48:21Z</time>
      </trkpt>
      <trkpt lat="62.7267972" lon="17.9052107">
        <ele>129.435</ele>
        <time>2017-10-08T11:48:29Z</time>
      </trkpt>
      <trkpt lat="62.7270138" lon="17.9051137">
        <ele>131.838</ele>
        <time>2017-10-08T11:48:37Z</time>
      </trkpt>
      <trkpt lat="62.7271681" lon="17.9051113">
        <ele>133.28</ele>
        <time>2017-10-08T11:48:45Z</time>
      </trkpt>
      <trkpt lat="62.7273269" lon="17.9051817">
        <ele>132.319</ele>
        <time>2017-10-08T11:48:51Z</time>
      </trkpt>
      <trkpt lat="62.7275976" lon="17.9053804">
        <ele>131.357</ele>
        <time>2017-10-08T11:48:57Z</time>
      </trkpt>
      <trkpt lat="62.7276842" lon="17.9054474">
        <ele>131.357</ele>
        <time>2017-10-08T11:48:59Z</time>
      </trkpt>
      <trkpt lat="62.7278892" lon="17.9054675">
        <ele>131.838</ele>
        <time>2017-10-08T11:49:05Z</time>
      </trkpt>
      <trkpt lat="62.7280981" lon="17.9053309">
        <ele>132.799</ele>
        <time>2017-10-08T11:49:12Z</time>
      </trkpt>
      <trkpt lat="62.7282967" lon="17.9051468">
        <ele>132.799</ele>
        <time>2017-10-08T11:49:18Z</time>
      </trkpt>
      <trkpt lat="62.7285009" lon="17.9048217">
        <ele>131.357</ele>
        <time>2017-10-08T11:49:25Z</time>
      </trkpt>
      <trkpt lat="62.7286195" lon="17.9044653">
        <ele>130.877</ele>
        <time>2017-10-08T11:49:31Z</time>
      </trkpt>
      <trkpt lat="62.7286497" lon="17.9043203">
        <ele>130.877</ele>
        <time>2017-10-08T11:49:34Z</time>
      </trkpt>
      <trkpt lat="62.7286978" lon="17.9043286">
        <ele>129.915</ele>
        <time>2017-10-08T11:49:38Z</time>
      </trkpt>
      <trkpt lat="62.728691" lon="17.9043621">
        <ele>129.435</ele>
        <time>2017-10-08T11:49:39Z</time>
      </trkpt>
      <trkpt lat="62.7286414" lon="17.9045703">
        <ele>129.915</ele>
        <time>2017-10-08T11:49:46Z</time>
      </trkpt>
      <trkpt lat="62.7286407" lon="17.9045782">
        <ele>129.915</ele>
        <time>2017-10-08T11:49:48Z</time>
      </trkpt>
      <trkpt lat="62.7286344" lon="17.9048062">
        <ele>134.722</ele>
        <time>2017-10-08T11:52:54Z</time>
      </trkpt>
      <trkpt lat="62.7286489" lon="17.9046719">
        <ele>136.164</ele>
        <time>2017-10-08T11:52:58Z</time>
      </trkpt>
      <trkpt lat="62.7286543" lon="17.9046844">
        <ele>137.125</ele>
        <time>2017-10-08T11:53:02Z</time>
      </trkpt>
      <trkpt lat="62.7286791" lon="17.9047798">
        <ele>139.528</ele>
        <time>2017-10-08T11:53:11Z</time>
      </trkpt>
      <trkpt lat="62.7286893" lon="17.9047982">
        <ele>139.048</ele>
        <time>2017-10-08T11:53:14Z</time>
      </trkpt>
      <trkpt lat="62.7287184" lon="17.9048626">
        <ele>138.087</ele>
        <time>2017-10-08T11:58:16Z</time>
      </trkpt>
      <trkpt lat="62.7287066" lon="17.9048308">
        <ele>141.451</ele>
        <time>2017-10-08T11:58:20Z</time>
      </trkpt>
      <trkpt lat="62.7286541" lon="17.9045004">
        <ele>139.528</ele>
        <time>2017-10-08T12:07:50Z</time>
      </trkpt>
      <trkpt lat="62.7286931" lon="17.9042997">
        <ele>139.528</ele>
        <time>2017-10-08T12:07:54Z</time>
      </trkpt>
      <trkpt lat="62.7287624" lon="17.9039914">
        <ele>139.048</ele>
        <time>2017-10-08T12:08:00Z</time>
      </trkpt>
      <trkpt lat="62.7289033" lon="17.9033599">
        <ele>138.087</ele>
        <time>2017-10-08T12:08:09Z</time>
      </trkpt>
      <trkpt lat="62.7290588" lon="17.9027689">
        <ele>136.164</ele>
        <time>2017-10-08T12:08:17Z</time>
      </trkpt>
      <trkpt lat="62.7292294" lon="17.9020562">
        <ele>132.799</ele>
        <time>2017-10-08T12:08:25Z</time>
      </trkpt>
      <trkpt lat="62.7294173" lon="17.9011521">
        <ele>129.435</ele>
        <time>2017-10-08T12:08:33Z</time>
      </trkpt>
      <trkpt lat="62.72953" lon="17.9002882">
        <ele>128.473</ele>
        <time>2017-10-08T12:08:40Z</time>
      </trkpt>
      <trkpt lat="62.7295594" lon="17.8996215">
        <ele>129.915</ele>
        <time>2017-10-08T12:08:46Z</time>
      </trkpt>
      <trkpt lat="62.7295742" lon="17.8987288">
        <ele>131.838</ele>
        <time>2017-10-08T12:08:55Z</time>
      </trkpt>
      <trkpt lat="62.7296251" lon="17.8980503">
        <ele>131.357</ele>
        <time>2017-10-08T12:09:03Z</time>
      </trkpt>
      <trkpt lat="62.7297446" lon="17.8975256">
        <ele>130.877</ele>
        <time>2017-10-08T12:09:10Z</time>
      </trkpt>
      <trkpt lat="62.7299378" lon="17.8968894">
        <ele>130.396</ele>
        <time>2017-10-08T12:09:19Z</time>
      </trkpt>
      <trkpt lat="62.7301176" lon="17.8963656">
        <ele>130.877</ele>
        <time>2017-10-08T12:09:27Z</time>
      </trkpt>
      <trkpt lat="62.7302797" lon="17.8959006">
        <ele>134.722</ele>
        <time>2017-10-08T12:09:36Z</time>
      </trkpt>
      <trkpt lat="62.7304331" lon="17.8954831">
        <ele>138.087</ele>
        <time>2017-10-08T12:09:45Z</time>
      </trkpt>
      <trkpt lat="62.730516" lon="17.8952616">
        <ele>140.009</ele>
        <time>2017-10-08T12:09:50Z</time>
      </trkpt>
      <trkpt lat="62.7306378" lon="17.8948676">
        <ele>142.412</ele>
        <time>2017-10-08T12:09:58Z</time>
      </trkpt>
      <trkpt lat="62.730766" lon="17.8944589">
        <ele>144.335</ele>
        <time>2017-10-08T12:10:06Z</time>
      </trkpt>
      <trkpt lat="62.7308942" lon="17.8940571">
        <ele>146.258</ele>
        <time>2017-10-08T12:10:15Z</time>
      </trkpt>
      <trkpt lat="62.7310226" lon="17.8937372">
        <ele>148.18</ele>
        <time>2017-10-08T12:10:24Z</time>
      </trkpt>
      <trkpt lat="62.7311683" lon="17.8934911">
        <ele>146.738</ele>
        <time>2017-10-08T12:10:31Z</time>
      </trkpt>
      <trkpt lat="62.7313418" lon="17.8933054">
        <ele>145.296</ele>
        <time>2017-10-08T12:10:37Z</time>
      </trkpt>
      <trkpt lat="62.7315634" lon="17.8930922">
        <ele>143.854</ele>
        <time>2017-10-08T12:10:44Z</time>
      </trkpt>
      <trkpt lat="62.7317164" lon="17.8929504">
        <ele>141.932</ele>
        <time>2017-10-08T12:10:50Z</time>
      </trkpt>
      <trkpt lat="62.7318127" lon="17.8928957">
        <ele>142.412</ele>
        <time>2017-10-08T12:10:56Z</time>
      </trkpt>
      <trkpt lat="62.7318447" lon="17.892885">
        <ele>142.893</ele>
        <time>2017-10-08T12:10:58Z</time>
      </trkpt>
      <trkpt lat="62.7318499" lon="17.8928736">
        <ele>143.374</ele>
        <time>2017-10-08T12:11:01Z</time>
      </trkpt>
      <trkpt lat="62.7319489" lon="17.8928513">
        <ele>144.816</ele>
        <time>2017-10-08T12:11:43Z</time>
      </trkpt>
      <trkpt lat="62.7320664" lon="17.8927993">
        <ele>143.374</ele>
        <time>2017-10-08T12:11:47Z</time>
      </trkpt>
      <trkpt lat="62.7322292" lon="17.8927301">
        <ele>141.932</ele>
        <time>2017-10-08T12:11:52Z</time>
      </trkpt>
      <trkpt lat="62.7323967" lon="17.8927643">
        <ele>140.009</ele>
        <time>2017-10-08T12:11:57Z</time>
      </trkpt>
      <trkpt lat="62.7324903" lon="17.8928731">
        <ele>138.567</ele>
        <time>2017-10-08T12:12:01Z</time>
      </trkpt>
      <trkpt lat="62.7325495" lon="17.8931459">
        <ele>138.087</ele>
        <time>2017-10-08T12:12:06Z</time>
      </trkpt>
      <trkpt lat="62.73263" lon="17.8937638">
        <ele>138.087</ele>
        <time>2017-10-08T12:12:15Z</time>
      </trkpt>
      <trkpt lat="62.7327174" lon="17.8944028">
        <ele>140.009</ele>
        <time>2017-10-08T12:12:23Z</time>
      </trkpt>
      <trkpt lat="62.7328253" lon="17.8952935">
        <ele>142.412</ele>
        <time>2017-10-08T12:12:33Z</time>
      </trkpt>
      <trkpt lat="62.7329116" lon="17.896144">
        <ele>142.893</ele>
        <time>2017-10-08T12:12:42Z</time>
      </trkpt>
      <trkpt lat="62.732991" lon="17.8970603">
        <ele>142.412</ele>
        <time>2017-10-08T12:12:50Z</time>
      </trkpt>
      <trkpt lat="62.7330746" lon="17.8981342">
        <ele>140.49</ele>
        <time>2017-10-08T12:12:58Z</time>
      </trkpt>
      <trkpt lat="62.7332059" lon="17.8997913">
        <ele>136.164</ele>
        <time>2017-10-08T12:13:09Z</time>
      </trkpt>
      <trkpt lat="62.7333655" lon="17.9014007">
        <ele>131.838</ele>
        <time>2017-10-08T12:13:19Z</time>
      </trkpt>
      <trkpt lat="62.7335605" lon="17.9027151">
        <ele>128.954</ele>
        <time>2017-10-08T12:13:27Z</time>
      </trkpt>
      <trkpt lat="62.733792" lon="17.9039881">
        <ele>126.07</ele>
        <time>2017-10-08T12:13:35Z</time>
      </trkpt>
      <trkpt lat="62.7340209" lon="17.9052002">
        <ele>123.186</ele>
        <time>2017-10-08T12:13:43Z</time>
      </trkpt>
      <trkpt lat="62.7342099" lon="17.9062012">
        <ele>120.302</ele>
        <time>2017-10-08T12:13:50Z</time>
      </trkpt>
      <trkpt lat="62.7344875" lon="17.9074666">
        <ele>117.899</ele>
        <time>2017-10-08T12:13:59Z</time>
      </trkpt>
      <trkpt lat="62.7346865" lon="17.9081723">
        <ele>115.976</ele>
        <time>2017-10-08T12:14:04Z</time>
      </trkpt>
      <trkpt lat="62.735008" lon="17.9087384">
        <ele>113.573</ele>
        <time>2017-10-08T12:14:09Z</time>
      </trkpt>
      <trkpt lat="62.7353335" lon="17.9089695">
        <ele>111.17</ele>
        <time>2017-10-08T12:14:13Z</time>
      </trkpt>
      <trkpt lat="62.7356873" lon="17.9089487">
        <ele>108.286</ele>
        <time>2017-10-08T12:14:17Z</time>
      </trkpt>
      <trkpt lat="62.7360217" lon="17.9086705">
        <ele>104.921</ele>
        <time>2017-10-08T12:14:21Z</time>
      </trkpt>
      <trkpt lat="62.7360965" lon="17.908569">
        <ele>103.96</ele>
        <time>2017-10-08T12:14:22Z</time>
      </trkpt>
      <trkpt lat="62.7365653" lon="17.9078089">
        <ele>100.115</ele>
        <time>2017-10-08T12:14:29Z</time>
      </trkpt>
      <trkpt lat="62.7369224" lon="17.9072175">
        <ele>96.7499</ele>
        <time>2017-10-08T12:14:35Z</time>
      </trkpt>
      <trkpt lat="62.7373459" lon="17.9065747">
        <ele>94.8271</ele>
        <time>2017-10-08T12:14:42Z</time>
      </trkpt>
      <trkpt lat="62.7377607" lon="17.9061946">
        <ele>91.9432</ele>
        <time>2017-10-08T12:14:48Z</time>
      </trkpt>
      <trkpt lat="62.7381489" lon="17.9060711">
        <ele>89.5399</ele>
        <time>2017-10-08T12:14:53Z</time>
      </trkpt>
      <trkpt lat="62.7386178" lon="17.9061442">
        <ele>87.1366</ele>
        <time>2017-10-08T12:14:59Z</time>
      </trkpt>
      <trkpt lat="62.7389855" lon="17.9064162">
        <ele>86.1753</ele>
        <time>2017-10-08T12:15:04Z</time>
      </trkpt>
      <trkpt lat="62.7390511" lon="17.9064726">
        <ele>85.6946</ele>
        <time>2017-10-08T12:15:05Z</time>
      </trkpt>
      <trkpt lat="62.7393268" lon="17.9068512">
        <ele>84.2527</ele>
        <time>2017-10-08T12:15:11Z</time>
      </trkpt>
      <trkpt lat="62.739477" lon="17.9070891">
        <ele>84.2527</ele>
        <time>2017-10-08T12:15:16Z</time>
      </trkpt>
      <trkpt lat="62.7396864" lon="17.9073717">
        <ele>83.2914</ele>
        <time>2017-10-08T12:15:24Z</time>
      </trkpt>
      <trkpt lat="62.7399112" lon="17.9076371">
        <ele>82.3301</ele>
        <time>2017-10-08T12:15:31Z</time>
      </trkpt>
      <trkpt lat="62.7401572" lon="17.9078821">
        <ele>81.3688</ele>
        <time>2017-10-08T12:15:38Z</time>
      </trkpt>
      <trkpt lat="62.7402883" lon="17.9080006">
        <ele>80.8882</ele>
        <time>2017-10-08T12:15:43Z</time>
      </trkpt>
      <trkpt lat="62.7403158" lon="17.9080457">
        <ele>80.4075</ele>
        <time>2017-10-08T12:15:45Z</time>
      </trkpt>
      <trkpt lat="62.740278" lon="17.9081826">
        <ele>79.9266</ele>
        <time>2017-10-08T12:15:50Z</time>
      </trkpt>
      <trkpt lat="62.7402199" lon="17.9081494">
        <ele>78.9655</ele>
        <time>2017-10-08T12:15:53Z</time>
      </trkpt>
      <trkpt lat="62.7401708" lon="17.9081185">
        <ele>78.9655</ele>
        <time>2017-10-08T12:15:56Z</time>
      </trkpt>
      <trkpt lat="62.7401173" lon="17.9081758">
        <ele>78.4847</ele>
        <time>2017-10-08T12:16:02Z</time>
      </trkpt>
      <trkpt lat="62.7401159" lon="17.9081836">
        <ele>78.4847</ele>
        <time>2017-10-08T12:16:04Z</time>
      </trkpt>
      <trkpt lat="62.7400997" lon="17.9083018">
        <ele>81.3688</ele>
        <time>2017-10-08T12:16:37Z</time>
      </trkpt>
      <trkpt lat="62.740092" lon="17.9086519">
        <ele>77.0428</ele>
        <time>2017-10-08T12:16:43Z</time>
      </trkpt>
      <trkpt lat="62.7400816" lon="17.9090498">
        <ele>74.6395</ele>
        <time>2017-10-08T12:16:50Z</time>
      </trkpt>
      <trkpt lat="62.7400741" lon="17.9092999">
        <ele>72.7169</ele>
        <time>2017-10-08T12:16:55Z</time>
      </trkpt>
      <trkpt lat="62.7400684" lon="17.9097335">
        <ele>68.3909</ele>
        <time>2017-10-08T12:17:03Z</time>
      </trkpt>
      <trkpt lat="62.7400857" lon="17.9101456">
        <ele>65.0264</ele>
        <time>2017-10-08T12:17:09Z</time>
      </trkpt>
      <trkpt lat="62.7401137" lon="17.9106126">
        <ele>62.6229</ele>
        <time>2017-10-08T12:17:14Z</time>
      </trkpt>
      <trkpt lat="62.7401418" lon="17.9108133">
        <ele>62.1423</ele>
        <time>2017-10-08T12:17:16Z</time>
      </trkpt>
      <trkpt lat="62.7401878" lon="17.9113469">
        <ele>62.1423</ele>
        <time>2017-10-08T12:17:22Z</time>
      </trkpt>
      <trkpt lat="62.7402007" lon="17.9115331">
        <ele>62.6229</ele>
        <time>2017-10-08T12:17:24Z</time>
      </trkpt>
      <trkpt lat="62.7402241" lon="17.9119094">
        <ele>63.1036</ele>
        <time>2017-10-08T12:17:28Z</time>
      </trkpt>
      <trkpt lat="62.7402795" lon="17.9123915">
        <ele>65.0264</ele>
        <time>2017-10-08T12:17:35Z</time>
      </trkpt>
      <trkpt lat="62.7403079" lon="17.9127343">
        <ele>65.9877</ele>
        <time>2017-10-08T12:17:42Z</time>
      </trkpt>
      <trkpt lat="62.7403101" lon="17.9127872">
        <ele>65.5071</ele>
        <time>2017-10-08T12:17:44Z</time>
      </trkpt>
      <trkpt lat="62.7403271" lon="17.9129734">
        <ele>65.9877</ele>
        <time>2017-10-08T12:17:51Z</time>
      </trkpt>
      <trkpt lat="62.7403541" lon="17.9133262">
        <ele>65.0264</ele>
        <time>2017-10-08T12:17:57Z</time>
      </trkpt>
      <trkpt lat="62.740381" lon="17.9136802">
        <ele>64.0651</ele>
        <time>2017-10-08T12:18:03Z</time>
      </trkpt>
      <trkpt lat="62.7403892" lon="17.914117">
        <ele>64.0651</ele>
        <time>2017-10-08T12:18:09Z</time>
      </trkpt>
      <trkpt lat="62.7404053" lon="17.9145729">
        <ele>62.6229</ele>
        <time>2017-10-08T12:18:15Z</time>
      </trkpt>
      <trkpt lat="62.7404162" lon="17.9148991">
        <ele>61.6617</ele>
        <time>2017-10-08T12:18:19Z</time>
      </trkpt>
      <trkpt lat="62.7404367" lon="17.9152627">
        <ele>61.181</ele>
        <time>2017-10-08T12:18:24Z</time>
      </trkpt>
      <trkpt lat="62.7404436" lon="17.9157228">
        <ele>60.2197</ele>
        <time>2017-10-08T12:18:29Z</time>
      </trkpt>
      <trkpt lat="62.7404792" lon="17.9160031">
        <ele>59.2584</ele>
        <time>2017-10-08T12:18:33Z</time>
      </trkpt>
      <trkpt lat="62.7405818" lon="17.9162445">
        <ele>60.2197</ele>
        <time>2017-10-08T12:18:38Z</time>
      </trkpt>
      <trkpt lat="62.7407771" lon="17.9165454">
        <ele>61.181</ele>
        <time>2017-10-08T12:18:45Z</time>
      </trkpt>
      <trkpt lat="62.7409467" lon="17.9167513">
        <ele>62.1423</ele>
        <time>2017-10-08T12:18:51Z</time>
      </trkpt>
      <trkpt lat="62.7410902" lon="17.9169174">
        <ele>64.0651</ele>
        <time>2017-10-08T12:18:57Z</time>
      </trkpt>
      <trkpt lat="62.7412224" lon="17.9171001">
        <ele>66.4683</ele>
        <time>2017-10-08T12:19:04Z</time>
      </trkpt>
      <trkpt lat="62.7413464" lon="17.9172391">
        <ele>66.4683</ele>
        <time>2017-10-08T12:19:11Z</time>
      </trkpt>
      <trkpt lat="62.7414643" lon="17.9173923">
        <ele>65.9877</ele>
        <time>2017-10-08T12:19:19Z</time>
      </trkpt>
      <trkpt lat="62.7415548" lon="17.9174845">
        <ele>66.4683</ele>
        <time>2017-10-08T12:19:24Z</time>
      </trkpt>
      <trkpt lat="62.7416518" lon="17.9175963">
        <ele>67.9103</ele>
        <time>2017-10-08T12:19:29Z</time>
      </trkpt>
      <trkpt lat="62.7417646" lon="17.9177734">
        <ele>70.7942</ele>
        <time>2017-10-08T12:19:36Z</time>
      </trkpt>
      <trkpt lat="62.7418352" lon="17.9178699">
        <ele>72.7169</ele>
        <time>2017-10-08T12:19:40Z</time>
      </trkpt>
      <trkpt lat="62.7419251" lon="17.9179246">
        <ele>73.1976</ele>
        <time>2017-10-08T12:19:46Z</time>
      </trkpt>
      <trkpt lat="62.7419758" lon="17.917957">
        <ele>73.6782</ele>
        <time>2017-10-08T12:19:49Z</time>
      </trkpt>
      <trkpt lat="62.7421169" lon="17.9180977">
        <ele>75.6008</ele>
        <time>2017-10-08T12:19:56Z</time>
      </trkpt>
      <trkpt lat="62.7422721" lon="17.9182464">
        <ele>76.0814</ele>
        <time>2017-10-08T12:20:03Z</time>
      </trkpt>
      <trkpt lat="62.7424195" lon="17.9184769">
        <ele>76.0814</ele>
        <time>2017-10-08T12:20:10Z</time>
      </trkpt>
      <trkpt lat="62.742491" lon="17.9187241">
        <ele>76.5621</ele>
        <time>2017-10-08T12:20:16Z</time>
      </trkpt>
      <trkpt lat="62.7424993" lon="17.9191209">
        <ele>76.5621</ele>
        <time>2017-10-08T12:20:23Z</time>
      </trkpt>
      <trkpt lat="62.7423623" lon="17.9191865">
        <ele>76.5621</ele>
        <time>2017-10-08T12:20:28Z</time>
      </trkpt>
      <trkpt lat="62.7421353" lon="17.9191285">
        <ele>75.6008</ele>
        <time>2017-10-08T12:20:35Z</time>
      </trkpt>
      <trkpt lat="62.7418411" lon="17.9191178">
        <ele>75.1202</ele>
        <time>2017-10-08T12:20:43Z</time>
      </trkpt>
      <trkpt lat="62.7415564" lon="17.9191355">
        <ele>75.1202</ele>
        <time>2017-10-08T12:20:51Z</time>
      </trkpt>
      <trkpt lat="62.7411729" lon="17.9191613">
        <ele>76.5621</ele>
        <time>2017-10-08T12:21:01Z</time>
      </trkpt>
      <trkpt lat="62.7409403" lon="17.9192322">
        <ele>77.5234</ele>
        <time>2017-10-08T12:21:08Z</time>
      </trkpt>
      <trkpt lat="62.740693" lon="17.9194182">
        <ele>78.4847</ele>
        <time>2017-10-08T12:21:16Z</time>
      </trkpt>
      <trkpt lat="62.7403924" lon="17.91967">
        <ele>77.5234</ele>
        <time>2017-10-08T12:21:24Z</time>
      </trkpt>
      <trkpt lat="62.7399529" lon="17.9200459">
        <ele>77.5234</ele>
        <time>2017-10-08T12:21:35Z</time>
      </trkpt>
      <trkpt lat="62.7395909" lon="17.9203461">
        <ele>78.004</ele>
        <time>2017-10-08T12:21:44Z</time>
      </trkpt>
      <trkpt lat="62.739318" lon="17.9205739">
        <ele>78.004</ele>
        <time>2017-10-08T12:21:51Z</time>
      </trkpt>
      <trkpt lat="62.7389581" lon="17.9208831">
        <ele>77.0428</ele>
        <time>2017-10-08T12:21:59Z</time>
      </trkpt>
      <trkpt lat="62.7384761" lon="17.9212792">
        <ele>74.6395</ele>
        <time>2017-10-08T12:22:08Z</time>
      </trkpt>
      <trkpt lat="62.7380541" lon="17.9216858">
        <ele>70.3135</ele>
        <time>2017-10-08T12:22:16Z</time>
      </trkpt>
      <trkpt lat="62.7377708" lon="17.9223484">
        <ele>66.949</ele>
        <time>2017-10-08T12:22:22Z</time>
      </trkpt>
      <trkpt lat="62.7374722" lon="17.923395">
        <ele>62.6229</ele>
        <time>2017-10-08T12:22:29Z</time>
      </trkpt>
      <trkpt lat="62.737123" lon="17.924574">
        <ele>59.2584</ele>
        <time>2017-10-08T12:22:37Z</time>
      </trkpt>
      <trkpt lat="62.7367923" lon="17.9259012">
        <ele>57.8165</ele>
        <time>2017-10-08T12:22:46Z</time>
      </trkpt>
      <trkpt lat="62.7364991" lon="17.9270412">
        <ele>56.3745</ele>
        <time>2017-10-08T12:22:54Z</time>
      </trkpt>
      <trkpt lat="62.7362567" lon="17.9280804">
        <ele>56.3745</ele>
        <time>2017-10-08T12:23:02Z</time>
      </trkpt>
      <trkpt lat="62.736019" lon="17.9291618">
        <ele>56.8551</ele>
        <time>2017-10-08T12:23:11Z</time>
      </trkpt>
      <trkpt lat="62.7358515" lon="17.929953">
        <ele>55.8938</ele>
        <time>2017-10-08T12:23:17Z</time>
      </trkpt>
      <trkpt lat="62.7356434" lon="17.9309779">
        <ele>54.9324</ele>
        <time>2017-10-08T12:23:24Z</time>
      </trkpt>
      <trkpt lat="62.7354527" lon="17.9318746">
        <ele>52.0486</ele>
        <time>2017-10-08T12:23:30Z</time>
      </trkpt>
      <trkpt lat="62.7351972" lon="17.9326528">
        <ele>49.1646</ele>
        <time>2017-10-08T12:23:35Z</time>
      </trkpt>
      <trkpt lat="62.7349186" lon="17.9333501">
        <ele>47.2418</ele>
        <time>2017-10-08T12:23:40Z</time>
      </trkpt>
      <trkpt lat="62.7347443" lon="17.933978">
        <ele>45.7999</ele>
        <time>2017-10-08T12:23:44Z</time>
      </trkpt>
      <trkpt lat="62.7346332" lon="17.9345187">
        <ele>43.3966</ele>
        <time>2017-10-08T12:23:48Z</time>
      </trkpt>
      <trkpt lat="62.7344839" lon="17.9353634">
        <ele>40.9934</ele>
        <time>2017-10-08T12:23:54Z</time>
      </trkpt>
      <trkpt lat="62.7342638" lon="17.9366093">
        <ele>37.1481</ele>
        <time>2017-10-08T12:24:02Z</time>
      </trkpt>
      <trkpt lat="62.7340581" lon="17.937792">
        <ele>31.3801</ele>
        <time>2017-10-08T12:24:09Z</time>
      </trkpt>
      <trkpt lat="62.7337753" lon="17.9390072">
        <ele>28.4962</ele>
        <time>2017-10-08T12:24:16Z</time>
      </trkpt>
      <trkpt lat="62.7333932" lon="17.9397808">
        <ele>23.6896</ele>
        <time>2017-10-08T12:24:22Z</time>
      </trkpt>
      <trkpt lat="62.7330183" lon="17.9404763">
        <ele>18.4023</ele>
        <time>2017-10-08T12:24:28Z</time>
      </trkpt>
      <trkpt lat="62.7329689" lon="17.9405806">
        <ele>17.9218</ele>
        <time>2017-10-08T12:24:29Z</time>
      </trkpt>
      <trkpt lat="62.7328195" lon="17.9410128">
        <ele>15.5184</ele>
        <time>2017-10-08T12:24:33Z</time>
      </trkpt>
      <trkpt lat="62.7326172" lon="17.9412952">
        <ele>14.0764</ele>
        <time>2017-10-08T12:24:37Z</time>
      </trkpt>
      <trkpt lat="62.7325509" lon="17.9413122">
        <ele>13.5958</ele>
        <time>2017-10-08T12:24:38Z</time>
      </trkpt>
      <trkpt lat="62.7320393" lon="17.9414922">
        <ele>11.1925</ele>
        <time>2017-10-08T12:24:45Z</time>
      </trkpt>
      <trkpt lat="62.7315375" lon="17.9418241">
        <ele>6.38586</ele>
        <time>2017-10-08T12:24:51Z</time>
      </trkpt>
      <trkpt lat="62.731364" lon="17.9419854">
        <ele>5.90527</ele>
        <time>2017-10-08T12:24:53Z</time>
      </trkpt>
      <trkpt lat="62.7310562" lon="17.9424618">
        <ele>4.94385</ele>
        <time>2017-10-08T12:24:57Z</time>
      </trkpt>
      <trkpt lat="62.7307852" lon="17.9432006">
        <ele>5.42456</ele>
        <time>2017-10-08T12:25:02Z</time>
      </trkpt>
      <trkpt lat="62.7304714" lon="17.9440616">
        <ele>7.34717</ele>
        <time>2017-10-08T12:25:09Z</time>
      </trkpt>
      <trkpt lat="62.7301794" lon="17.9447914">
        <ele>8.30859</ele>
        <time>2017-10-08T12:25:16Z</time>
      </trkpt>
      <trkpt lat="62.730026" lon="17.9452114">
        <ele>9.2699</ele>
        <time>2017-10-08T12:25:21Z</time>
      </trkpt>
      <trkpt lat="62.7298841" lon="17.9456475">
        <ele>10.2312</ele>
        <time>2017-10-08T12:25:27Z</time>
      </trkpt>
      <trkpt lat="62.7298642" lon="17.9457143">
        <ele>10.2312</ele>
        <time>2017-10-08T12:25:28Z</time>
      </trkpt>
      <trkpt lat="62.7296891" lon="17.9462624">
        <ele>13.1151</ele>
        <time>2017-10-08T12:25:35Z</time>
      </trkpt>
      <trkpt lat="62.7295694" lon="17.9466718">
        <ele>13.5958</ele>
        <time>2017-10-08T12:25:40Z</time>
      </trkpt>
      <trkpt lat="62.7293292" lon="17.9474297">
        <ele>10.2312</ele>
        <time>2017-10-08T12:25:48Z</time>
      </trkpt>
      <trkpt lat="62.7290563" lon="17.9482047">
        <ele>9.75061</ele>
        <time>2017-10-08T12:25:55Z</time>
      </trkpt>
      <trkpt lat="62.7287743" lon="17.948796">
        <ele>8.30859</ele>
        <time>2017-10-08T12:26:01Z</time>
      </trkpt>
      <trkpt lat="62.7284273" lon="17.9494419">
        <ele>6.86646</ele>
        <time>2017-10-08T12:26:08Z</time>
      </trkpt>
      <trkpt lat="62.7282117" lon="17.9498993">
        <ele>6.86646</ele>
        <time>2017-10-08T12:26:14Z</time>
      </trkpt>
      <trkpt lat="62.72796" lon="17.9505775">
        <ele>7.34717</ele>
        <time>2017-10-08T12:26:21Z</time>
      </trkpt>
      <trkpt lat="62.7276999" lon="17.9515328">
        <ele>8.30859</ele>
        <time>2017-10-08T12:26:30Z</time>
      </trkpt>
      <trkpt lat="62.7274581" lon="17.9523124">
        <ele>7.34717</ele>
        <time>2017-10-08T12:26:37Z</time>
      </trkpt>
      <trkpt lat="62.7271987" lon="17.9530251">
        <ele>6.86646</ele>
        <time>2017-10-08T12:26:43Z</time>
      </trkpt>
      <trkpt lat="62.7269816" lon="17.9535224">
        <ele>8.30859</ele>
        <time>2017-10-08T12:26:49Z</time>
      </trkpt>
      <trkpt lat="62.7267713" lon="17.9538869">
        <ele>9.75061</ele>
        <time>2017-10-08T12:26:55Z</time>
      </trkpt>
      <trkpt lat="62.7266025" lon="17.9541267">
        <ele>8.30859</ele>
        <time>2017-10-08T12:26:59Z</time>
      </trkpt>
      <trkpt lat="62.7262664" lon="17.9546864">
        <ele>6.86646</ele>
        <time>2017-10-08T12:27:06Z</time>
      </trkpt>
      <trkpt lat="62.7259235" lon="17.9553173">
        <ele>7.82788</ele>
        <time>2017-10-08T12:27:13Z</time>
      </trkpt>
      <trkpt lat="62.7255855" lon="17.956101">
        <ele>9.75061</ele>
        <time>2017-10-08T12:27:22Z</time>
      </trkpt>
      <trkpt lat="62.7253814" lon="17.9566287">
        <ele>8.30859</ele>
        <time>2017-10-08T12:27:27Z</time>
      </trkpt>
      <trkpt lat="62.7251342" lon="17.9571541">
        <ele>7.82788</ele>
        <time>2017-10-08T12:27:32Z</time>
      </trkpt>
      <trkpt lat="62.7247749" lon="17.957558">
        <ele>7.82788</ele>
        <time>2017-10-08T12:27:38Z</time>
      </trkpt>
      <trkpt lat="62.7247039" lon="17.9576474">
        <ele>7.82788</ele>
        <time>2017-10-08T12:27:39Z</time>
      </trkpt>
      <trkpt lat="62.724393" lon="17.9582361">
        <ele>8.78918</ele>
        <time>2017-10-08T12:27:45Z</time>
      </trkpt>
      <trkpt lat="62.7241345" lon="17.9586814">
        <ele>10.2312</ele>
        <time>2017-10-08T12:27:51Z</time>
      </trkpt>
      <trkpt lat="62.7239592" lon="17.9588985">
        <ele>10.2312</ele>
        <time>2017-10-08T12:27:56Z</time>
      </trkpt>
      <trkpt lat="62.7237126" lon="17.9592611">
        <ele>9.75061</ele>
        <time>2017-10-08T12:28:02Z</time>
      </trkpt>
      <trkpt lat="62.7234737" lon="17.9597499">
        <ele>8.78918</ele>
        <time>2017-10-08T12:28:07Z</time>
      </trkpt>
      <trkpt lat="62.7231655" lon="17.9605513">
        <ele>8.30859</ele>
        <time>2017-10-08T12:28:14Z</time>
      </trkpt>
      <trkpt lat="62.722993" lon="17.9609352">
        <ele>10.2312</ele>
        <time>2017-10-08T12:28:19Z</time>
      </trkpt>
      <trkpt lat="62.7227975" lon="17.9613225">
        <ele>12.6344</ele>
        <time>2017-10-08T12:28:26Z</time>
      </trkpt>
      <trkpt lat="62.7225962" lon="17.9617022">
        <ele>12.1538</ele>
        <time>2017-10-08T12:28:32Z</time>
      </trkpt>
      <trkpt lat="62.7222831" lon="17.9622307">
        <ele>12.6344</ele>
        <time>2017-10-08T12:28:40Z</time>
      </trkpt>
      <trkpt lat="62.7220345" lon="17.9624795">
        <ele>13.1151</ele>
        <time>2017-10-08T12:28:47Z</time>
      </trkpt>
      <trkpt lat="62.7218288" lon="17.9626755">
        <ele>11.1925</ele>
        <time>2017-10-08T12:28:51Z</time>
      </trkpt>
      <trkpt lat="62.7214182" lon="17.9630434">
        <ele>8.78918</ele>
        <time>2017-10-08T12:28:57Z</time>
      </trkpt>
      <trkpt lat="62.720882" lon="17.9635485">
        <ele>7.34717</ele>
        <time>2017-10-08T12:29:04Z</time>
      </trkpt>
      <trkpt lat="62.7205333" lon="17.9638542">
        <ele>8.78918</ele>
        <time>2017-10-08T12:29:10Z</time>
      </trkpt>
      <trkpt lat="62.7202822" lon="17.9640715">
        <ele>11.1925</ele>
        <time>2017-10-08T12:29:16Z</time>
      </trkpt>
      <trkpt lat="62.7200442" lon="17.9642919">
        <ele>12.6344</ele>
        <time>2017-10-08T12:29:23Z</time>
      </trkpt>
      <trkpt lat="62.7198309" lon="17.9645089">
        <ele>14.557</ele>
        <time>2017-10-08T12:29:30Z</time>
      </trkpt>
      <trkpt lat="62.719658" lon="17.9646957">
        <ele>14.0764</ele>
        <time>2017-10-08T12:29:36Z</time>
      </trkpt>
      <trkpt lat="62.719515" lon="17.9648135">
        <ele>14.557</ele>
        <time>2017-10-08T12:29:41Z</time>
      </trkpt>
      <trkpt lat="62.7192602" lon="17.9649104">
        <ele>16.4797</ele>
        <time>2017-10-08T12:29:50Z</time>
      </trkpt>
      <trkpt lat="62.719035" lon="17.9649128">
        <ele>17.9218</ele>
        <time>2017-10-08T12:29:58Z</time>
      </trkpt>
      <trkpt lat="62.7187485" lon="17.9648959">
        <ele>21.2864</ele>
        <time>2017-10-08T12:30:08Z</time>
      </trkpt>
      <trkpt lat="62.7185877" lon="17.9649682">
        <ele>23.6896</ele>
        <time>2017-10-08T12:30:14Z</time>
      </trkpt>
      <trkpt lat="62.7183963" lon="17.9651363">
        <ele>26.5736</ele>
        <time>2017-10-08T12:30:22Z</time>
      </trkpt>
      <trkpt lat="62.7181875" lon="17.9654714">
        <ele>30.4188</ele>
        <time>2017-10-08T12:30:32Z</time>
      </trkpt>
      <trkpt lat="62.7179639" lon="17.9658739">
        <ele>31.8607</ele>
        <time>2017-10-08T12:30:42Z</time>
      </trkpt>
      <trkpt lat="62.7177552" lon="17.9662758">
        <ele>33.7834</ele>
        <time>2017-10-08T12:30:51Z</time>
      </trkpt>
      <trkpt lat="62.7175352" lon="17.9666653">
        <ele>35.2255</ele>
        <time>2017-10-08T12:31:01Z</time>
      </trkpt>
      <trkpt lat="62.717428" lon="17.9668256">
        <ele>35.7061</ele>
        <time>2017-10-08T12:31:07Z</time>
      </trkpt>
      <trkpt lat="62.7173275" lon="17.9669761">
        <ele>35.7061</ele>
        <time>2017-10-08T12:31:14Z</time>
      </trkpt>
      <trkpt lat="62.7172793" lon="17.9670564">
        <ele>35.7061</ele>
        <time>2017-10-08T12:31:19Z</time>
      </trkpt>
      <trkpt lat="62.7172311" lon="17.9671248">
        <ele>35.2255</ele>
        <time>2017-10-08T12:31:26Z</time>
      </trkpt>
      <trkpt lat="62.7172108" lon="17.9672039">
        <ele>36.1868</ele>
        <time>2017-10-08T12:32:09Z</time>
      </trkpt>
      <trkpt lat="62.7171419" lon="17.9673683">
        <ele>35.7061</ele>
        <time>2017-10-08T12:32:13Z</time>
      </trkpt>
      <trkpt lat="62.7169929" lon="17.9676599">
        <ele>35.2255</ele>
        <time>2017-10-08T12:32:19Z</time>
      </trkpt>
      <trkpt lat="62.716795" lon="17.9680793">
        <ele>34.2642</ele>
        <time>2017-10-08T12:32:25Z</time>
      </trkpt>
      <trkpt lat="62.716536" lon="17.9686286">
        <ele>32.8223</ele>
        <time>2017-10-08T12:32:31Z</time>
      </trkpt>
      <trkpt lat="62.7161785" lon="17.9694541">
        <ele>30.4188</ele>
        <time>2017-10-08T12:32:38Z</time>
      </trkpt>
      <trkpt lat="62.7159414" lon="17.9701654">
        <ele>27.5349</ele>
        <time>2017-10-08T12:32:43Z</time>
      </trkpt>
      <trkpt lat="62.7156248" lon="17.9713228">
        <ele>22.7283</ele>
        <time>2017-10-08T12:32:50Z</time>
      </trkpt>
      <trkpt lat="62.7152301" lon="17.9728049">
        <ele>16.9604</ele>
        <time>2017-10-08T12:32:58Z</time>
      </trkpt>
      <trkpt lat="62.7147316" lon="17.974727">
        <ele>9.2699</ele>
        <time>2017-10-08T12:33:08Z</time>
      </trkpt>
      <trkpt lat="62.7144323" lon="17.9758369">
        <ele>4.94385</ele>
        <time>2017-10-08T12:33:14Z</time>
      </trkpt>
      <trkpt lat="62.714166" lon="17.9763661">
        <ele>3.50195</ele>
        <time>2017-10-08T12:33:18Z</time>
      </trkpt>
      <trkpt lat="62.7139416" lon="17.9765149">
        <ele>2.54065</ele>
        <time>2017-10-08T12:33:21Z</time>
      </trkpt>
      <trkpt lat="62.7138701" lon="17.976531">
        <ele>2.54065</ele>
        <time>2017-10-08T12:33:22Z</time>
      </trkpt>
      <trkpt lat="62.7133486" lon="17.9765542">
        <ele>2.54065</ele>
        <time>2017-10-08T12:33:30Z</time>
      </trkpt>
      <trkpt lat="62.7130176" lon="17.9766101">
        <ele>1.57935</ele>
        <time>2017-10-08T12:33:36Z</time>
      </trkpt>
      <trkpt lat="62.7127901" lon="17.9767743">
        <ele>0.618042</ele>
        <time>2017-10-08T12:33:41Z</time>
      </trkpt>
      <trkpt lat="62.7126033" lon="17.9767372">
        <ele>0</ele>
        <time>2017-10-08T12:33:46Z</time>
      </trkpt>
      <trkpt lat="62.712481" lon="17.9764874">
        <ele>0</ele>
        <time>2017-10-08T12:33:50Z</time>
      </trkpt>
      <trkpt lat="62.7122855" lon="17.9758288">
        <ele>2.06006</ele>
        <time>2017-10-08T12:34:00Z</time>
      </trkpt>
      <trkpt lat="62.7121687" lon="17.9754223">
        <ele>3.50195</ele>
        <time>2017-10-08T12:34:07Z</time>
      </trkpt>
      <trkpt lat="62.7120096" lon="17.9748458">
        <ele>6.38586</ele>
        <time>2017-10-08T12:34:18Z</time>
      </trkpt>
      <trkpt lat="62.7119173" lon="17.9744284">
        <ele>9.2699</ele>
        <time>2017-10-08T12:34:26Z</time>
      </trkpt>
      <trkpt lat="62.7118305" lon="17.9739766">
        <ele>11.1925</ele>
        <time>2017-10-08T12:34:35Z</time>
      </trkpt>
      <trkpt lat="62.7117561" lon="17.9735369">
        <ele>13.1151</ele>
        <time>2017-10-08T12:34:44Z</time>
      </trkpt>
      <trkpt lat="62.7116942" lon="17.9731208">
        <ele>13.1151</ele>
        <time>2017-10-08T12:34:53Z</time>
      </trkpt>
      <trkpt lat="62.7116454" lon="17.9727958">
        <ele>13.5958</ele>
        <time>2017-10-08T12:35:01Z</time>
      </trkpt>
      <trkpt lat="62.711603" lon="17.9724991">
        <ele>15.5184</ele>
        <time>2017-10-08T12:35:09Z</time>
      </trkpt>
      <trkpt lat="62.7115507" lon="17.9721816">
        <ele>19.3638</ele>
        <time>2017-10-08T12:35:18Z</time>
      </trkpt>
      <trkpt lat="62.7114785" lon="17.9719123">
        <ele>21.767</ele>
        <time>2017-10-08T12:35:26Z</time>
      </trkpt>
      <trkpt lat="62.7113787" lon="17.9716042">
        <ele>24.651</ele>
        <time>2017-10-08T12:35:35Z</time>
      </trkpt>
      <trkpt lat="62.7112756" lon="17.9712663">
        <ele>27.5349</ele>
        <time>2017-10-08T12:35:45Z</time>
      </trkpt>
      <trkpt lat="62.7111803" lon="17.970943">
        <ele>30.4188</ele>
        <time>2017-10-08T12:35:54Z</time>
      </trkpt>
      <trkpt lat="62.7110881" lon="17.9706251">
        <ele>31.8607</ele>
        <time>2017-10-08T12:36:02Z</time>
      </trkpt>
      <trkpt lat="62.7109915" lon="17.9703101">
        <ele>33.3029</ele>
        <time>2017-10-08T12:36:10Z</time>
      </trkpt>
      <trkpt lat="62.710871" lon="17.9699115">
        <ele>35.2255</ele>
        <time>2017-10-08T12:36:20Z</time>
      </trkpt>
      <trkpt lat="62.7107507" lon="17.9695129">
        <ele>37.1481</ele>
        <time>2017-10-08T12:36:30Z</time>
      </trkpt>
      <trkpt lat="62.7106461" lon="17.9691322">
        <ele>40.0321</ele>
        <time>2017-10-08T12:36:40Z</time>
      </trkpt>
      <trkpt lat="62.7105767" lon="17.9688575">
        <ele>42.916</ele>
        <time>2017-10-08T12:36:47Z</time>
      </trkpt>
      <trkpt lat="62.7104629" lon="17.9685317">
        <ele>44.358</ele>
        <time>2017-10-08T12:36:55Z</time>
      </trkpt>
      <trkpt lat="62.7103364" lon="17.9682586">
        <ele>45.3192</ele>
        <time>2017-10-08T12:37:02Z</time>
      </trkpt>
      <trkpt lat="62.7101285" lon="17.9678695">
        <ele>46.7612</ele>
        <time>2017-10-08T12:37:11Z</time>
      </trkpt>
      <trkpt lat="62.7099089" lon="17.9674443">
        <ele>51.5679</ele>
        <time>2017-10-08T12:37:20Z</time>
      </trkpt>
      <trkpt lat="62.7097783" lon="17.9671965">
        <ele>55.4131</ele>
        <time>2017-10-08T12:37:25Z</time>
      </trkpt>
      <trkpt lat="62.7096034" lon="17.9667751">
        <ele>56.8551</ele>
        <time>2017-10-08T12:37:33Z</time>
      </trkpt>
      <trkpt lat="62.7094407" lon="17.966371">
        <ele>59.7391</ele>
        <time>2017-10-08T12:37:41Z</time>
      </trkpt>
      <trkpt lat="62.7093201" lon="17.9659952">
        <ele>61.6617</ele>
        <time>2017-10-08T12:37:48Z</time>
      </trkpt>
      <trkpt lat="62.7092035" lon="17.9655501">
        <ele>62.1423</ele>
        <time>2017-10-08T12:37:56Z</time>
      </trkpt>
      <trkpt lat="62.7091322" lon="17.9652521">
        <ele>62.6229</ele>
        <time>2017-10-08T12:38:01Z</time>
      </trkpt>
      <trkpt lat="62.7090501" lon="17.9647808">
        <ele>61.181</ele>
        <time>2017-10-08T12:38:08Z</time>
      </trkpt>
      <trkpt lat="62.7089595" lon="17.9641119">
        <ele>60.2197</ele>
        <time>2017-10-08T12:38:17Z</time>
      </trkpt>
      <trkpt lat="62.7088796" lon="17.9636641">
        <ele>60.2197</ele>
        <time>2017-10-08T12:38:23Z</time>
      </trkpt>
      <trkpt lat="62.708784" lon="17.9631542">
        <ele>62.1423</ele>
        <time>2017-10-08T12:38:30Z</time>
      </trkpt>
      <trkpt lat="62.7087248" lon="17.9629407">
        <ele>62.6229</ele>
        <time>2017-10-08T12:38:33Z</time>
      </trkpt>
      <trkpt lat="62.7085814" lon="17.9622939">
        <ele>64.0651</ele>
        <time>2017-10-08T12:38:42Z</time>
      </trkpt>
      <trkpt lat="62.7084638" lon="17.9618634">
        <ele>65.0264</ele>
        <time>2017-10-08T12:38:49Z</time>
      </trkpt>
      <trkpt lat="62.7083276" lon="17.9613641">
        <ele>68.3909</ele>
        <time>2017-10-08T12:38:57Z</time>
      </trkpt>
      <trkpt lat="62.7081774" lon="17.9608262">
        <ele>73.1976</ele>
        <time>2017-10-08T12:39:05Z</time>
      </trkpt>
      <trkpt lat="62.7080163" lon="17.9603239">
        <ele>75.1202</ele>
        <time>2017-10-08T12:39:13Z</time>
      </trkpt>
      <trkpt lat="62.7078895" lon="17.9599748">
        <ele>77.5234</ele>
        <time>2017-10-08T12:39:20Z</time>
      </trkpt>
      <trkpt lat="62.7077229" lon="17.9595258">
        <ele>78.4847</ele>
        <time>2017-10-08T12:39:28Z</time>
      </trkpt>
      <trkpt lat="62.7075706" lon="17.9590836">
        <ele>79.446</ele>
        <time>2017-10-08T12:39:35Z</time>
      </trkpt>
      <trkpt lat="62.7073744" lon="17.9583829">
        <ele>79.446</ele>
        <time>2017-10-08T12:39:44Z</time>
      </trkpt>
      <trkpt lat="62.707208" lon="17.9576017">
        <ele>78.9655</ele>
        <time>2017-10-08T12:39:53Z</time>
      </trkpt>
      <trkpt lat="62.7071102" lon="17.9571501">
        <ele>80.4075</ele>
        <time>2017-10-08T12:39:59Z</time>
      </trkpt>
      <trkpt lat="62.7070683" lon="17.956917">
        <ele>82.8108</ele>
        <time>2017-10-08T12:40:04Z</time>
      </trkpt>
      <trkpt lat="62.7070678" lon="17.9569102">
        <ele>83.2914</ele>
        <time>2017-10-08T12:40:07Z</time>
      </trkpt>
      <trkpt lat="62.7070331" lon="17.9568367">
        <ele>83.772</ele>
        <time>2017-10-08T12:42:38Z</time>
      </trkpt>
      <trkpt lat="62.7069596" lon="17.9566352">
        <ele>83.772</ele>
        <time>2017-10-08T12:42:42Z</time>
      </trkpt>
      <trkpt lat="62.7068115" lon="17.9561983">
        <ele>84.2527</ele>
        <time>2017-10-08T12:42:50Z</time>
      </trkpt>
      <trkpt lat="62.7066472" lon="17.9556903">
        <ele>85.6946</ele>
        <time>2017-10-08T12:42:59Z</time>
      </trkpt>
      <trkpt lat="62.7064739" lon="17.9551926">
        <ele>85.6946</ele>
        <time>2017-10-08T12:43:07Z</time>
      </trkpt>
      <trkpt lat="62.7062768" lon="17.9547066">
        <ele>85.214</ele>
        <time>2017-10-08T12:43:15Z</time>
      </trkpt>
      <trkpt lat="62.7060074" lon="17.9540693">
        <ele>84.2527</ele>
        <time>2017-10-08T12:43:25Z</time>
      </trkpt>
      <trkpt lat="62.7058442" lon="17.9536544">
        <ele>84.2527</ele>
        <time>2017-10-08T12:43:32Z</time>
      </trkpt>
      <trkpt lat="62.7056335" lon="17.9530768">
        <ele>87.6172</ele>
        <time>2017-10-08T12:43:41Z</time>
      </trkpt>
      <trkpt lat="62.7054329" lon="17.9525009">
        <ele>89.0593</ele>
        <time>2017-10-08T12:43:50Z</time>
      </trkpt>
      <trkpt lat="62.7052699" lon="17.9519932">
        <ele>89.5399</ele>
        <time>2017-10-08T12:43:58Z</time>
      </trkpt>
      <trkpt lat="62.7050997" lon="17.9513101">
        <ele>89.0593</ele>
        <time>2017-10-08T12:44:08Z</time>
      </trkpt>
      <trkpt lat="62.7049243" lon="17.9505403">
        <ele>91.4625</ele>
        <time>2017-10-08T12:44:18Z</time>
      </trkpt>
      <trkpt lat="62.7047067" lon="17.9497674">
        <ele>92.424</ele>
        <time>2017-10-08T12:44:28Z</time>
      </trkpt>
      <trkpt lat="62.7045071" lon="17.9490499">
        <ele>93.3851</ele>
        <time>2017-10-08T12:44:37Z</time>
      </trkpt>
      <trkpt lat="62.7044846" lon="17.9489588">
        <ele>92.9045</ele>
        <time>2017-10-08T12:44:38Z</time>
      </trkpt>
      <trkpt lat="62.7043668" lon="17.9480743">
        <ele>92.424</ele>
        <time>2017-10-08T12:44:47Z</time>
      </trkpt>
      <trkpt lat="62.70424" lon="17.9470462">
        <ele>90.9819</ele>
        <time>2017-10-08T12:44:57Z</time>
      </trkpt>
      <trkpt lat="62.7040771" lon="17.946118">
        <ele>90.5013</ele>
        <time>2017-10-08T12:45:06Z</time>
      </trkpt>
      <trkpt lat="62.7038779" lon="17.9453228">
        <ele>90.5013</ele>
        <time>2017-10-08T12:45:14Z</time>
      </trkpt>
      <trkpt lat="62.7035889" lon="17.9445738">
        <ele>89.5399</ele>
        <time>2017-10-08T12:45:22Z</time>
      </trkpt>
      <trkpt lat="62.7033576" lon="17.9438632">
        <ele>89.5399</ele>
        <time>2017-10-08T12:45:29Z</time>
      </trkpt>
      <trkpt lat="62.7031599" lon="17.9430456">
        <ele>87.6172</ele>
        <time>2017-10-08T12:45:36Z</time>
      </trkpt>
      <trkpt lat="62.7030071" lon="17.9420863">
        <ele>85.214</ele>
        <time>2017-10-08T12:45:43Z</time>
      </trkpt>
      <trkpt lat="62.7028587" lon="17.9408866">
        <ele>83.2914</ele>
        <time>2017-10-08T12:45:51Z</time>
      </trkpt>
      <trkpt lat="62.7026425" lon="17.9396883">
        <ele>82.3301</ele>
        <time>2017-10-08T12:45:59Z</time>
      </trkpt>
      <trkpt lat="62.702373" lon="17.9383949">
        <ele>78.004</ele>
        <time>2017-10-08T12:46:08Z</time>
      </trkpt>
      <trkpt lat="62.7021167" lon="17.9375609">
        <ele>77.5234</ele>
        <time>2017-10-08T12:46:14Z</time>
      </trkpt>
      <trkpt lat="62.7019333" lon="17.9368095">
        <ele>74.6395</ele>
        <time>2017-10-08T12:46:18Z</time>
      </trkpt>
      <trkpt lat="62.701562" lon="17.9351056">
        <ele>68.3909</ele>
        <time>2017-10-08T12:46:27Z</time>
      </trkpt>
      <trkpt lat="62.7012426" lon="17.9336902">
        <ele>65.5071</ele>
        <time>2017-10-08T12:46:35Z</time>
      </trkpt>
      <trkpt lat="62.7010457" lon="17.9328169">
        <ele>64.5457</ele>
        <time>2017-10-08T12:46:41Z</time>
      </trkpt>
      <trkpt lat="62.7009375" lon="17.9323111">
        <ele>65.5071</ele>
        <time>2017-10-08T12:46:46Z</time>
      </trkpt>
      <trkpt lat="62.7008398" lon="17.9319851">
        <ele>65.9877</ele>
        <time>2017-10-08T12:46:52Z</time>
      </trkpt>
      <trkpt lat="62.7006847" lon="17.9315843">
        <ele>65.5071</ele>
        <time>2017-10-08T12:46:58Z</time>
      </trkpt>
      <trkpt lat="62.7004709" lon="17.9310411">
        <ele>63.1036</ele>
        <time>2017-10-08T12:47:04Z</time>
      </trkpt>
      <trkpt lat="62.7001646" lon="17.9304789">
        <ele>60.2197</ele>
        <time>2017-10-08T12:47:09Z</time>
      </trkpt>
      <trkpt lat="62.6998004" lon="17.9299193">
        <ele>58.7777</ele>
        <time>2017-10-08T12:47:14Z</time>
      </trkpt>
      <trkpt lat="62.6994813" lon="17.929408">
        <ele>58.7777</ele>
        <time>2017-10-08T12:47:19Z</time>
      </trkpt>
      <trkpt lat="62.6990976" lon="17.9287718">
        <ele>58.2971</ele>
        <time>2017-10-08T12:47:26Z</time>
      </trkpt>
      <trkpt lat="62.6986976" lon="17.9281202">
        <ele>58.7777</ele>
        <time>2017-10-08T12:47:34Z</time>
      </trkpt>
      <trkpt lat="62.6983543" lon="17.9275888">
        <ele>58.2971</ele>
        <time>2017-10-08T12:47:41Z</time>
      </trkpt>
      <trkpt lat="62.6980829" lon="17.9272687">
        <ele>58.7777</ele>
        <time>2017-10-08T12:47:47Z</time>
      </trkpt>
      <trkpt lat="62.6977027" lon="17.9269768">
        <ele>59.7391</ele>
        <time>2017-10-08T12:47:55Z</time>
      </trkpt>
      <trkpt lat="62.6973225" lon="17.9266139">
        <ele>58.7777</ele>
        <time>2017-10-08T12:48:03Z</time>
      </trkpt>
      <trkpt lat="62.696935" lon="17.9261607">
        <ele>57.8165</ele>
        <time>2017-10-08T12:48:10Z</time>
      </trkpt>
      <trkpt lat="62.6966558" lon="17.9258276">
        <ele>58.7777</ele>
        <time>2017-10-08T12:48:16Z</time>
      </trkpt>
      <trkpt lat="62.6963845" lon="17.9254914">
        <ele>57.3358</ele>
        <time>2017-10-08T12:48:21Z</time>
      </trkpt>
      <trkpt lat="62.6960414" lon="17.9250692">
        <ele>56.8551</ele>
        <time>2017-10-08T12:48:27Z</time>
      </trkpt>
      <trkpt lat="62.6959157" lon="17.9249267">
        <ele>55.8938</ele>
        <time>2017-10-08T12:48:29Z</time>
      </trkpt>
      <trkpt lat="62.6954315" lon="17.924227">
        <ele>51.0872</ele>
        <time>2017-10-08T12:48:36Z</time>
      </trkpt>
      <trkpt lat="62.6951152" lon="17.9236579">
        <ele>49.1646</ele>
        <time>2017-10-08T12:48:41Z</time>
      </trkpt>
      <trkpt lat="62.6948161" lon="17.9226743">
        <ele>48.684</ele>
        <time>2017-10-08T12:48:48Z</time>
      </trkpt>
      <trkpt lat="62.6945592" lon="17.9218791">
        <ele>47.2418</ele>
        <time>2017-10-08T12:48:53Z</time>
      </trkpt>
      <trkpt lat="62.6942077" lon="17.9211956">
        <ele>45.7999</ele>
        <time>2017-10-08T12:48:58Z</time>
      </trkpt>
      <trkpt lat="62.6936658" lon="17.9204993">
        <ele>42.916</ele>
        <time>2017-10-08T12:49:05Z</time>
      </trkpt>
      <trkpt lat="62.6930624" lon="17.9197537">
        <ele>39.0707</ele>
        <time>2017-10-08T12:49:13Z</time>
      </trkpt>
      <trkpt lat="62.6929961" lon="17.9196612">
        <ele>38.5901</ele>
        <time>2017-10-08T12:49:14Z</time>
      </trkpt>
      <trkpt lat="62.692781" lon="17.919112">
        <ele>35.7061</ele>
        <time>2017-10-08T12:49:18Z</time>
      </trkpt>
      <trkpt lat="62.692498" lon="17.9180134">
        <ele>30.8995</ele>
        <time>2017-10-08T12:49:25Z</time>
      </trkpt>
      <trkpt lat="62.6921541" lon="17.917318">
        <ele>26.0929</ele>
        <time>2017-10-08T12:49:30Z</time>
      </trkpt>
      <trkpt lat="62.6916812" lon="17.9164598">
        <ele>19.8444</ele>
        <time>2017-10-08T12:49:36Z</time>
      </trkpt>
      <trkpt lat="62.691088" lon="17.9153777">
        <ele>14.0764</ele>
        <time>2017-10-08T12:49:43Z</time>
      </trkpt>
      <trkpt lat="62.6908633" lon="17.9149352">
        <ele>12.1538</ele>
        <time>2017-10-08T12:49:46Z</time>
      </trkpt>
      <trkpt lat="62.6905235" lon="17.9138583">
        <ele>10.2312</ele>
        <time>2017-10-08T12:49:52Z</time>
      </trkpt>
      <trkpt lat="62.6902496" lon="17.9130851">
        <ele>9.2699</ele>
        <time>2017-10-08T12:49:57Z</time>
      </trkpt>
      <trkpt lat="62.6899088" lon="17.912249">
        <ele>8.78918</ele>
        <time>2017-10-08T12:50:03Z</time>
      </trkpt>
      <trkpt lat="62.6893819" lon="17.9105213">
        <ele>5.42456</ele>
        <time>2017-10-08T12:50:14Z</time>
      </trkpt>
      <trkpt lat="62.6892964" lon="17.9097718">
        <ele>4.46326</ele>
        <time>2017-10-08T12:50:18Z</time>
      </trkpt>
      <trkpt lat="62.6893575" lon="17.9092371">
        <ele>3.98267</ele>
        <time>2017-10-08T12:50:21Z</time>
      </trkpt>
      <trkpt lat="62.6894498" lon="17.9089662">
        <ele>4.46326</ele>
        <time>2017-10-08T12:50:23Z</time>
      </trkpt>
      <trkpt lat="62.6895532" lon="17.9087554">
        <ele>4.94385</ele>
        <time>2017-10-08T12:50:25Z</time>
      </trkpt>
      <trkpt lat="62.6897983" lon="17.9083692">
        <ele>4.46326</ele>
        <time>2017-10-08T12:50:30Z</time>
      </trkpt>
      <trkpt lat="62.6899533" lon="17.9079983">
        <ele>4.94385</ele>
        <time>2017-10-08T12:50:34Z</time>
      </trkpt>
      <trkpt lat="62.6900639" lon="17.9073398">
        <ele>3.98267</ele>
        <time>2017-10-08T12:50:40Z</time>
      </trkpt>
      <trkpt lat="62.6900624" lon="17.9067213">
        <ele>3.02124</ele>
        <time>2017-10-08T12:50:45Z</time>
      </trkpt>
      <trkpt lat="62.6899946" lon="17.9058038">
        <ele>3.50195</ele>
        <time>2017-10-08T12:50:52Z</time>
      </trkpt>
      <trkpt lat="62.6899207" lon="17.9051766">
        <ele>3.02124</ele>
        <time>2017-10-08T12:50:58Z</time>
      </trkpt>
      <trkpt lat="62.6898506" lon="17.9045242">
        <ele>4.46326</ele>
        <time>2017-10-08T12:51:06Z</time>
      </trkpt>
      <trkpt lat="62.6897833" lon="17.9037929">
        <ele>10.2312</ele>
        <time>2017-10-08T12:51:16Z</time>
      </trkpt>
      <trkpt lat="62.6896936" lon="17.9032267">
        <ele>12.6344</ele>
        <time>2017-10-08T12:51:24Z</time>
      </trkpt>
      <trkpt lat="62.6895985" lon="17.9027358">
        <ele>14.0764</ele>
        <time>2017-10-08T12:51:32Z</time>
      </trkpt>
      <trkpt lat="62.6895154" lon="17.9024072">
        <ele>16.4797</ele>
        <time>2017-10-08T12:51:38Z</time>
      </trkpt>
      <trkpt lat="62.6893979" lon="17.9020303">
        <ele>17.4412</ele>
        <time>2017-10-08T12:51:46Z</time>
      </trkpt>
      <trkpt lat="62.6892643" lon="17.9017043">
        <ele>19.8444</ele>
        <time>2017-10-08T12:51:54Z</time>
      </trkpt>
      <trkpt lat="62.6891379" lon="17.9014074">
        <ele>24.1703</ele>
        <time>2017-10-08T12:52:02Z</time>
      </trkpt>
      <trkpt lat="62.6889819" lon="17.9010621">
        <ele>27.0543</ele>
        <time>2017-10-08T12:52:12Z</time>
      </trkpt>
      <trkpt lat="62.688811" lon="17.9006874">
        <ele>28.0155</ele>
        <time>2017-10-08T12:52:22Z</time>
      </trkpt>
      <trkpt lat="62.6886748" lon="17.9003703">
        <ele>29.9381</ele>
        <time>2017-10-08T12:52:30Z</time>
      </trkpt>
      <trkpt lat="62.6885174" lon="17.9000204">
        <ele>32.3416</ele>
        <time>2017-10-08T12:52:39Z</time>
      </trkpt>
      <trkpt lat="62.6883225" lon="17.8996912">
        <ele>36.1868</ele>
        <time>2017-10-08T12:52:49Z</time>
      </trkpt>
      <trkpt lat="62.6881796" lon="17.8995033">
        <ele>39.0707</ele>
        <time>2017-10-08T12:52:56Z</time>
      </trkpt>
      <trkpt lat="62.68799" lon="17.8993012">
        <ele>42.916</ele>
        <time>2017-10-08T12:53:05Z</time>
      </trkpt>
      <trkpt lat="62.6878179" lon="17.8991099">
        <ele>45.7999</ele>
        <time>2017-10-08T12:53:13Z</time>
      </trkpt>
      <trkpt lat="62.6876674" lon="17.8989484">
        <ele>48.684</ele>
        <time>2017-10-08T12:53:20Z</time>
      </trkpt>
      <trkpt lat="62.6875265" lon="17.8987624">
        <ele>50.126</ele>
        <time>2017-10-08T12:53:27Z</time>
      </trkpt>
      <trkpt lat="62.6873575" lon="17.8985575">
        <ele>49.6453</ele>
        <time>2017-10-08T12:53:35Z</time>
      </trkpt>
      <trkpt lat="62.6873224" lon="17.8985158">
        <ele>49.6453</ele>
        <time>2017-10-08T12:53:37Z</time>
      </trkpt>
      <trkpt lat="62.6873138" lon="17.898506">
        <ele>49.1646</ele>
        <time>2017-10-08T12:53:40Z</time>
      </trkpt>
      <trkpt lat="62.687216" lon="17.8984404">
        <ele>43.3966</ele>
        <time>2017-10-08T12:55:55Z</time>
      </trkpt>
      <trkpt lat="62.6871176" lon="17.8983094">
        <ele>43.3966</ele>
        <time>2017-10-08T12:55:58Z</time>
      </trkpt>
      <trkpt lat="62.6869229" lon="17.8980218">
        <ele>43.3966</ele>
        <time>2017-10-08T12:56:03Z</time>
      </trkpt>
      <trkpt lat="62.6865959" lon="17.8975077">
        <ele>42.4354</ele>
        <time>2017-10-08T12:56:10Z</time>
      </trkpt>
      <trkpt lat="62.6862443" lon="17.8969792">
        <ele>39.0707</ele>
        <time>2017-10-08T12:56:16Z</time>
      </trkpt>
      <trkpt lat="62.6857584" lon="17.896245">
        <ele>35.2255</ele>
        <time>2017-10-08T12:56:23Z</time>
      </trkpt>
      <trkpt lat="62.6853702" lon="17.8955883">
        <ele>33.3029</ele>
        <time>2017-10-08T12:56:29Z</time>
      </trkpt>
      <trkpt lat="62.6850507" lon="17.894834">
        <ele>30.8995</ele>
        <time>2017-10-08T12:56:35Z</time>
      </trkpt>
      <trkpt lat="62.684732" lon="17.8937855">
        <ele>28.4962</ele>
        <time>2017-10-08T12:56:42Z</time>
      </trkpt>
      <trkpt lat="62.6844566" lon="17.8929717">
        <ele>26.5736</ele>
        <time>2017-10-08T12:56:48Z</time>
      </trkpt>
      <trkpt lat="62.6840894" lon="17.8920862">
        <ele>25.1317</ele>
        <time>2017-10-08T12:56:54Z</time>
      </trkpt>
      <trkpt lat="62.6837838" lon="17.8913202">
        <ele>25.6123</ele>
        <time>2017-10-08T12:57:00Z</time>
      </trkpt>
      <trkpt lat="62.683609" lon="17.8908798">
        <ele>25.6123</ele>
        <time>2017-10-08T12:57:04Z</time>
      </trkpt>
      <trkpt lat="62.6835557" lon="17.8904323">
        <ele>25.1317</ele>
        <time>2017-10-08T12:57:08Z</time>
      </trkpt>
      <trkpt lat="62.6836387" lon="17.8902193">
        <ele>25.1317</ele>
        <time>2017-10-08T12:57:11Z</time>
      </trkpt>
      <trkpt lat="62.6837075" lon="17.8901377">
        <ele>25.1317</ele>
        <time>2017-10-08T12:57:13Z</time>
      </trkpt>
      <trkpt lat="62.684056" lon="17.8897756">
        <ele>26.5736</ele>
        <time>2017-10-08T12:57:23Z</time>
      </trkpt>
      <trkpt lat="62.6842987" lon="17.889484">
        <ele>26.0929</ele>
        <time>2017-10-08T12:57:31Z</time>
      </trkpt>
      <trkpt lat="62.6845333" lon="17.8891807">
        <ele>25.6123</ele>
        <time>2017-10-08T12:57:38Z</time>
      </trkpt>
      <trkpt lat="62.6848734" lon="17.8887479">
        <ele>25.1317</ele>
        <time>2017-10-08T12:57:47Z</time>
      </trkpt>
      <trkpt lat="62.6850385" lon="17.8885479">
        <ele>25.1317</ele>
        <time>2017-10-08T12:57:52Z</time>
      </trkpt>
      <trkpt lat="62.6852905" lon="17.888276">
        <ele>26.5736</ele>
        <time>2017-10-08T12:58:00Z</time>
      </trkpt>
      <trkpt lat="62.6856251" lon="17.8878434">
        <ele>28.0155</ele>
        <time>2017-10-08T12:58:11Z</time>
      </trkpt>
      <trkpt lat="62.68585" lon="17.8875661">
        <ele>29.4575</ele>
        <time>2017-10-08T12:58:19Z</time>
      </trkpt>
      <trkpt lat="62.6860433" lon="17.8873665">
        <ele>31.3801</ele>
        <time>2017-10-08T12:58:26Z</time>
      </trkpt>
      <trkpt lat="62.6863283" lon="17.8870882">
        <ele>33.7834</ele>
        <time>2017-10-08T12:58:36Z</time>
      </trkpt>
      <trkpt lat="62.6866262" lon="17.8868162">
        <ele>35.7061</ele>
        <time>2017-10-08T12:58:46Z</time>
      </trkpt>
      <trkpt lat="62.6868259" lon="17.8866659">
        <ele>37.1481</ele>
        <time>2017-10-08T12:58:53Z</time>
      </trkpt>
      <trkpt lat="62.6870427" lon="17.8864762">
        <ele>39.0707</ele>
        <time>2017-10-08T12:59:01Z</time>
      </trkpt>
      <trkpt lat="62.6872947" lon="17.8863262">
        <ele>40.9934</ele>
        <time>2017-10-08T12:59:10Z</time>
      </trkpt>
      <trkpt lat="62.6875192" lon="17.8861883">
        <ele>42.4354</ele>
        <time>2017-10-08T12:59:19Z</time>
      </trkpt>
      <trkpt lat="62.6877275" lon="17.8859427">
        <ele>43.3966</ele>
        <time>2017-10-08T12:59:27Z</time>
      </trkpt>
      <trkpt lat="62.6878618" lon="17.8856355">
        <ele>44.358</ele>
        <time>2017-10-08T12:59:33Z</time>
      </trkpt>
      <trkpt lat="62.6879756" lon="17.8851166">
        <ele>44.8386</ele>
        <time>2017-10-08T12:59:41Z</time>
      </trkpt>
      <trkpt lat="62.6880677" lon="17.8845555">
        <ele>44.358</ele>
        <time>2017-10-08T12:59:49Z</time>
      </trkpt>
      <trkpt lat="62.6882327" lon="17.8839951">
        <ele>44.8386</ele>
        <time>2017-10-08T12:59:58Z</time>
      </trkpt>
      <trkpt lat="62.6883265" lon="17.8836803">
        <ele>45.3192</ele>
        <time>2017-10-08T13:00:04Z</time>
      </trkpt>
      <trkpt lat="62.688321" lon="17.883403">
        <ele>45.3192</ele>
        <time>2017-10-08T13:00:08Z</time>
      </trkpt>
      <trkpt lat="62.6883389" lon="17.8828689">
        <ele>46.7612</ele>
        <time>2017-10-08T13:00:15Z</time>
      </trkpt>
      <trkpt lat="62.6883712" lon="17.8825613">
        <ele>47.7225</ele>
        <time>2017-10-08T13:00:21Z</time>
      </trkpt>
      <trkpt lat="62.6884387" lon="17.8821924">
        <ele>48.2034</ele>
        <time>2017-10-08T13:00:29Z</time>
      </trkpt>
      <trkpt lat="62.6885002" lon="17.8817683">
        <ele>48.684</ele>
        <time>2017-10-08T13:00:37Z</time>
      </trkpt>
      <trkpt lat="62.6885695" lon="17.8812871">
        <ele>49.6453</ele>
        <time>2017-10-08T13:00:46Z</time>
      </trkpt>
      <trkpt lat="62.6886215" lon="17.8808705">
        <ele>50.126</ele>
        <time>2017-10-08T13:00:53Z</time>
      </trkpt>
      <trkpt lat="62.6886748" lon="17.8802684">
        <ele>48.684</ele>
        <time>2017-10-08T13:01:00Z</time>
      </trkpt>
      <trkpt lat="62.6887039" lon="17.8799654">
        <ele>48.2034</ele>
        <time>2017-10-08T13:01:04Z</time>
      </trkpt>
      <trkpt lat="62.6886783" lon="17.880047">
        <ele>47.7225</ele>
        <time>2017-10-08T13:01:09Z</time>
      </trkpt>
      <trkpt lat="62.6886692" lon="17.8802338">
        <ele>48.2034</ele>
        <time>2017-10-08T13:01:12Z</time>
      </trkpt>
      <trkpt lat="62.688595" lon="17.8808146">
        <ele>51.0872</ele>
        <time>2017-10-08T13:01:21Z</time>
      </trkpt>
      <trkpt lat="62.6885437" lon="17.8809679">
        <ele>51.5679</ele>
        <time>2017-10-08T13:01:25Z</time>
      </trkpt>
      <trkpt lat="62.6885697" lon="17.8810239">
        <ele>52.5292</ele>
        <time>2017-10-08T13:01:30Z</time>
      </trkpt>
      <trkpt lat="62.6885748" lon="17.8809718">
        <ele>52.5292</ele>
        <time>2017-10-08T13:01:32Z</time>
      </trkpt>
      <trkpt lat="62.6886021" lon="17.8807798">
        <ele>50.6066</ele>
        <time>2017-10-08T13:01:39Z</time>
      </trkpt>
      <trkpt lat="62.6886335" lon="17.880488">
        <ele>49.6453</ele>
        <time>2017-10-08T13:01:43Z</time>
      </trkpt>
      <trkpt lat="62.6886748" lon="17.879949">
        <ele>49.1646</ele>
        <time>2017-10-08T13:01:48Z</time>
      </trkpt>
      <trkpt lat="62.6886982" lon="17.8797324">
        <ele>48.684</ele>
        <time>2017-10-08T13:01:50Z</time>
      </trkpt>
      <trkpt lat="62.6887229" lon="17.8795442">
        <ele>48.2034</ele>
        <time>2017-10-08T13:01:52Z</time>
      </trkpt>
      <trkpt lat="62.6887886" lon="17.8790901">
        <ele>45.7999</ele>
        <time>2017-10-08T13:01:58Z</time>
      </trkpt>
      <trkpt lat="62.6888782" lon="17.8785616">
        <ele>42.4354</ele>
        <time>2017-10-08T13:02:05Z</time>
      </trkpt>
      <trkpt lat="62.6889124" lon="17.8781701">
        <ele>38.1094</ele>
        <time>2017-10-08T13:02:10Z</time>
      </trkpt>
      <trkpt lat="62.6889442" lon="17.8777498">
        <ele>36.6675</ele>
        <time>2017-10-08T13:02:14Z</time>
      </trkpt>
      <trkpt lat="62.6890654" lon="17.876906">
        <ele>41.9547</ele>
        <time>2017-10-08T13:02:22Z</time>
      </trkpt>
      <trkpt lat="62.6891664" lon="17.8762831">
        <ele>44.8386</ele>
        <time>2017-10-08T13:02:29Z</time>
      </trkpt>
      <trkpt lat="62.6892234" lon="17.8759748">
        <ele>45.7999</ele>
        <time>2017-10-08T13:02:33Z</time>
      </trkpt>
      <trkpt lat="62.6892507" lon="17.8755329">
        <ele>46.7612</ele>
        <time>2017-10-08T13:02:40Z</time>
      </trkpt>
      <trkpt lat="62.6892394" lon="17.8751558">
        <ele>47.7225</ele>
        <time>2017-10-08T13:02:45Z</time>
      </trkpt>
      <trkpt lat="62.6891885" lon="17.8748289">
        <ele>47.7225</ele>
        <time>2017-10-08T13:02:50Z</time>
      </trkpt>
      <trkpt lat="62.689097" lon="17.8745177">
        <ele>45.7999</ele>
        <time>2017-10-08T13:02:55Z</time>
      </trkpt>
      <trkpt lat="62.6889489" lon="17.8740338">
        <ele>45.3192</ele>
        <time>2017-10-08T13:03:01Z</time>
      </trkpt>
      <trkpt lat="62.6887805" lon="17.8736199">
        <ele>45.7999</ele>
        <time>2017-10-08T13:03:07Z</time>
      </trkpt>
      <trkpt lat="62.6887526" lon="17.8735634">
        <ele>46.2806</ele>
        <time>2017-10-08T13:03:08Z</time>
      </trkpt>
      <trkpt lat="62.6886176" lon="17.8731859">
        <ele>48.2034</ele>
        <time>2017-10-08T13:03:15Z</time>
      </trkpt>
      <trkpt lat="62.6885712" lon="17.8728641">
        <ele>49.6453</ele>
        <time>2017-10-08T13:03:21Z</time>
      </trkpt>
      <trkpt lat="62.6885356" lon="17.8724332">
        <ele>49.1646</ele>
        <time>2017-10-08T13:03:28Z</time>
      </trkpt>
      <trkpt lat="62.6884758" lon="17.8721653">
        <ele>51.5679</ele>
        <time>2017-10-08T13:03:33Z</time>
      </trkpt>
      <trkpt lat="62.688437" lon="17.8719079">
        <ele>54.4518</ele>
        <time>2017-10-08T13:03:38Z</time>
      </trkpt>
      <trkpt lat="62.6884712" lon="17.8716401">
        <ele>55.8938</ele>
        <time>2017-10-08T13:03:44Z</time>
      </trkpt>
      <trkpt lat="62.6885329" lon="17.8712971">
        <ele>60.2197</ele>
        <time>2017-10-08T13:03:52Z</time>
      </trkpt>
      <trkpt lat="62.6885638" lon="17.8710111">
        <ele>59.2584</ele>
        <time>2017-10-08T13:03:58Z</time>
      </trkpt>
      <trkpt lat="62.6885914" lon="17.8706529">
        <ele>58.7777</ele>
        <time>2017-10-08T13:04:04Z</time>
      </trkpt>
      <trkpt lat="62.6886339" lon="17.8703">
        <ele>57.8165</ele>
        <time>2017-10-08T13:04:11Z</time>
      </trkpt>
      <trkpt lat="62.6887049" lon="17.8700197">
        <ele>57.8165</ele>
        <time>2017-10-08T13:04:18Z</time>
      </trkpt>
      <trkpt lat="62.6887929" lon="17.8698075">
        <ele>57.8165</ele>
        <time>2017-10-08T13:04:24Z</time>
      </trkpt>
      <trkpt lat="62.6889036" lon="17.8695168">
        <ele>59.7391</ele>
        <time>2017-10-08T13:04:32Z</time>
      </trkpt>
      <trkpt lat="62.6890035" lon="17.8692501">
        <ele>63.1036</ele>
        <time>2017-10-08T13:04:39Z</time>
      </trkpt>
      <trkpt lat="62.6891154" lon="17.8689853">
        <ele>65.0264</ele>
        <time>2017-10-08T13:04:46Z</time>
      </trkpt>
      <trkpt lat="62.6892545" lon="17.8687024">
        <ele>65.5071</ele>
        <time>2017-10-08T13:04:53Z</time>
      </trkpt>
      <trkpt lat="62.6893265" lon="17.8684956">
        <ele>65.0264</ele>
        <time>2017-10-08T13:04:59Z</time>
      </trkpt>
      <trkpt lat="62.6893295" lon="17.868471">
        <ele>64.5457</ele>
        <time>2017-10-08T13:05:00Z</time>
      </trkpt>
      <trkpt lat="62.6893254" lon="17.8684508">
        <ele>63.1036</ele>
        <time>2017-10-08T13:05:03Z</time>
      </trkpt>
      <trkpt lat="62.6893482" lon="17.8683547">
        <ele>63.1036</ele>
        <time>2017-10-08T13:05:15Z</time>
      </trkpt>
      <trkpt lat="62.6894233" lon="17.8681191">
        <ele>61.181</ele>
        <time>2017-10-08T13:05:19Z</time>
      </trkpt>
      <trkpt lat="62.6895053" lon="17.8678569">
        <ele>60.2197</ele>
        <time>2017-10-08T13:05:24Z</time>
      </trkpt>
      <trkpt lat="62.6896562" lon="17.8673629">
        <ele>61.181</ele>
        <time>2017-10-08T13:05:32Z</time>
      </trkpt>
      <trkpt lat="62.6897155" lon="17.8669188">
        <ele>60.7003</ele>
        <time>2017-10-08T13:05:38Z</time>
      </trkpt>
      <trkpt lat="62.6897404" lon="17.8666049">
        <ele>57.3358</ele>
        <time>2017-10-08T13:05:41Z</time>
      </trkpt>
      <trkpt lat="62.6898205" lon="17.8656745">
        <ele>51.0872</ele>
        <time>2017-10-08T13:05:48Z</time>
      </trkpt>
      <trkpt lat="62.6898485" lon="17.8654146">
        <ele>49.6453</ele>
        <time>2017-10-08T13:05:50Z</time>
      </trkpt>
      <trkpt lat="62.6899495" lon="17.8649524">
        <ele>46.7612</ele>
        <time>2017-10-08T13:05:54Z</time>
      </trkpt>
      <trkpt lat="62.6900755" lon="17.8646019">
        <ele>47.7225</ele>
        <time>2017-10-08T13:05:57Z</time>
      </trkpt>
      <trkpt lat="62.6901791" lon="17.864056">
        <ele>49.1646</ele>
        <time>2017-10-08T13:06:01Z</time>
      </trkpt>
      <trkpt lat="62.690176" lon="17.8635405">
        <ele>51.0872</ele>
        <time>2017-10-08T13:06:05Z</time>
      </trkpt>
      <trkpt lat="62.6900912" lon="17.8631285">
        <ele>50.6066</ele>
        <time>2017-10-08T13:06:10Z</time>
      </trkpt>
      <trkpt lat="62.6899629" lon="17.8626793">
        <ele>50.126</ele>
        <time>2017-10-08T13:06:16Z</time>
      </trkpt>
      <trkpt lat="62.689949" lon="17.8625988">
        <ele>49.6453</ele>
        <time>2017-10-08T13:06:17Z</time>
      </trkpt>
      <trkpt lat="62.6899251" lon="17.8621582">
        <ele>48.684</ele>
        <time>2017-10-08T13:06:22Z</time>
      </trkpt>
      <trkpt lat="62.689944" lon="17.8616441">
        <ele>45.7999</ele>
        <time>2017-10-08T13:06:27Z</time>
      </trkpt>
      <trkpt lat="62.6899674" lon="17.8611893">
        <ele>45.7999</ele>
        <time>2017-10-08T13:06:32Z</time>
      </trkpt>
      <trkpt lat="62.6900315" lon="17.8606836">
        <ele>42.916</ele>
        <time>2017-10-08T13:06:37Z</time>
      </trkpt>
      <trkpt lat="62.6901324" lon="17.8602478">
        <ele>39.0707</ele>
        <time>2017-10-08T13:06:42Z</time>
      </trkpt>
      <trkpt lat="62.6901059" lon="17.8596645">
        <ele>37.6287</ele>
        <time>2017-10-08T13:06:47Z</time>
      </trkpt>
      <trkpt lat="62.6900683" lon="17.8593628">
        <ele>35.7061</ele>
        <time>2017-10-08T13:06:50Z</time>
      </trkpt>
      <trkpt lat="62.6899979" lon="17.8590804">
        <ele>36.1868</ele>
        <time>2017-10-08T13:06:54Z</time>
      </trkpt>
      <trkpt lat="62.689964" lon="17.8589733">
        <ele>35.7061</ele>
        <time>2017-10-08T13:06:56Z</time>
      </trkpt>
      <trkpt lat="62.6898287" lon="17.8586701">
        <ele>34.7449</ele>
        <time>2017-10-08T13:07:04Z</time>
      </trkpt>
      <trkpt lat="62.6897436" lon="17.8584789">
        <ele>36.6675</ele>
        <time>2017-10-08T13:07:10Z</time>
      </trkpt>
      <trkpt lat="62.6897351" lon="17.8584513">
        <ele>38.1094</ele>
        <time>2017-10-08T13:07:14Z</time>
      </trkpt>
      <trkpt lat="62.6896886" lon="17.8582769">
        <ele>42.4354</ele>
        <time>2017-10-08T13:07:36Z</time>
      </trkpt>
      <trkpt lat="62.6896752" lon="17.8581639">
        <ele>41.474</ele>
        <time>2017-10-08T13:07:38Z</time>
      </trkpt>
      <trkpt lat="62.689646" lon="17.8577518">
        <ele>37.6287</ele>
        <time>2017-10-08T13:07:46Z</time>
      </trkpt>
      <trkpt lat="62.6896309" lon="17.8574452">
        <ele>33.7834</ele>
        <time>2017-10-08T13:07:50Z</time>
      </trkpt>
      <trkpt lat="62.6895935" lon="17.8568369">
        <ele>30.4188</ele>
        <time>2017-10-08T13:07:56Z</time>
      </trkpt>
      <trkpt lat="62.689531" lon="17.8565542">
        <ele>28.9769</ele>
        <time>2017-10-08T13:07:59Z</time>
      </trkpt>
      <trkpt lat="62.6894872" lon="17.8561159">
        <ele>27.5349</ele>
        <time>2017-10-08T13:08:03Z</time>
      </trkpt>
      <trkpt lat="62.6895101" lon="17.8555101">
        <ele>27.0543</ele>
        <time>2017-10-08T13:08:09Z</time>
      </trkpt>
      <trkpt lat="62.6895042" lon="17.8553968">
        <ele>27.0543</ele>
        <time>2017-10-08T13:08:10Z</time>
      </trkpt>
      <trkpt lat="62.6893668" lon="17.8546608">
        <ele>25.1317</ele>
        <time>2017-10-08T13:08:16Z</time>
      </trkpt>
      <trkpt lat="62.6891461" lon="17.8540676">
        <ele>22.7283</ele>
        <time>2017-10-08T13:08:21Z</time>
      </trkpt>
      <trkpt lat="62.6888259" lon="17.8531456">
        <ele>20.8057</ele>
        <time>2017-10-08T13:08:28Z</time>
      </trkpt>
      <trkpt lat="62.6886881" lon="17.8525167">
        <ele>21.2864</ele>
        <time>2017-10-08T13:08:33Z</time>
      </trkpt>
      <trkpt lat="62.6885158" lon="17.8514857">
        <ele>22.2476</ele>
        <time>2017-10-08T13:08:42Z</time>
      </trkpt>
      <trkpt lat="62.6884205" lon="17.8509311">
        <ele>23.209</ele>
        <time>2017-10-08T13:08:47Z</time>
      </trkpt>
      <trkpt lat="62.6883759" lon="17.8502797">
        <ele>24.1703</ele>
        <time>2017-10-08T13:08:53Z</time>
      </trkpt>
      <trkpt lat="62.6883815" lon="17.8500758">
        <ele>24.651</ele>
        <time>2017-10-08T13:08:55Z</time>
      </trkpt>
      <trkpt lat="62.6884491" lon="17.8495485">
        <ele>25.1317</ele>
        <time>2017-10-08T13:09:01Z</time>
      </trkpt>
      <trkpt lat="62.6885583" lon="17.8488731">
        <ele>24.1703</ele>
        <time>2017-10-08T13:09:09Z</time>
      </trkpt>
      <trkpt lat="62.6886436" lon="17.848302">
        <ele>23.6896</ele>
        <time>2017-10-08T13:09:15Z</time>
      </trkpt>
      <trkpt lat="62.6887033" lon="17.8474028">
        <ele>21.2864</ele>
        <time>2017-10-08T13:09:22Z</time>
      </trkpt>
      <trkpt lat="62.6887248" lon="17.8466733">
        <ele>15.999</ele>
        <time>2017-10-08T13:09:27Z</time>
      </trkpt>
      <trkpt lat="62.688757" lon="17.8458774">
        <ele>15.0377</ele>
        <time>2017-10-08T13:09:32Z</time>
      </trkpt>
      <trkpt lat="62.6888451" lon="17.8450191">
        <ele>15.0377</ele>
        <time>2017-10-08T13:09:38Z</time>
      </trkpt>
      <trkpt lat="62.6889948" lon="17.844144">
        <ele>13.1151</ele>
        <time>2017-10-08T13:09:44Z</time>
      </trkpt>
      <trkpt lat="62.6890292" lon="17.8434711">
        <ele>11.1925</ele>
        <time>2017-10-08T13:09:49Z</time>
      </trkpt>
      <trkpt lat="62.6890124" lon="17.8433521">
        <ele>10.7118</ele>
        <time>2017-10-08T13:09:50Z</time>
      </trkpt>
      <trkpt lat="62.6889341" lon="17.8429724">
        <ele>9.2699</ele>
        <time>2017-10-08T13:09:53Z</time>
      </trkpt>
      <trkpt lat="62.6886841" lon="17.8425056">
        <ele>7.34717</ele>
        <time>2017-10-08T13:09:58Z</time>
      </trkpt>
      <trkpt lat="62.6885613" lon="17.8423565">
        <ele>6.86646</ele>
        <time>2017-10-08T13:10:01Z</time>
      </trkpt>
      <trkpt lat="62.6883923" lon="17.8423761">
        <ele>6.38586</ele>
        <time>2017-10-08T13:10:06Z</time>
      </trkpt>
      <trkpt lat="62.6881257" lon="17.8428466">
        <ele>6.38586</ele>
        <time>2017-10-08T13:10:14Z</time>
      </trkpt>
      <trkpt lat="62.6878656" lon="17.8433236">
        <ele>6.38586</ele>
        <time>2017-10-08T13:10:21Z</time>
      </trkpt>
      <trkpt lat="62.6878055" lon="17.8434427">
        <ele>6.38586</ele>
        <time>2017-10-08T13:10:23Z</time>
      </trkpt>
      <trkpt lat="62.6876247" lon="17.8437764">
        <ele>5.90527</ele>
        <time>2017-10-08T13:10:29Z</time>
      </trkpt>
      <trkpt lat="62.6873614" lon="17.8442656">
        <ele>5.90527</ele>
        <time>2017-10-08T13:10:39Z</time>
      </trkpt>
      <trkpt lat="62.6871685" lon="17.84459">
        <ele>7.34717</ele>
        <time>2017-10-08T13:10:47Z</time>
      </trkpt>
      <trkpt lat="62.6869883" lon="17.8448767">
        <ele>7.82788</ele>
        <time>2017-10-08T13:10:55Z</time>
      </trkpt>
      <trkpt lat="62.6867863" lon="17.845161">
        <ele>8.30859</ele>
        <time>2017-10-08T13:11:04Z</time>
      </trkpt>
      <trkpt lat="62.6865707" lon="17.8454236">
        <ele>8.30859</ele>
        <time>2017-10-08T13:11:12Z</time>
      </trkpt>
      <trkpt lat="62.6863795" lon="17.8456278">
        <ele>7.82788</ele>
        <time>2017-10-08T13:11:19Z</time>
      </trkpt>
      <trkpt lat="62.6860967" lon="17.8459108">
        <ele>7.82788</ele>
        <time>2017-10-08T13:11:28Z</time>
      </trkpt>
      <trkpt lat="62.6858799" lon="17.8460976">
        <ele>8.30859</ele>
        <time>2017-10-08T13:11:36Z</time>
      </trkpt>
      <trkpt lat="62.6857801" lon="17.8460333">
        <ele>8.78918</ele>
        <time>2017-10-08T13:11:40Z</time>
      </trkpt>
      <trkpt lat="62.6856709" lon="17.845737">
        <ele>8.78918</ele>
        <time>2017-10-08T13:11:45Z</time>
      </trkpt>
      <trkpt lat="62.6855033" lon="17.8456641">
        <ele>8.30859</ele>
        <time>2017-10-08T13:11:49Z</time>
      </trkpt>
      <trkpt lat="62.6851098" lon="17.8457002">
        <ele>6.86646</ele>
        <time>2017-10-08T13:11:57Z</time>
      </trkpt>
      <trkpt lat="62.6847353" lon="17.8457645">
        <ele>7.82788</ele>
        <time>2017-10-08T13:12:04Z</time>
      </trkpt>
      <trkpt lat="62.6844691" lon="17.8457665">
        <ele>8.30859</ele>
        <time>2017-10-08T13:12:10Z</time>
      </trkpt>
      <trkpt lat="62.6841681" lon="17.8455869">
        <ele>9.75061</ele>
        <time>2017-10-08T13:12:17Z</time>
      </trkpt>
      <trkpt lat="62.6838486" lon="17.8453117">
        <ele>11.6732</ele>
        <time>2017-10-08T13:12:25Z</time>
      </trkpt>
      <trkpt lat="62.6835287" lon="17.8451193">
        <ele>13.1151</ele>
        <time>2017-10-08T13:12:33Z</time>
      </trkpt>
      <trkpt lat="62.6832189" lon="17.8450825">
        <ele>14.0764</ele>
        <time>2017-10-08T13:12:41Z</time>
      </trkpt>
      <trkpt lat="62.68287" lon="17.8450655">
        <ele>14.0764</ele>
        <time>2017-10-08T13:12:49Z</time>
      </trkpt>
      <trkpt lat="62.6825576" lon="17.8449846">
        <ele>14.0764</ele>
        <time>2017-10-08T13:12:56Z</time>
      </trkpt>
      <trkpt lat="62.6822504" lon="17.8447455">
        <ele>14.0764</ele>
        <time>2017-10-08T13:13:03Z</time>
      </trkpt>
      <trkpt lat="62.6819521" lon="17.8443404">
        <ele>14.0764</ele>
        <time>2017-10-08T13:13:11Z</time>
      </trkpt>
      <trkpt lat="62.6815677" lon="17.8439417">
        <ele>13.5958</ele>
        <time>2017-10-08T13:13:20Z</time>
      </trkpt>
      <trkpt lat="62.6812211" lon="17.8438219">
        <ele>13.1151</ele>
        <time>2017-10-08T13:13:27Z</time>
      </trkpt>
      <trkpt lat="62.6808327" lon="17.8437603">
        <ele>13.5958</ele>
        <time>2017-10-08T13:13:35Z</time>
      </trkpt>
      <trkpt lat="62.6804452" lon="17.8437302">
        <ele>13.5958</ele>
        <time>2017-10-08T13:13:43Z</time>
      </trkpt>
      <trkpt lat="62.6799519" lon="17.8435588">
        <ele>14.557</ele>
        <time>2017-10-08T13:13:53Z</time>
      </trkpt>
      <trkpt lat="62.6794988" lon="17.8432987">
        <ele>15.999</ele>
        <time>2017-10-08T13:14:03Z</time>
      </trkpt>
      <trkpt lat="62.6791678" lon="17.8430589">
        <ele>15.5184</ele>
        <time>2017-10-08T13:14:10Z</time>
      </trkpt>
      <trkpt lat="62.6787912" lon="17.8428951">
        <ele>13.1151</ele>
        <time>2017-10-08T13:14:16Z</time>
      </trkpt>
      <trkpt lat="62.6783227" lon="17.8428108">
        <ele>11.1925</ele>
        <time>2017-10-08T13:14:23Z</time>
      </trkpt>
      <trkpt lat="62.6779335" lon="17.8428437">
        <ele>8.78918</ele>
        <time>2017-10-08T13:14:28Z</time>
      </trkpt>
      <trkpt lat="62.6775111" lon="17.8429313">
        <ele>6.38586</ele>
        <time>2017-10-08T13:14:33Z</time>
      </trkpt>
      <trkpt lat="62.6771842" lon="17.8428691">
        <ele>5.90527</ele>
        <time>2017-10-08T13:14:37Z</time>
      </trkpt>
      <trkpt lat="62.6766243" lon="17.8423673">
        <ele>4.94385</ele>
        <time>2017-10-08T13:14:45Z</time>
      </trkpt>
      <trkpt lat="62.6761685" lon="17.8418664">
        <ele>4.46326</ele>
        <time>2017-10-08T13:14:53Z</time>
      </trkpt>
      <trkpt lat="62.6757266" lon="17.8414523">
        <ele>4.46326</ele>
        <time>2017-10-08T13:15:01Z</time>
      </trkpt>
      <trkpt lat="62.6753971" lon="17.8411133">
        <ele>4.46326</ele>
        <time>2017-10-08T13:15:08Z</time>
      </trkpt>
      <trkpt lat="62.6750054" lon="17.8406979">
        <ele>4.46326</ele>
        <time>2017-10-08T13:15:17Z</time>
      </trkpt>
      <trkpt lat="62.6746879" lon="17.8404129">
        <ele>4.46326</ele>
        <time>2017-10-08T13:15:24Z</time>
      </trkpt>
      <trkpt lat="62.6743462" lon="17.84001">
        <ele>4.94385</ele>
        <time>2017-10-08T13:15:32Z</time>
      </trkpt>
      <trkpt lat="62.6741958" lon="17.8398571">
        <ele>5.42456</ele>
        <time>2017-10-08T13:15:36Z</time>
      </trkpt>
      <trkpt lat="62.6740821" lon="17.8396795">
        <ele>5.42456</ele>
        <time>2017-10-08T13:15:40Z</time>
      </trkpt>
      <trkpt lat="62.673925" lon="17.839655">
        <ele>5.42456</ele>
        <time>2017-10-08T13:15:45Z</time>
      </trkpt>
      <trkpt lat="62.6737862" lon="17.8398737">
        <ele>4.94385</ele>
        <time>2017-10-08T13:15:50Z</time>
      </trkpt>
      <trkpt lat="62.6736169" lon="17.8398872">
        <ele>4.46326</ele>
        <time>2017-10-08T13:15:54Z</time>
      </trkpt>
      <trkpt lat="62.6732221" lon="17.8397408">
        <ele>3.98267</ele>
        <time>2017-10-08T13:16:03Z</time>
      </trkpt>
      <trkpt lat="62.6727932" lon="17.8395919">
        <ele>4.46326</ele>
        <time>2017-10-08T13:16:13Z</time>
      </trkpt>
      <trkpt lat="62.6727513" lon="17.8395818">
        <ele>4.46326</ele>
        <time>2017-10-08T13:16:14Z</time>
      </trkpt>
      <trkpt lat="62.6723834" lon="17.8395494">
        <ele>4.94385</ele>
        <time>2017-10-08T13:16:22Z</time>
      </trkpt>
      <trkpt lat="62.6721353" lon="17.8394741">
        <ele>5.42456</ele>
        <time>2017-10-08T13:16:28Z</time>
      </trkpt>
      <trkpt lat="62.6718248" lon="17.8394209">
        <ele>5.42456</ele>
        <time>2017-10-08T13:16:34Z</time>
      </trkpt>
      <trkpt lat="62.6714878" lon="17.8394183">
        <ele>6.38586</ele>
        <time>2017-10-08T13:16:40Z</time>
      </trkpt>
      <trkpt lat="62.6712167" lon="17.8396432">
        <ele>6.86646</ele>
        <time>2017-10-08T13:16:46Z</time>
      </trkpt>
      <trkpt lat="62.6711702" lon="17.8396757">
        <ele>6.86646</ele>
        <time>2017-10-08T13:16:47Z</time>
      </trkpt>
      <trkpt lat="62.6707134" lon="17.8399086">
        <ele>7.34717</ele>
        <time>2017-10-08T13:16:58Z</time>
      </trkpt>
      <trkpt lat="62.6704285" lon="17.8400684">
        <ele>8.30859</ele>
        <time>2017-10-08T13:17:05Z</time>
      </trkpt>
      <trkpt lat="62.6700613" lon="17.8402223">
        <ele>8.30859</ele>
        <time>2017-10-08T13:17:13Z</time>
      </trkpt>
      <trkpt lat="62.6696581" lon="17.8403782">
        <ele>7.34717</ele>
        <time>2017-10-08T13:17:21Z</time>
      </trkpt>
      <trkpt lat="62.669081" lon="17.840617">
        <ele>7.34717</ele>
        <time>2017-10-08T13:17:32Z</time>
      </trkpt>
      <trkpt lat="62.6686676" lon="17.840876">
        <ele>7.82788</ele>
        <time>2017-10-08T13:17:40Z</time>
      </trkpt>
      <trkpt lat="62.6680968" lon="17.8413867">
        <ele>8.30859</ele>
        <time>2017-10-08T13:17:51Z</time>
      </trkpt>
      <trkpt lat="62.6677654" lon="17.8417766">
        <ele>8.30859</ele>
        <time>2017-10-08T13:17:58Z</time>
      </trkpt>
      <trkpt lat="62.6674533" lon="17.8422166">
        <ele>8.30859</ele>
        <time>2017-10-08T13:18:05Z</time>
      </trkpt>
      <trkpt lat="62.6671872" lon="17.8426642">
        <ele>9.2699</ele>
        <time>2017-10-08T13:18:11Z</time>
      </trkpt>
      <trkpt lat="62.6668175" lon="17.8433536">
        <ele>10.2312</ele>
        <time>2017-10-08T13:18:20Z</time>
      </trkpt>
      <trkpt lat="62.6665628" lon="17.8440141">
        <ele>10.7118</ele>
        <time>2017-10-08T13:18:27Z</time>
      </trkpt>
      <trkpt lat="62.6663596" lon="17.8446775">
        <ele>11.1925</ele>
        <time>2017-10-08T13:18:34Z</time>
      </trkpt>
      <trkpt lat="62.6661238" lon="17.8454386">
        <ele>10.7118</ele>
        <time>2017-10-08T13:18:42Z</time>
      </trkpt>
      <trkpt lat="62.6659353" lon="17.8461996">
        <ele>10.7118</ele>
        <time>2017-10-08T13:18:49Z</time>
      </trkpt>
      <trkpt lat="62.6657917" lon="17.8468523">
        <ele>10.7118</ele>
        <time>2017-10-08T13:18:56Z</time>
      </trkpt>
      <trkpt lat="62.6655947" lon="17.8475215">
        <ele>9.75061</ele>
        <time>2017-10-08T13:19:04Z</time>
      </trkpt>
      <trkpt lat="62.6653914" lon="17.8483955">
        <ele>9.75061</ele>
        <time>2017-10-08T13:19:13Z</time>
      </trkpt>
      <trkpt lat="62.6652326" lon="17.8489999">
        <ele>9.75061</ele>
        <time>2017-10-08T13:19:20Z</time>
      </trkpt>
      <trkpt lat="62.6650109" lon="17.8497086">
        <ele>8.78918</ele>
        <time>2017-10-08T13:19:28Z</time>
      </trkpt>
      <trkpt lat="62.6647489" lon="17.8504478">
        <ele>7.82788</ele>
        <time>2017-10-08T13:19:36Z</time>
      </trkpt>
      <trkpt lat="62.6644952" lon="17.851102">
        <ele>8.30859</ele>
        <time>2017-10-08T13:19:43Z</time>
      </trkpt>
      <trkpt lat="62.6642526" lon="17.8516837">
        <ele>8.30859</ele>
        <time>2017-10-08T13:19:51Z</time>
      </trkpt>
      <trkpt lat="62.6640132" lon="17.8522783">
        <ele>8.78918</ele>
        <time>2017-10-08T13:19:59Z</time>
      </trkpt>
      <trkpt lat="62.6637476" lon="17.8529689">
        <ele>9.75061</ele>
        <time>2017-10-08T13:20:08Z</time>
      </trkpt>
      <trkpt lat="62.663483" lon="17.8536398">
        <ele>9.75061</ele>
        <time>2017-10-08T13:20:17Z</time>
      </trkpt>
      <trkpt lat="62.6632561" lon="17.8541389">
        <ele>10.2312</ele>
        <time>2017-10-08T13:20:24Z</time>
      </trkpt>
      <trkpt lat="62.6630276" lon="17.8545647">
        <ele>11.1925</ele>
        <time>2017-10-08T13:20:31Z</time>
      </trkpt>
      <trkpt lat="62.6627306" lon="17.8549423">
        <ele>11.6732</ele>
        <time>2017-10-08T13:20:39Z</time>
      </trkpt>
      <trkpt lat="62.6625309" lon="17.8551804">
        <ele>12.1538</ele>
        <time>2017-10-08T13:20:44Z</time>
      </trkpt>
      <trkpt lat="62.6624084" lon="17.8555507">
        <ele>12.1538</ele>
        <time>2017-10-08T13:20:49Z</time>
      </trkpt>
      <trkpt lat="62.6624195" lon="17.8556456">
        <ele>12.1538</ele>
        <time>2017-10-08T13:20:50Z</time>
      </trkpt>
      <trkpt lat="62.6624797" lon="17.8559423">
        <ele>12.1538</ele>
        <time>2017-10-08T13:20:53Z</time>
      </trkpt>
      <trkpt lat="62.6626423" lon="17.8564164">
        <ele>12.6344</ele>
        <time>2017-10-08T13:20:58Z</time>
      </trkpt>
      <trkpt lat="62.6626496" lon="17.8568121">
        <ele>13.1151</ele>
        <time>2017-10-08T13:21:02Z</time>
      </trkpt>
      <trkpt lat="62.6624338" lon="17.8575438">
        <ele>14.557</ele>
        <time>2017-10-08T13:21:11Z</time>
      </trkpt>
      <trkpt lat="62.6624157" lon="17.8576163">
        <ele>14.557</ele>
        <time>2017-10-08T13:21:12Z</time>
      </trkpt>
      <trkpt lat="62.6622423" lon="17.8583536">
        <ele>15.5184</ele>
        <time>2017-10-08T13:21:22Z</time>
      </trkpt>
      <trkpt lat="62.6621378" lon="17.859074">
        <ele>15.999</ele>
        <time>2017-10-08T13:21:30Z</time>
      </trkpt>
      <trkpt lat="62.6620656" lon="17.8598082">
        <ele>15.999</ele>
        <time>2017-10-08T13:21:38Z</time>
      </trkpt>
      <trkpt lat="62.6620159" lon="17.8601668">
        <ele>15.999</ele>
        <time>2017-10-08T13:21:42Z</time>
      </trkpt>
      <trkpt lat="62.6618179" lon="17.8608992">
        <ele>14.557</ele>
        <time>2017-10-08T13:21:50Z</time>
      </trkpt>
      <trkpt lat="62.6617861" lon="17.8609968">
        <ele>14.0764</ele>
        <time>2017-10-08T13:21:51Z</time>
      </trkpt>
      <trkpt lat="62.6616299" lon="17.8613797">
        <ele>13.5958</ele>
        <time>2017-10-08T13:21:55Z</time>
      </trkpt>
      <trkpt lat="62.6613869" lon="17.8618265">
        <ele>13.1151</ele>
        <time>2017-10-08T13:22:00Z</time>
      </trkpt>
      <trkpt lat="62.6608167" lon="17.8624988">
        <ele>12.1538</ele>
        <time>2017-10-08T13:22:10Z</time>
      </trkpt>
      <trkpt lat="62.6603143" lon="17.8629805">
        <ele>11.6732</ele>
        <time>2017-10-08T13:22:19Z</time>
      </trkpt>
      <trkpt lat="62.6598179" lon="17.8634819">
        <ele>12.1538</ele>
        <time>2017-10-08T13:22:28Z</time>
      </trkpt>
      <trkpt lat="62.6595113" lon="17.8639729">
        <ele>11.1925</ele>
        <time>2017-10-08T13:22:34Z</time>
      </trkpt>
      <trkpt lat="62.6592642" lon="17.8646066">
        <ele>11.1925</ele>
        <time>2017-10-08T13:22:40Z</time>
      </trkpt>
      <trkpt lat="62.6591646" lon="17.8649663">
        <ele>11.1925</ele>
        <time>2017-10-08T13:22:43Z</time>
      </trkpt>
      <trkpt lat="62.6590317" lon="17.8660285">
        <ele>10.7118</ele>
        <time>2017-10-08T13:22:51Z</time>
      </trkpt>
      <trkpt lat="62.6590317" lon="17.8669017">
        <ele>11.6732</ele>
        <time>2017-10-08T13:22:58Z</time>
      </trkpt>
      <trkpt lat="62.6590372" lon="17.867615">
        <ele>12.6344</ele>
        <time>2017-10-08T13:23:05Z</time>
      </trkpt>
      <trkpt lat="62.6590349" lon="17.8677876">
        <ele>13.1151</ele>
        <time>2017-10-08T13:23:07Z</time>
      </trkpt>
      <trkpt lat="62.6590365" lon="17.8679456">
        <ele>13.1151</ele>
        <time>2017-10-08T13:23:09Z</time>
      </trkpt>
      <trkpt lat="62.6589826" lon="17.8688184">
        <ele>15.5184</ele>
        <time>2017-10-08T13:23:20Z</time>
      </trkpt>
      <trkpt lat="62.6589215" lon="17.8695616">
        <ele>16.9604</ele>
        <time>2017-10-08T13:23:28Z</time>
      </trkpt>
      <trkpt lat="62.6588157" lon="17.8703651">
        <ele>18.4023</ele>
        <time>2017-10-08T13:23:36Z</time>
      </trkpt>
      <trkpt lat="62.6586852" lon="17.8710333">
        <ele>19.3638</ele>
        <time>2017-10-08T13:23:44Z</time>
      </trkpt>
      <trkpt lat="62.6585483" lon="17.8716961">
        <ele>21.2864</ele>
        <time>2017-10-08T13:23:53Z</time>
      </trkpt>
      <trkpt lat="62.6584255" lon="17.872269">
        <ele>23.209</ele>
        <time>2017-10-08T13:24:01Z</time>
      </trkpt>
      <trkpt lat="62.6582676" lon="17.8727159">
        <ele>24.651</ele>
        <time>2017-10-08T13:24:07Z</time>
      </trkpt>
      <trkpt lat="62.6580475" lon="17.8731547">
        <ele>24.651</ele>
        <time>2017-10-08T13:24:14Z</time>
      </trkpt>
      <trkpt lat="62.657814" lon="17.8736266">
        <ele>24.651</ele>
        <time>2017-10-08T13:24:23Z</time>
      </trkpt>
      <trkpt lat="62.6576362" lon="17.8741457">
        <ele>25.6123</ele>
        <time>2017-10-08T13:24:31Z</time>
      </trkpt>
      <trkpt lat="62.6574601" lon="17.8747148">
        <ele>27.5349</ele>
        <time>2017-10-08T13:24:40Z</time>
      </trkpt>
      <trkpt lat="62.657335" lon="17.8752438">
        <ele>29.9381</ele>
        <time>2017-10-08T13:24:47Z</time>
      </trkpt>
      <trkpt lat="62.6572423" lon="17.8758068">
        <ele>32.8223</ele>
        <time>2017-10-08T13:24:55Z</time>
      </trkpt>
      <trkpt lat="62.6572104" lon="17.8763388">
        <ele>34.7449</ele>
        <time>2017-10-08T13:25:02Z</time>
      </trkpt>
      <trkpt lat="62.6571746" lon="17.8770016">
        <ele>36.1868</ele>
        <time>2017-10-08T13:25:10Z</time>
      </trkpt>
      <trkpt lat="62.6571371" lon="17.8774422">
        <ele>36.1868</ele>
        <time>2017-10-08T13:25:15Z</time>
      </trkpt>
      <trkpt lat="62.6570634" lon="17.8782043">
        <ele>36.1868</ele>
        <time>2017-10-08T13:25:22Z</time>
      </trkpt>
      <trkpt lat="62.6569755" lon="17.8791549">
        <ele>37.1481</ele>
        <time>2017-10-08T13:25:30Z</time>
      </trkpt>
      <trkpt lat="62.6568659" lon="17.8800473">
        <ele>38.5901</ele>
        <time>2017-10-08T13:25:39Z</time>
      </trkpt>
      <trkpt lat="62.6567489" lon="17.8808441">
        <ele>42.916</ele>
        <time>2017-10-08T13:25:48Z</time>
      </trkpt>
      <trkpt lat="62.656625" lon="17.8815806">
        <ele>45.3192</ele>
        <time>2017-10-08T13:25:56Z</time>
      </trkpt>
      <trkpt lat="62.6565313" lon="17.882236">
        <ele>45.3192</ele>
        <time>2017-10-08T13:26:02Z</time>
      </trkpt>
      <trkpt lat="62.6564583" lon="17.8828558">
        <ele>46.2806</ele>
        <time>2017-10-08T13:26:08Z</time>
      </trkpt>
      <trkpt lat="62.6564023" lon="17.8833366">
        <ele>48.2034</ele>
        <time>2017-10-08T13:26:13Z</time>
      </trkpt>
      <trkpt lat="62.6563339" lon="17.8838846">
        <ele>49.6453</ele>
        <time>2017-10-08T13:26:19Z</time>
      </trkpt>
      <trkpt lat="62.656181" lon="17.8846925">
        <ele>52.0486</ele>
        <time>2017-10-08T13:26:29Z</time>
      </trkpt>
      <trkpt lat="62.6560178" lon="17.8854167">
        <ele>54.9324</ele>
        <time>2017-10-08T13:26:38Z</time>
      </trkpt>
      <trkpt lat="62.6558673" lon="17.8859043">
        <ele>54.4518</ele>
        <time>2017-10-08T13:26:44Z</time>
      </trkpt>
      <trkpt lat="62.6556179" lon="17.8865262">
        <ele>54.9324</ele>
        <time>2017-10-08T13:26:52Z</time>
      </trkpt>
      <trkpt lat="62.6553874" lon="17.8871152">
        <ele>55.8938</ele>
        <time>2017-10-08T13:27:00Z</time>
      </trkpt>
      <trkpt lat="62.6553253" lon="17.8872518">
        <ele>56.3745</ele>
        <time>2017-10-08T13:27:02Z</time>
      </trkpt>
      <trkpt lat="62.655185" lon="17.8874569">
        <ele>56.8551</ele>
        <time>2017-10-08T13:27:06Z</time>
      </trkpt>
      <trkpt lat="62.6551068" lon="17.8875264">
        <ele>57.3358</ele>
        <time>2017-10-08T13:27:08Z</time>
      </trkpt>
      <trkpt lat="62.6549487" lon="17.887584">
        <ele>58.2971</ele>
        <time>2017-10-08T13:27:12Z</time>
      </trkpt>
      <trkpt lat="62.654848" lon="17.8875364">
        <ele>58.2971</ele>
        <time>2017-10-08T13:27:16Z</time>
      </trkpt>
      <trkpt lat="62.654838" lon="17.8875383">
        <ele>58.2971</ele>
        <time>2017-10-08T13:27:19Z</time>
      </trkpt>
      <trkpt lat="62.6548213" lon="17.8876137">
        <ele>61.181</ele>
        <time>2017-10-08T13:32:58Z</time>
      </trkpt>
      <trkpt lat="62.6547623" lon="17.887875">
        <ele>61.181</ele>
        <time>2017-10-08T13:33:03Z</time>
      </trkpt>
      <trkpt lat="62.6547618" lon="17.8879288">
        <ele>60.7003</ele>
        <time>2017-10-08T13:33:04Z</time>
      </trkpt>
      <trkpt lat="62.6547839" lon="17.8885151">
        <ele>61.181</ele>
        <time>2017-10-08T13:33:12Z</time>
      </trkpt>
      <trkpt lat="62.6547437" lon="17.8888758">
        <ele>60.7003</ele>
        <time>2017-10-08T13:33:17Z</time>
      </trkpt>
      <trkpt lat="62.6546032" lon="17.8890032">
        <ele>60.7003</ele>
        <time>2017-10-08T13:33:21Z</time>
      </trkpt>
      <trkpt lat="62.6543487" lon="17.8891373">
        <ele>62.1423</ele>
        <time>2017-10-08T13:33:28Z</time>
      </trkpt>
      <trkpt lat="62.6541111" lon="17.8893843">
        <ele>63.1036</ele>
        <time>2017-10-08T13:33:35Z</time>
      </trkpt>
      <trkpt lat="62.653838" lon="17.8897196">
        <ele>64.0651</ele>
        <time>2017-10-08T13:33:42Z</time>
      </trkpt>
      <trkpt lat="62.6535445" lon="17.8900445">
        <ele>64.5457</ele>
        <time>2017-10-08T13:33:50Z</time>
      </trkpt>
      <trkpt lat="62.6532734" lon="17.8903344">
        <ele>65.0264</ele>
        <time>2017-10-08T13:33:58Z</time>
      </trkpt>
      <trkpt lat="62.6529056" lon="17.8907487">
        <ele>65.5071</ele>
        <time>2017-10-08T13:34:09Z</time>
      </trkpt>
      <trkpt lat="62.6526441" lon="17.8910379">
        <ele>66.4683</ele>
        <time>2017-10-08T13:34:16Z</time>
      </trkpt>
      <trkpt lat="62.6522908" lon="17.8914694">
        <ele>67.9103</ele>
        <time>2017-10-08T13:34:26Z</time>
      </trkpt>
      <trkpt lat="62.6519788" lon="17.891825">
        <ele>69.3523</ele>
        <time>2017-10-08T13:34:35Z</time>
      </trkpt>
      <trkpt lat="62.6515901" lon="17.8922831">
        <ele>71.2749</ele>
        <time>2017-10-08T13:34:46Z</time>
      </trkpt>
      <trkpt lat="62.6511657" lon="17.8928547">
        <ele>73.1976</ele>
        <time>2017-10-08T13:34:58Z</time>
      </trkpt>
      <trkpt lat="62.6508467" lon="17.8934223">
        <ele>73.6782</ele>
        <time>2017-10-08T13:35:07Z</time>
      </trkpt>
      <trkpt lat="62.6505948" lon="17.8939922">
        <ele>74.6395</ele>
        <time>2017-10-08T13:35:15Z</time>
      </trkpt>
      <trkpt lat="62.6502968" lon="17.89476">
        <ele>75.1202</ele>
        <time>2017-10-08T13:35:25Z</time>
      </trkpt>
      <trkpt lat="62.6499363" lon="17.8956643">
        <ele>76.0814</ele>
        <time>2017-10-08T13:35:36Z</time>
      </trkpt>
      <trkpt lat="62.6495956" lon="17.8965045">
        <ele>76.5621</ele>
        <time>2017-10-08T13:35:46Z</time>
      </trkpt>
      <trkpt lat="62.6492574" lon="17.8973991">
        <ele>77.0428</ele>
        <time>2017-10-08T13:35:56Z</time>
      </trkpt>
      <trkpt lat="62.6489673" lon="17.8981361">
        <ele>76.5621</ele>
        <time>2017-10-08T13:36:04Z</time>
      </trkpt>
      <trkpt lat="62.6486061" lon="17.8990899">
        <ele>75.6008</ele>
        <time>2017-10-08T13:36:14Z</time>
      </trkpt>
      <trkpt lat="62.6482499" lon="17.9000185">
        <ele>73.1976</ele>
        <time>2017-10-08T13:36:24Z</time>
      </trkpt>
      <trkpt lat="62.6480513" lon="17.9002207">
        <ele>81.3688</ele>
        <time>2017-10-08T13:36:29Z</time>
      </trkpt>
      <trkpt lat="62.647968" lon="17.900243">
        <ele>85.214</ele>
        <time>2017-10-08T13:36:31Z</time>
      </trkpt>
      <trkpt lat="62.6478701" lon="17.9003858">
        <ele>87.1366</ele>
        <time>2017-10-08T13:36:33Z</time>
      </trkpt>
      <trkpt lat="62.647637" lon="17.9009931">
        <ele>84.2527</ele>
        <time>2017-10-08T13:36:40Z</time>
      </trkpt>
      <trkpt lat="62.6473255" lon="17.9018566">
        <ele>78.004</ele>
        <time>2017-10-08T13:36:49Z</time>
      </trkpt>
      <trkpt lat="62.6470761" lon="17.9025273">
        <ele>73.1976</ele>
        <time>2017-10-08T13:36:56Z</time>
      </trkpt>
      <trkpt lat="62.6468461" lon="17.9031443">
        <ele>69.3523</ele>
        <time>2017-10-08T13:37:03Z</time>
      </trkpt>
      <trkpt lat="62.6466445" lon="17.9036526">
        <ele>66.949</ele>
        <time>2017-10-08T13:37:08Z</time>
      </trkpt>
      <trkpt lat="62.6462928" lon="17.9045633">
        <ele>63.1036</ele>
        <time>2017-10-08T13:37:16Z</time>
      </trkpt>
      <trkpt lat="62.6458524" lon="17.9056951">
        <ele>59.7391</ele>
        <time>2017-10-08T13:37:26Z</time>
      </trkpt>
      <trkpt lat="62.645464" lon="17.9066967">
        <ele>56.8551</ele>
        <time>2017-10-08T13:37:35Z</time>
      </trkpt>
      <trkpt lat="62.6451911" lon="17.907388">
        <ele>55.4131</ele>
        <time>2017-10-08T13:37:42Z</time>
      </trkpt>
      <trkpt lat="62.6449206" lon="17.9081262">
        <ele>53.4905</ele>
        <time>2017-10-08T13:37:49Z</time>
      </trkpt>
      <trkpt lat="62.6448512" lon="17.9083717">
        <ele>52.5292</ele>
        <time>2017-10-08T13:37:51Z</time>
      </trkpt>
      <trkpt lat="62.6447015" lon="17.9094574">
        <ele>49.1646</ele>
        <time>2017-10-08T13:37:59Z</time>
      </trkpt>
      <trkpt lat="62.6446408" lon="17.9100061">
        <ele>46.7612</ele>
        <time>2017-10-08T13:38:03Z</time>
      </trkpt>
      <trkpt lat="62.6445021" lon="17.9104383">
        <ele>44.358</ele>
        <time>2017-10-08T13:38:07Z</time>
      </trkpt>
      <trkpt lat="62.6443424" lon="17.9104261">
        <ele>43.8773</ele>
        <time>2017-10-08T13:38:10Z</time>
      </trkpt>
      <trkpt lat="62.6441166" lon="17.9103479">
        <ele>43.3966</ele>
        <time>2017-10-08T13:38:15Z</time>
      </trkpt>
      <trkpt lat="62.6440425" lon="17.9104778">
        <ele>43.3966</ele>
        <time>2017-10-08T13:38:17Z</time>
      </trkpt>
      <trkpt lat="62.6436296" lon="17.9113559">
        <ele>41.474</ele>
        <time>2017-10-08T13:38:28Z</time>
      </trkpt>
      <trkpt lat="62.6433086" lon="17.9119603">
        <ele>40.5128</ele>
        <time>2017-10-08T13:38:35Z</time>
      </trkpt>
      <trkpt lat="62.6428718" lon="17.9126577">
        <ele>39.0707</ele>
        <time>2017-10-08T13:38:44Z</time>
      </trkpt>
      <trkpt lat="62.642428" lon="17.9133533">
        <ele>37.1481</ele>
        <time>2017-10-08T13:38:52Z</time>
      </trkpt>
      <trkpt lat="62.6420819" lon="17.9139098">
        <ele>36.1868</ele>
        <time>2017-10-08T13:38:58Z</time>
      </trkpt>
      <trkpt lat="62.6415865" lon="17.9147224">
        <ele>34.7449</ele>
        <time>2017-10-08T13:39:07Z</time>
      </trkpt>
      <trkpt lat="62.6412328" lon="17.9154632">
        <ele>33.3029</ele>
        <time>2017-10-08T13:39:14Z</time>
      </trkpt>
      <trkpt lat="62.6408195" lon="17.9164832">
        <ele>30.4188</ele>
        <time>2017-10-08T13:39:23Z</time>
      </trkpt>
      <trkpt lat="62.6405535" lon="17.917198">
        <ele>28.9769</ele>
        <time>2017-10-08T13:39:29Z</time>
      </trkpt>
      <trkpt lat="62.6405076" lon="17.9176817">
        <ele>28.4962</ele>
        <time>2017-10-08T13:39:33Z</time>
      </trkpt>
      <trkpt lat="62.6405646" lon="17.9179155">
        <ele>28.0155</ele>
        <time>2017-10-08T13:39:35Z</time>
      </trkpt>
      <trkpt lat="62.6407698" lon="17.9185848">
        <ele>28.9769</ele>
        <time>2017-10-08T13:39:42Z</time>
      </trkpt>
      <trkpt lat="62.640862" lon="17.9192456">
        <ele>29.9381</ele>
        <time>2017-10-08T13:39:49Z</time>
      </trkpt>
      <trkpt lat="62.6409633" lon="17.9201947">
        <ele>28.9769</ele>
        <time>2017-10-08T13:39:58Z</time>
      </trkpt>
      <trkpt lat="62.6409845" lon="17.9204058">
        <ele>28.4962</ele>
        <time>2017-10-08T13:40:00Z</time>
      </trkpt>
      <trkpt lat="62.6411407" lon="17.920691">
        <ele>28.4962</ele>
        <time>2017-10-08T13:40:04Z</time>
      </trkpt>
      <trkpt lat="62.6412468" lon="17.9206862">
        <ele>29.4575</ele>
        <time>2017-10-08T13:40:06Z</time>
      </trkpt>
      <trkpt lat="62.6415046" lon="17.9205747">
        <ele>31.8607</ele>
        <time>2017-10-08T13:40:12Z</time>
      </trkpt>
      <trkpt lat="62.6416539" lon="17.9205745">
        <ele>33.3029</ele>
        <time>2017-10-08T13:40:16Z</time>
      </trkpt>
      <trkpt lat="62.6419311" lon="17.9206702">
        <ele>34.2642</ele>
        <time>2017-10-08T13:40:24Z</time>
      </trkpt>
      <trkpt lat="62.6421694" lon="17.9207591">
        <ele>35.2255</ele>
        <time>2017-10-08T13:40:31Z</time>
      </trkpt>
      <trkpt lat="62.642403" lon="17.9209194">
        <ele>36.1868</ele>
        <time>2017-10-08T13:40:38Z</time>
      </trkpt>
      <trkpt lat="62.6424797" lon="17.9211806">
        <ele>35.7061</ele>
        <time>2017-10-08T13:40:42Z</time>
      </trkpt>
      <trkpt lat="62.6425279" lon="17.9217839">
        <ele>35.7061</ele>
        <time>2017-10-08T13:40:49Z</time>
      </trkpt>
      <trkpt lat="62.6425776" lon="17.922578">
        <ele>35.2255</ele>
        <time>2017-10-08T13:40:58Z</time>
      </trkpt>
      <trkpt lat="62.6425925" lon="17.922838">
        <ele>35.2255</ele>
        <time>2017-10-08T13:41:01Z</time>
      </trkpt>
      <trkpt lat="62.6425906" lon="17.9232002">
        <ele>34.7449</ele>
        <time>2017-10-08T13:41:05Z</time>
      </trkpt>
      <trkpt lat="62.6425339" lon="17.923609">
        <ele>33.7834</ele>
        <time>2017-10-08T13:41:09Z</time>
      </trkpt>
      <trkpt lat="62.6425173" lon="17.9241275">
        <ele>33.7834</ele>
        <time>2017-10-08T13:41:14Z</time>
      </trkpt>
      <trkpt lat="62.6426564" lon="17.9244171">
        <ele>35.2255</ele>
        <time>2017-10-08T13:41:18Z</time>
      </trkpt>
      <trkpt lat="62.6427065" lon="17.924531">
        <ele>35.7061</ele>
        <time>2017-10-08T13:41:20Z</time>
      </trkpt>
      <trkpt lat="62.6427875" lon="17.9247953">
        <ele>37.6287</ele>
        <time>2017-10-08T13:41:24Z</time>
      </trkpt>
      <trkpt lat="62.6428339" lon="17.9254059">
        <ele>38.5901</ele>
        <time>2017-10-08T13:41:31Z</time>
      </trkpt>
      <trkpt lat="62.6428336" lon="17.9254873">
        <ele>38.5901</ele>
        <time>2017-10-08T13:41:32Z</time>
      </trkpt>
      <trkpt lat="62.6427246" lon="17.925708">
        <ele>38.1094</ele>
        <time>2017-10-08T13:41:37Z</time>
      </trkpt>
      <trkpt lat="62.6426756" lon="17.9259349">
        <ele>38.1094</ele>
        <time>2017-10-08T13:41:40Z</time>
      </trkpt>
      <trkpt lat="62.6426743" lon="17.9260146">
        <ele>37.6287</ele>
        <time>2017-10-08T13:41:41Z</time>
      </trkpt>
      <trkpt lat="62.642674" lon="17.9261685">
        <ele>37.6287</ele>
        <time>2017-10-08T13:41:43Z</time>
      </trkpt>
      <trkpt lat="62.6425661" lon="17.9263083">
        <ele>37.1481</ele>
        <time>2017-10-08T13:41:47Z</time>
      </trkpt>
      <trkpt lat="62.6422638" lon="17.9262537">
        <ele>41.474</ele>
        <time>2017-10-08T13:41:56Z</time>
      </trkpt>
      <trkpt lat="62.6422353" lon="17.9262367">
        <ele>41.474</ele>
        <time>2017-10-08T13:41:58Z</time>
      </trkpt>
      <trkpt lat="62.6422263" lon="17.9262343">
        <ele>42.4354</ele>
        <time>2017-10-08T13:42:01Z</time>
      </trkpt>
    </trkseg>
  </trk>
</gpx>